[[{"header":{"parameterUnit":"m.s-1","parameterCategory":1,"la1":30.6,"la2":29.2853,"lo1":-89.7004,"lo2":-87.6739,"dy":0.0162,"dx":0.0183,"nx":112,"ny":82,"refTime":"2023-04-22T18:00:00:Z","depth":0,"parameterNumber":2,"parameterNumberName":"U-component_of_WINDS"},"data":[0.0,0.0,0.0,0.0,0.0,0.0,0.0,0.0,0.0,0.0,0.0,0.0,0.0,0.0,0.0,0.0,0.0,0.0,0.0,0.0,0.0,0.0,0.0,0.0,0.0,0.0,0.0,0.0,0.0,0.0,0.0,0.0,0.0,0.0,0.0,0.0,0.0,0.0,0.0,0.0,0.0,0.0,0.0,0.0,0.0,0.0,0.0,0.0,0.0,0.0,0.0,0.0,0.0,0.0,0.0,0.0,0.0,0.0,0.0,0.0,0.0,0.0,0.0,0.0,0.0,0.0,0.0,0.0,0.0,0.0,0.0,0.0,0.0,0.0,0.0,0.0,0.0,0.0,0.0,0.0,0.0,0.0,0.0,0.0,0.0,0.0,0.0,0.0,0.0,0.0,-4.1306,-4.2109,-4.2283,-4.1547,-3.9747,-3.9238,-3.9167,-3.9339,0.0,0.0,0.0,0.0,0.0,0.0,0.0,0.0,0.0,0.0,0.0,0.0,0.0,0.0,0.0,0.0,0.0,0.0,0.0,0.0,0.0,0.0,0.0,0.0,0.0,0.0,0.0,0.0,0.0,0.0,0.0,0.0,0.0,0.0,0.0,0.0,0.0,0.0,0.0,0.0,0.0,0.0,0.0,0.0,0.0,0.0,0.0,0.0,0.0,0.0,0.0,0.0,0.0,0.0,0.0,0.0,0.0,0.0,0.0,0.0,0.0,0.0,0.0,0.0,0.0,0.0,0.0,0.0,0.0,0.0,0.0,0.0,0.0,0.0,0.0,0.0,0.0,0.0,0.0,0.0,0.0,0.0,0.0,0.0,0.0,0.0,0.0,0.0,0.0,0.0,0.0,0.0,0.0,0.0,0.0,0.0,0.0,0.0,0.0,0.0,0.0,0.0,0.0,0.0,-4.3473,-4.3152,-4.3556,-4.3238,-4.1676,-4.004,-3.9496,-4.037,0.0,0.0,0.0,0.0,0.0,0.0,0.0,0.0,0.0,0.0,0.0,0.0,0.0,0.0,0.0,0.0,0.0,0.0,0.0,0.0,0.0,0.0,0.0,0.0,0.0,0.0,0.0,0.0,0.0,0.0,0.0,0.0,0.0,0.0,0.0,0.0,0.0,0.0,0.0,0.0,0.0,0.0,0.0,0.0,0.0,0.0,0.0,0.0,0.0,0.0,0.0,0.0,0.0,0.0,0.0,0.0,0.0,0.0,0.0,0.0,0.0,0.0,0.0,0.0,0.0,0.0,0.0,0.0,0.0,0.0,0.0,0.0,0.0,0.0,0.0,0.0,0.0,0.0,0.0,0.0,0.0,0.0,0.0,0.0,0.0,0.0,0.0,0.0,0.0,0.0,0.0,0.0,0.0,0.0,0.0,0.0,0.0,0.0,0.0,0.0,0.0,0.0,0.0,-4.4744,-4.4707,-4.4495,-4.4736,-4.4432,-4.3271,-4.1629,-4.1053,-4.2062,-4.1201,0.0,0.0,0.0,0.0,0.0,0.0,0.0,0.0,0.0,0.0,0.0,0.0,0.0,0.0,0.0,0.0,0.0,0.0,0.0,0.0,0.0,0.0,0.0,0.0,0.0,0.0,0.0,0.0,0.0,0.0,0.0,0.0,0.0,0.0,0.0,0.0,0.0,0.0,0.0,0.0,0.0,0.0,0.0,0.0,0.0,0.0,0.0,0.0,0.0,0.0,0.0,0.0,0.0,0.0,0.0,0.0,0.0,0.0,0.0,0.0,0.0,0.0,0.0,0.0,0.0,0.0,0.0,0.0,0.0,0.0,0.0,0.0,0.0,0.0,0.0,0.0,0.0,0.0,0.0,0.0,0.0,0.0,0.0,0.0,0.0,0.0,0.0,0.0,0.0,0.0,0.0,0.0,0.0,0.0,0.0,0.0,0.0,0.0,0.0,0.0,0.0,0.0,-4.5302,-4.5558,-4.5732,-4.5681,-4.5304,-4.4309,-4.3021,-4.2629,-4.3462,-4.2737,0.0,0.0,0.0,0.0,0.0,0.0,0.0,0.0,0.0,0.0,0.0,0.0,0.0,0.0,0.0,0.0,0.0,0.0,0.0,0.0,0.0,0.0,0.0,0.0,0.0,0.0,0.0,0.0,0.0,0.0,0.0,0.0,0.0,0.0,0.0,0.0,0.0,0.0,0.0,0.0,0.0,0.0,0.0,0.0,0.0,0.0,0.0,0.0,0.0,0.0,0.0,0.0,0.0,0.0,0.0,0.0,0.0,0.0,0.0,0.0,0.0,0.0,0.0,0.0,0.0,0.0,0.0,0.0,0.0,0.0,0.0,0.0,0.0,0.0,0.0,0.0,0.0,0.0,0.0,0.0,0.0,0.0,0.0,0.0,0.0,0.0,0.0,0.0,0.0,0.0,0.0,0.0,0.0,0.0,0.0,0.0,0.0,0.0,0.0,0.0,0.0,0.0,-4.69,-4.6318,-4.6336,-4.6336,-4.576,-4.4309,-4.3606,-4.3462,-4.4103,-4.3547,0.0,0.0,0.0,0.0,0.0,0.0,0.0,0.0,0.0,0.0,0.0,0.0,0.0,0.0,0.0,0.0,0.0,0.0,0.0,0.0,0.0,0.0,0.0,0.0,0.0,0.0,0.0,0.0,0.0,0.0,0.0,0.0,0.0,0.0,0.0,0.0,0.0,0.0,0.0,0.0,0.0,0.0,0.0,0.0,0.0,0.0,0.0,0.0,0.0,0.0,0.0,0.0,0.0,0.0,0.0,0.0,0.0,0.0,0.0,0.0,0.0,0.0,0.0,0.0,0.0,0.0,0.0,0.0,0.0,0.0,0.0,0.0,0.0,0.0,0.0,0.0,0.0,0.0,0.0,0.0,0.0,0.0,0.0,0.0,0.0,0.0,0.0,0.0,0.0,0.0,0.0,0.0,0.0,0.0,0.0,0.0,0.0,0.0,0.0,0.0,0.0,0.0,-4.7446,-4.6999,-4.6999,-4.6664,-4.6156,-4.5643,-4.4181,-4.3773,-4.4934,0.0,0.0,0.0,0.0,0.0,0.0,0.0,0.0,0.0,0.0,0.0,0.0,0.0,0.0,0.0,0.0,0.0,0.0,0.0,0.0,0.0,0.0,0.0,0.0,0.0,0.0,0.0,0.0,0.0,0.0,0.0,0.0,0.0,0.0,0.0,0.0,0.0,0.0,0.0,0.0,0.0,0.0,0.0,0.0,0.0,0.0,0.0,0.0,0.0,0.0,0.0,0.0,0.0,0.0,0.0,0.0,0.0,0.0,0.0,0.0,0.0,0.0,0.0,0.0,0.0,0.0,0.0,0.0,0.0,0.0,0.0,0.0,0.0,0.0,0.0,0.0,0.0,0.0,0.0,0.0,0.0,0.0,0.0,0.0,0.0,0.0,0.0,0.0,0.0,0.0,0.0,0.0,0.0,0.0,0.0,0.0,0.0,0.0,0.0,0.0,0.0,0.0,-4.8418,-4.7871,-4.747,-4.7674,-4.7088,-4.6618,-4.643,-4.4934,-4.4495,-4.5732,0.0,0.0,0.0,0.0,0.0,0.0,0.0,0.0,0.0,0.0,0.0,0.0,0.0,0.0,0.0,0.0,0.0,0.0,0.0,0.0,0.0,0.0,0.0,0.0,0.0,0.0,0.0,0.0,0.0,0.0,0.0,0.0,0.0,0.0,0.0,0.0,0.0,0.0,0.0,0.0,0.0,0.0,0.0,0.0,0.0,0.0,0.0,0.0,0.0,0.0,0.0,0.0,0.0,0.0,0.0,0.0,0.0,0.0,0.0,0.0,0.0,0.0,0.0,0.0,0.0,0.0,0.0,0.0,0.0,0.0,0.0,0.0,0.0,0.0,0.0,0.0,0.0,0.0,0.0,0.0,0.0,0.0,0.0,0.0,0.0,0.0,0.0,0.0,0.0,0.0,0.0,0.0,0.0,0.0,0.0,0.0,0.0,0.0,0.0,0.0,0.0,0.0,-4.9367,-4.8274,-4.7614,-4.8229,-4.7756,-4.715,-4.6478,-4.5833,-4.5732,0.0,0.0,0.0,0.0,0.0,0.0,0.0,0.0,0.0,0.0,0.0,0.0,0.0,0.0,0.0,0.0,0.0,0.0,0.0,0.0,0.0,0.0,0.0,0.0,0.0,0.0,0.0,0.0,0.0,0.0,0.0,0.0,0.0,0.0,0.0,0.0,0.0,0.0,0.0,0.0,0.0,0.0,0.0,0.0,0.0,0.0,0.0,0.0,0.0,0.0,0.0,0.0,0.0,0.0,0.0,0.0,0.0,0.0,0.0,0.0,0.0,0.0,0.0,0.0,0.0,0.0,0.0,0.0,0.0,0.0,0.0,0.0,0.0,0.0,0.0,0.0,0.0,0.0,0.0,0.0,0.0,0.0,0.0,0.0,0.0,0.0,0.0,0.0,0.0,0.0,0.0,0.0,0.0,0.0,0.0,0.0,0.0,0.0,0.0,0.0,0.0,0.0,0.0,-4.9397,-4.8274,-4.7614,-4.8229,-4.7756,-4.715,-4.6478,-4.5833,-4.5732,-4.6383,0.0,0.0,0.0,0.0,0.0,0.0,0.0,0.0,0.0,0.0,0.0,0.0,0.0,0.0,0.0,0.0,0.0,0.0,0.0,0.0,0.0,0.0,0.0,0.0,0.0,0.0,0.0,0.0,0.0,0.0,0.0,0.0,0.0,0.0,0.0,0.0,0.0,0.0,0.0,0.0,0.0,0.0,0.0,0.0,0.0,0.0,0.0,0.0,0.0,0.0,0.0,0.0,0.0,0.0,0.0,0.0,0.0,0.0,0.0,0.0,0.0,0.0,0.0,0.0,0.0,0.0,0.0,0.0,0.0,0.0,0.0,0.0,0.0,0.0,0.0,0.0,0.0,0.0,0.0,0.0,0.0,0.0,0.0,0.0,0.0,0.0,0.0,0.0,0.0,0.0,0.0,0.0,0.0,0.0,0.0,0.0,0.0,0.0,0.0,0.0,0.0,0.0,-4.9456,-4.8457,-4.7897,-4.8267,-4.7995,-4.7385,-4.6478,-4.6344,-4.6388,-4.6452,0.0,0.0,0.0,0.0,0.0,0.0,0.0,0.0,0.0,0.0,0.0,0.0,0.0,0.0,0.0,0.0,0.0,0.0,0.0,0.0,0.0,0.0,0.0,0.0,0.0,0.0,0.0,0.0,0.0,0.0,0.0,0.0,0.0,0.0,0.0,0.0,0.0,0.0,0.0,0.0,0.0,0.0,0.0,0.0,0.0,0.0,0.0,0.0,0.0,0.0,0.0,0.0,0.0,0.0,0.0,0.0,0.0,0.0,0.0,0.0,0.0,0.0,0.0,0.0,0.0,0.0,0.0,0.0,0.0,0.0,0.0,0.0,0.0,0.0,0.0,0.0,0.0,0.0,0.0,0.0,0.0,0.0,0.0,0.0,0.0,0.0,0.0,0.0,0.0,0.0,0.0,0.0,0.0,0.0,0.0,0.0,0.0,0.0,0.0,0.0,0.0,0.0,-4.9522,-4.8797,-4.8306,-4.8306,-4.8306,-4.7816,-4.6631,-4.7161,-4.7307,-4.6653,0.0,0.0,0.0,0.0,0.0,0.0,0.0,0.0,0.0,0.0,0.0,0.0,0.0,0.0,0.0,0.0,0.0,0.0,0.0,0.0,0.0,0.0,0.0,0.0,0.0,0.0,0.0,0.0,0.0,0.0,0.0,0.0,0.0,0.0,0.0,0.0,0.0,0.0,0.0,0.0,0.0,0.0,0.0,0.0,0.0,0.0,0.0,0.0,0.0,0.0,0.0,0.0,0.0,0.0,0.0,0.0,0.0,0.0,0.0,0.0,-2.521,-2.5748,0.0,0.0,0.0,0.0,0.0,0.0,0.0,0.0,0.0,0.0,0.0,0.0,0.0,0.0,0.0,0.0,0.0,0.0,0.0,0.0,0.0,0.0,0.0,0.0,0.0,0.0,0.0,0.0,0.0,0.0,0.0,0.0,0.0,0.0,0.0,0.0,0.0,0.0,0.0,0.0,-4.9598,-4.8797,-4.8306,-4.8306,-4.8306,-4.8052,-4.7429,-4.7497,-4.7262,-4.6408,-4.6602,0.0,0.0,0.0,0.0,0.0,0.0,0.0,0.0,0.0,0.0,0.0,0.0,0.0,0.0,0.0,0.0,0.0,0.0,0.0,0.0,0.0,0.0,0.0,0.0,0.0,0.0,0.0,0.0,0.0,0.0,0.0,0.0,0.0,0.0,0.0,0.0,0.0,0.0,0.0,0.0,0.0,0.0,0.0,0.0,0.0,0.0,0.0,0.0,0.0,0.0,0.0,0.0,0.0,0.0,0.0,0.0,0.0,0.0,0.0,-2.895,-2.8615,0.0,0.0,0.0,0.0,0.0,0.0,0.0,0.0,0.0,0.0,0.0,0.0,0.0,0.0,0.0,0.0,0.0,0.0,0.0,0.0,0.0,0.0,0.0,0.0,0.0,0.0,0.0,0.0,0.0,0.0,0.0,0.0,0.0,0.0,0.0,0.0,0.0,0.0,0.0,0.0,-5.0768,-4.9986,-4.9499,-4.9499,-4.9499,-4.9143,-4.8245,-4.8487,-4.8207,-4.7107,-4.7357,0.0,0.0,0.0,0.0,0.0,0.0,0.0,0.0,0.0,0.0,0.0,0.0,0.0,0.0,0.0,0.0,0.0,0.0,0.0,0.0,0.0,0.0,0.0,0.0,0.0,0.0,0.0,0.0,0.0,0.0,0.0,0.0,0.0,0.0,0.0,0.0,0.0,0.0,0.0,0.0,0.0,0.0,0.0,0.0,0.0,0.0,0.0,0.0,0.0,0.0,0.0,0.0,0.0,-2.4609,-2.6413,-2.7796,-2.9505,-3.0417,-3.0712,-3.1583,-3.0721,-2.89,-3.2252,0.0,0.0,0.0,0.0,0.0,0.0,0.0,0.0,0.0,0.0,0.0,0.0,0.0,0.0,0.0,0.0,0.0,0.0,0.0,0.0,0.0,0.0,-4.7275,-4.8228,-4.8416,-4.868,-4.9612,0.0,0.0,0.0,0.0,0.0,0.0,0.0,0.0,0.0,0.0,0.0,-5.192,-5.125,-5.0802,-5.0802,-5.0802,-5.0307,-4.9079,-4.9531,-4.9325,-4.7933,-4.8056,-4.7928,0.0,0.0,0.0,0.0,0.0,0.0,0.0,0.0,0.0,0.0,0.0,0.0,0.0,0.0,0.0,0.0,0.0,0.0,0.0,0.0,0.0,0.0,0.0,0.0,0.0,0.0,0.0,0.0,0.0,0.0,0.0,0.0,-1.2114,-1.2167,0.0,0.0,0.0,0.0,0.0,0.0,0.0,0.0,0.0,0.0,0.0,0.0,0.0,-2.1938,-2.315,-2.3475,-2.4205,-2.5226,-2.5538,-2.5849,-2.6103,-2.7122,-2.753,-2.7722,-2.9745,0.0,-3.012,-3.0618,0.0,0.0,0.0,0.0,0.0,0.0,0.0,0.0,0.0,0.0,0.0,0.0,0.0,0.0,0.0,0.0,0.0,0.0,0.0,0.0,0.0,0.0,-4.5349,-4.7291,-4.7753,-4.7965,-4.8951,-5.009,-5.0981,-5.1189,-5.1574,-5.216,0.0,0.0,0.0,0.0,0.0,0.0,-5.1516,-5.1044,-5.0802,-5.0802,-5.0802,-5.0526,-4.9791,-4.9831,-4.9264,-4.7734,-4.6939,-4.6491,-4.6384,-4.553,0.0,0.0,0.0,0.0,0.0,0.0,0.0,0.0,0.0,0.0,0.0,0.0,0.0,0.0,0.0,0.0,0.0,0.0,0.0,0.0,0.0,0.0,0.0,0.0,0.0,0.0,0.0,0.0,0.0,-1.3986,-1.4471,-1.4404,-1.4148,-1.4363,0.0,0.0,0.0,0.0,0.0,0.0,0.0,0.0,0.0,-2.2868,-2.3592,-2.4196,-2.4815,-2.4815,-2.5118,-2.5742,-2.5742,-2.611,-2.6784,-2.8533,-2.9239,-2.9292,-3.1628,-3.2151,-3.1531,-3.2241,-3.3266,-3.4483,0.0,0.0,0.0,0.0,-3.6709,-3.7057,-3.6534,-3.6709,-3.7322,-3.8649,0.0,0.0,0.0,0.0,0.0,0.0,0.0,-4.6754,-4.6298,-4.6581,-4.7108,-4.749,-4.8015,-4.8513,-4.894,-4.9462,-5.005,-5.0407,-5.1162,-5.1973,-5.292,-5.3386,0.0,0.0,0.0,-5.3321,-5.2771,-5.2391,-5.216,-5.216,-5.216,-5.1726,-5.0657,-5.059,-4.9968,-4.8463,-4.702,-4.6173,-4.6173,-4.5285,-4.502,0.0,0.0,0.0,0.0,0.0,0.0,0.0,0.0,0.0,0.0,0.0,0.0,0.0,0.0,0.0,0.0,0.0,0.0,0.0,0.0,0.0,0.0,0.0,0.0,0.0,0.0,0.0,0.0,-1.5518,-1.6249,-1.6905,-1.5783,-1.5877,0.0,0.0,0.0,0.0,0.0,0.0,-2.2257,-2.3484,-2.4196,-2.4196,-2.5226,-2.5742,-2.5742,-2.5742,-2.5742,-2.5742,-2.6014,-2.6668,-2.7715,-2.9951,-3.0971,-3.1038,-3.3024,-3.3464,-3.2944,-3.397,-3.4385,-3.4483,-3.587,-3.6534,-3.6803,-3.6546,-3.6534,-3.6803,-3.6546,-3.6358,-3.6722,-3.8751,-4.0031,-4.1181,-4.3975,0.0,0.0,0.0,0.0,-4.7737,-4.6815,-4.7803,-4.8798,-4.8144,-4.8513,-4.9001,-4.9001,-4.9152,-4.9359,-4.9664,-5.0594,-5.1533,-5.2368,-5.292,0.0,-5.4217,-5.4013,-5.374,-5.3663,-5.34,-5.3206,-5.3206,-5.3042,-5.2399,-5.1189,-5.0929,-5.0314,-4.9046,-4.7239,-4.6173,-4.6173,-4.5064,-4.445,-4.445,0.0,0.0,0.0,0.0,0.0,0.0,0.0,0.0,0.0,0.0,0.0,0.0,0.0,0.0,0.0,0.0,0.0,0.0,0.0,0.0,0.0,0.0,0.0,0.0,0.0,0.0,0.0,0.0,0.0,-2.1025,-2.012,0.0,0.0,0.0,0.0,-2.1533,-2.2868,-2.3592,-2.3592,-2.4913,-2.5635,-2.5635,-2.5635,-2.5742,-2.5742,-2.5742,-2.5742,-2.5732,-2.6945,-2.7494,-2.7715,-2.9866,-3.0886,-3.0942,-3.2016,-3.3155,-3.4288,-3.4385,-3.4385,-3.4483,-3.587,-3.707,-3.7848,-3.6803,-3.7057,-3.7848,-3.6803,-3.6358,-3.6628,-3.7756,-4.0335,-4.3109,-4.4373,-4.6064,0.0,0.0,-4.7523,-4.8719,-4.7803,-4.8225,-4.9001,-4.894,-4.894,-4.9001,-4.9001,-4.9521,-4.9763,-4.9152,-4.9605,-5.0449,-5.1545,0.0,-5.3068,-5.374,-5.3814,-5.3663,-5.3272,-5.3206,-5.3206,-5.3206,-5.2554,-5.1856,-5.1138,-5.0445,-4.978,-4.9046,-4.7239,-4.6173,-4.6173,-4.4403,-4.3409,-4.3409,-4.3394,0.0,0.0,0.0,0.0,0.0,0.0,0.0,0.0,0.0,0.0,0.0,0.0,0.0,0.0,0.0,0.0,0.0,0.0,0.0,0.0,0.0,0.0,0.0,0.0,0.0,0.0,0.0,0.0,-2.2667,-2.1752,0.0,-2.4097,-2.3484,-2.3384,-2.4196,-2.4716,-2.502,-2.502,-2.543,-2.5742,-2.5742,-2.5742,-2.611,-2.6945,-2.6945,-2.7305,-2.8121,-2.8588,-2.8773,-2.8795,-3.0766,-3.1821,-3.2277,-3.3744,-3.4846,-3.5667,-3.5667,-3.5667,-3.5763,-3.625,-3.6628,-3.6977,-3.6534,-3.6628,-3.6977,-3.6534,-3.6358,-3.6722,-3.8662,-4.1042,-4.3304,-4.3678,-4.4781,-4.5722,-4.5358,-4.6609,-4.8015,-4.7671,-4.8306,-4.9001,-4.9001,-4.9001,-4.9001,-4.9001,-4.9212,-4.9316,-4.9063,-4.9936,-5.0841,-5.1269,-5.1874,-5.2605,-5.3322,-5.3422,-5.3359,-5.3206,-5.2787,-5.249,-5.249,-5.1874,-5.1189,-5.0445,-5.0129,-4.9453,-4.8208,-4.6884,-4.5905,-4.5358,-4.3974,-4.3329,-4.3329,-4.1864,-4.1835,0.0,0.0,0.0,0.0,0.0,0.0,0.0,0.0,0.0,0.0,0.0,0.0,0.0,0.0,0.0,0.0,0.0,0.0,0.0,0.0,0.0,0.0,0.0,0.0,0.0,-1.9826,-2.0135,-2.3285,-2.2567,-2.2767,-2.543,-2.4913,-2.4716,-2.5635,-2.5742,-2.5742,-2.5742,-2.5742,-2.5927,-2.6294,-2.639,-2.6935,-2.8226,-2.8226,-2.8588,-2.9407,-2.9761,-3.0045,-3.0056,-3.1872,-3.2883,-3.3351,-3.4835,-3.5755,-3.6094,-3.6282,-3.6358,-3.6358,-3.6358,-3.6358,-3.6358,-3.6358,-3.6358,-3.6358,-3.6358,-3.6896,-3.7874,-3.9373,-4.1435,-4.3329,-4.3329,-4.3989,-4.4887,-4.5153,-4.64,-4.7655,-4.8015,-4.8513,-4.9001,-4.9001,-4.9001,-4.9001,-4.9001,-4.9001,-4.9001,-4.9001,-5.0146,-5.1086,-5.1086,-5.1856,-5.2662,-5.3121,-5.2999,-5.2831,-5.2831,-5.2177,-5.1741,-5.1741,-5.112,-5.05,-5.0016,-4.9763,-4.9093,-4.7721,-4.6747,-4.5586,-4.4251,-4.3585,-4.3155,-4.2725,-4.0845,-4.0661,-4.2126,0.0,0.0,0.0,0.0,0.0,0.0,0.0,0.0,0.0,0.0,0.0,0.0,0.0,0.0,0.0,0.0,0.0,0.0,0.0,0.0,0.0,0.0,0.0,-1.9524,-1.8506,-1.9213,-2.3176,-2.2567,-2.2868,-2.543,-2.5742,-2.5742,-2.5742,-2.5742,-2.5742,-2.5742,-2.5742,-2.6294,-2.7589,-2.7589,-2.8226,-2.9407,-2.9498,-2.9498,-2.9498,-3.0676,-3.1223,-3.1323,-3.3069,-3.3884,-3.396,-3.5027,-3.5516,-3.5592,-3.6119,-3.6345,-3.6358,-3.6358,-3.6358,-3.6358,-3.6358,-3.6358,-3.6358,-3.6358,-3.7861,-3.9812,-3.9899,-4.1449,-4.325,-4.325,-4.3989,-4.502,-4.5905,-4.6884,-4.7803,-4.8719,-4.9001,-4.9001,-4.9001,-4.9001,-4.9001,-4.9001,-4.9001,-4.9001,-4.9001,-5.0107,-5.1086,-5.1086,-5.2242,-5.3164,-5.3164,-5.2536,0.0,-5.2047,-5.1494,-5.1086,-5.1086,-5.039,-4.9976,-4.9959,-4.9342,-4.8513,-4.7589,-4.6592,-4.5144,-4.3015,-4.313,-4.2644,-4.1504,-4.0404,-3.9899,-3.9812,0.0,0.0,0.0,0.0,0.0,0.0,0.0,0.0,0.0,0.0,0.0,0.0,0.0,0.0,0.0,0.0,0.0,0.0,0.0,0.0,0.0,-1.9708,-1.9524,-2.0939,-2.0837,-2.1347,-2.3484,-2.4196,-2.4913,-2.5635,-2.5742,-2.5742,-2.5742,-2.5742,-2.5742,-2.5742,-2.5742,-2.6294,-2.7589,-2.7589,-2.8588,-3.0676,-3.0676,-3.1134,-3.2064,-3.2426,-3.2612,-3.2612,-3.3046,-3.352,-3.3922,-3.4223,-3.4801,-3.5554,-3.5705,-3.6006,-3.6358,-3.6358,-3.6358,-3.6358,-3.6358,-3.6358,-3.6358,-3.6358,-3.7322,-3.8738,-3.9637,-4.0916,-4.2208,-4.3076,-4.3989,-4.4887,-4.5079,-4.633,-4.7655,-4.795,-4.8513,-4.9001,-4.9001,-4.9001,-4.9001,-4.9001,-4.9001,-4.9001,-4.9001,-4.9739,-5.0297,-5.0297,-5.1494,-5.2242,-5.1777,-5.1922,-5.1904,-5.1444,-5.077,-5.05,-5.1034,-4.9993,-4.9188,-4.8984,-4.8362,-4.7306,-4.5634,-4.4476,-4.328,-4.2024,-4.1239,-4.0304,-3.9067,-3.9623,-3.9461,0.0,0.0,0.0,0.0,0.0,0.0,0.0,0.0,0.0,0.0,0.0,0.0,0.0,0.0,0.0,0.0,0.0,0.0,0.0,0.0,0.0,0.0,-1.9317,-1.9013,-1.9819,-2.0939,-2.2156,-2.3583,-2.4402,-2.5118,-2.5635,-2.5742,-2.5742,-2.5742,-2.5742,-2.5742,-2.5742,-2.5742,-2.6294,-2.7589,-2.8049,-2.9315,-3.1211,-3.1689,-3.2339,-3.3081,-3.3081,-3.3081,-3.3081,-3.3081,-3.3257,-3.3571,-3.3796,-3.4261,-3.4876,-3.5102,-3.5391,-3.5717,0.0,0.0,0.0,0.0,-3.6358,-3.6358,-3.6358,-3.715,-3.8198,-3.8917,-4.0304,-4.1684,-4.2371,-4.3349,-4.4297,-4.4662,-4.5577,-4.6539,-4.6884,-4.7721,-4.8289,-4.7933,-4.8433,-4.8793,-4.8111,-4.8265,-4.846,-4.8139,-4.8379,0.0,-4.8678,-5.0066,-5.1062,-5.071,-5.0427,-5.0163,-4.975,-4.9097,-4.8701,-4.8752,-4.825,-4.7725,-4.7206,-4.706,0.0,0.0,0.0,-4.2328,-4.0916,-3.9798,0.0,0.0,0.0,-3.8275,-3.6527,-3.8399,0.0,0.0,-3.9601,-4.0405,0.0,0.0,0.0,0.0,0.0,0.0,0.0,0.0,0.0,0.0,0.0,0.0,0.0,0.0,0.0,0.0,-1.8199,-1.8199,-1.8499,-2.0633,-2.2466,-2.3384,-2.3791,-2.4402,-2.5538,-2.5742,-2.5742,-2.5742,-2.5742,-2.5742,-2.5742,-2.5742,0.0,0.0,0.0,-2.9863,-3.1223,-3.2326,-3.2982,-3.3081,-3.3081,-3.3081,-3.3081,-3.3081,-3.3081,-3.3106,-3.3596,-3.3847,-3.3935,-3.4424,-3.4663,-3.4826,-3.5868,-3.627,-3.6282,-3.6332,-3.6358,-3.6358,-3.6358,0.0,0.0,-3.8017,-3.9508,-4.1239,-4.1337,-4.2068,-4.3006,-4.3899,-4.431,-4.4607,-4.5421,-4.6419,-4.6994,-4.6159,-4.7276,-4.8077,-4.6551,-4.6899,-4.7322,-4.6785,-4.665,-4.665,-4.6786,-4.8462,-4.9727,-4.9676,-4.8574,-4.7763,-4.7672,-4.705,-4.6361,-4.5711,-4.5991,0.0,-4.5223,-4.5623,-4.5081,-4.2936,-4.2604,-4.1579,-3.9623,-3.8469,-3.7939,-3.7939,-3.7743,-3.662,-3.4385,-3.5571,-3.5571,-3.4471,-3.881,-3.9764,0.0,0.0,0.0,0.0,0.0,0.0,0.0,0.0,0.0,0.0,0.0,0.0,0.0,0.0,0.0,-2.1963,-2.1651,-2.1651,-2.3791,-2.4609,-2.4205,-2.2357,-2.3998,-2.543,-2.5635,-2.5742,-2.5742,-2.5742,-2.5742,-2.5742,-2.5742,-2.5742,-2.6294,-2.7589,-2.7861,-2.8947,-3.1223,-3.14,-3.2052,-3.3081,-3.3081,0.0,-3.3081,-3.3081,-3.3081,-3.3081,-3.3194,-3.3483,-3.3909,-3.401,-3.4324,-3.4788,-3.5454,-3.5705,-3.5755,-3.6194,-3.6358,-3.6358,-3.6358,-3.6534,-3.6883,-3.7756,-3.8366,-3.8992,-3.9972,-4.0054,0.0,-4.0108,-4.0973,-4.1941,-4.2134,-4.3482,-4.483,-4.4629,-4.4897,-4.5064,-4.472,-4.477,-4.5066,-4.5653,-4.5744,-4.5963,-4.665,-4.7606,-4.8043,-4.7518,-4.7627,-4.7617,-4.7084,-4.6267,-4.5879,-4.6271,-4.5288,-4.4715,-4.4866,-4.452,-4.3593,-4.1995,-4.0048,-3.8429,-3.7163,-3.6896,-3.6709,-3.6709,-3.563,-3.4848,-3.4385,-3.4678,-3.4678,-3.4483,-3.6433,-3.7111,0.0,0.0,0.0,0.0,0.0,0.0,0.0,0.0,0.0,0.0,0.0,-1.7617,-1.8478,0.0,-1.9317,-2.1355,-2.1651,-2.2156,-2.3484,-2.4304,-2.4402,-2.3791,-2.4913,-2.5742,-2.5742,-2.5742,-2.5742,-2.5742,-2.5742,-2.5742,-2.5742,-2.5742,-2.6014,-2.6668,-2.7315,-2.8132,-2.9407,-3.0045,-3.0586,-3.1235,-3.1235,-3.1601,-3.2152,-3.2152,-3.2513,-3.3081,-3.3081,-3.3232,-3.3483,-3.3483,-3.3658,-3.396,-3.4512,-3.4889,-3.5165,-3.5441,-3.5542,-3.5542,-3.5542,-3.5542,-3.5621,-3.6224,-3.683,-3.7414,-3.8041,-3.8413,-3.8588,-3.8588,-3.9539,-4.0474,-4.0474,-4.1977,-4.3409,-4.2934,-4.3548,-4.3997,-4.3105,-4.3297,-4.3652,-4.3749,-4.3748,-4.3891,-4.4344,-4.466,-4.5194,-4.6101,-4.5821,-4.5419,-4.5076,-4.4282,-4.3699,-4.3632,-4.3211,-4.2862,-4.2605,-4.1866,-4.1018,-4.0322,-3.8385,-3.6977,-3.6452,-3.6358,-3.6358,-3.6358,-3.5078,-3.4068,-3.3353,-3.408,-3.408,-3.3365,-3.5463,-3.6358,0.0,0.0,0.0,0.0,0.0,0.0,0.0,-1.3514,-1.4628,-1.7101,-1.7582,-1.7582,-1.7582,-1.8708,-1.9731,-1.993,-2.1143,-2.2156,-2.2466,-2.3384,-2.4501,-2.5538,-2.5742,-2.5742,-2.5742,-2.5742,-2.5742,-2.5742,-2.5742,-2.5742,-2.5742,-2.5742,-2.5742,-2.5742,-2.6668,-2.7315,-2.7589,-2.8588,-2.9131,-2.9407,-2.9407,-2.9954,-3.0855,-3.0855,-3.15,-3.2698,-3.2982,-3.2982,-3.2797,-3.2982,-3.3081,-3.3119,-3.3571,-3.401,-3.4424,-3.4638,-3.4726,-3.4726,-3.4726,-3.4726,-3.4726,-3.4726,-3.5391,-3.6144,-3.6144,-3.673,-3.7383,-3.7383,-3.8032,-3.8771,-3.8771,-4.0121,-4.1349,-4.0529,-4.1553,-4.2264,-4.0939,-4.1194,-4.1612,-4.1198,-4.1103,-4.1236,-4.1611,-4.1676,-4.2461,-4.4656,-4.3866,-4.3047,-4.3047,-4.2252,-4.1478,-4.0758,-4.0839,-4.0595,-3.9801,-3.8982,-3.8481,-3.8605,-3.7079,-3.6257,-3.6358,-3.6358,-3.6263,-3.6061,-3.4666,-3.3353,-3.1927,-3.3055,-3.3155,-3.2331,-3.4848,-3.6156,-0.0214,-0.4418,-0.8415,-0.8608,-1.0721,-1.2876,0.0,-1.5269,-1.7213,-1.7575,-1.7582,-1.7582,-1.7582,-1.8708,-2.0033,-2.1245,-2.2567,-2.389,-2.5118,-2.543,-2.5538,-2.5635,-2.5742,-2.5742,-2.5742,-2.5742,-2.5742,-2.5742,-2.5742,-2.5742,-2.5742,-2.5742,-2.5742,-2.5742,-2.583,-2.6476,-2.7589,-2.7767,-2.8319,-2.9407,-2.9407,-2.9498,-2.959,-2.959,-3.0226,-3.15,-3.2612,-3.2426,-3.15,-3.2612,-3.3081,-3.3081,-3.3144,-3.3206,-3.3382,-3.4361,-3.4726,-3.4726,-3.4726,-3.4726,-3.4726,-3.4726,-3.4803,-3.4893,-3.4893,-3.4629,-3.4399,-3.4399,-3.4764,-3.5261,-3.5261,-3.6086,-3.6929,-3.68,-3.6929,-3.7042,-3.6844,-3.6894,-3.721,-3.7854,-3.8032,-3.8544,-4.0276,-4.0562,-4.0974,-4.2206,-4.2237,-4.2125,-4.2125,-4.1396,-4.0811,-4.069,-3.919,-3.8055,-3.7592,-3.7107,-3.6957,-3.7475,-3.6288,-3.5855,-3.6345,-3.6358,-3.5858,-3.4678,-3.3254,-3.1836,-3.0514,-3.0721,-3.1327,-3.2331,-3.3871,-3.5271,-0.2196,-0.4405,-0.6761,-0.8414,-0.976,-1.1214,-1.2945,-1.4234,-1.553,-1.7259,-1.7582,-1.7891,-1.8603,-1.993,-2.1245,-2.2667,-2.3998,-2.502,-2.5635,-2.5742,-2.5742,-2.5742,-2.5742,-2.5742,-2.5742,-2.5742,-2.5742,-2.5742,-2.5742,-2.5742,-2.5742,-2.5742,-2.5742,-2.5742,-2.5742,-2.5927,-2.6476,-2.6476,-2.6754,-2.721,-2.721,-2.7673,-2.8319,-2.8319,-2.9039,-3.0226,-3.0687,-3.0687,-3.0226,-3.0687,-3.0956,-3.0956,-3.0956,-3.0956,-3.1205,-3.3032,-3.3771,-3.3771,-3.3771,-3.3771,-3.3771,-3.3771,-3.3771,-3.3771,-3.3771,-3.3608,-3.342,-3.342,-3.4062,-3.4664,-3.4664,-3.544,-3.6198,-3.6198,-3.6198,-3.6198,-3.6198,-3.6198,-3.6341,-3.6662,-3.6726,-3.702,-3.7808,-3.7957,-3.8105,-3.859,-3.9607,-4.0094,-3.9461,-3.859,-3.8074,-3.8074,-3.7348,-3.6794,-3.665,-3.6192,-3.5983,-3.6234,-3.509,-3.4457,-3.4676,-3.428,-3.3749,-3.3155,-3.1836,-3.0824,-3.0317,-3.0317,-3.103,-3.2331,-3.3773,-3.5078,-0.4702,-0.571,-0.6267,-0.8387,-0.9158,-1.0021,-1.2186,-1.3264,-1.4449,-1.6605,-1.7364,-1.7891,-1.8916,-2.0531,-2.2055,-2.2976,-2.4609,-2.5742,-2.5742,-2.5742,-2.5742,-2.5742,-2.5742,-2.5742,-2.5742,-2.5742,-2.5742,-2.5742,-2.5742,-2.5742,-2.5742,-2.5742,-2.5742,-2.5742,-2.5742,-2.5742,-2.5742,-2.5742,-2.5742,-2.5742,-2.5742,-2.6197,-2.7125,-2.74,-2.7861,-2.8402,-2.9131,-2.9223,-2.8958,-2.9223,-2.9407,-2.9407,-2.9407,-2.9407,-2.959,-3.1424,-3.2064,-3.2064,-3.2064,-3.2339,-3.2612,-3.2612,-3.2797,-3.3081,-3.3081,-3.3081,-3.3081,-3.3081,-3.3628,-3.4275,-3.4275,-3.4802,-3.5346,-3.5346,-3.5346,-3.5346,-3.5346,-3.5346,-3.5346,-3.5346,-3.5346,-3.5426,-3.5734,-3.5814,-3.5814,-3.5814,-3.6697,-3.73,-3.7192,-3.6598,-3.6119,-3.5814,-3.5814,-3.5668,-3.5346,-3.5033,-3.4868,-3.5024,-3.3826,-3.3268,-3.3458,-3.2643,-3.1995,-3.1724,-3.0824,-3.012,-2.9713,-2.9713,-3.0421,-3.1724,-3.2755,-3.3958,-0.7201,-0.8788,-0.8775,-0.8866,-0.9934,-1.1105,-1.1105,-1.3372,-1.531,-1.5417,-1.6605,-1.7582,-1.7687,-1.9819,-2.1744,-2.1752,-2.3998,-2.5742,-2.5742,-2.5742,-2.5742,-2.5742,-2.5742,-2.5742,-2.5742,-2.5742,-2.5742,-2.5742,-2.5742,-2.5742,-2.5742,-2.5742,-2.5742,-2.5742,-2.5742,-2.5742,-2.5742,-2.5742,-2.5742,-2.5742,-2.5742,-2.5742,-2.583,-2.704,-2.6945,-2.5917,-2.8402,-2.8773,-2.7778,-2.8958,-2.9407,-2.9407,-2.9407,-2.9407,-2.9407,-2.9498,-2.9498,-2.9498,-2.9498,-3.0316,-3.1223,-3.1223,-3.2052,-3.3081,-3.3081,-3.3081,-3.3081,-3.3081,-3.3167,-3.3154,-3.3154,-3.3154,-3.3154,-3.3154,-3.3154,-3.3154,-3.3154,-3.3154,-3.3154,-3.3154,-3.3154,-3.3556,-3.4594,-3.4746,-3.4746,-3.4746,-3.3714,-3.3804,-3.5933,-3.6198,-3.5814,-3.4815,-3.4746,-3.4345,-3.3313,-3.3167,-3.3406,-3.3947,-3.2804,-3.2531,-3.3434,-3.2311,-3.1262,-3.0411,-3.0317,-2.9608,-2.8398,-2.8398,-2.9006,-3.0317,-3.0421,-3.1122,-0.4927,-0.7413,-0.8886,-0.885,-0.9268,-0.9915,-1.0891,-1.2615,-1.4234,-1.5204,-1.6605,-1.7891,-1.8708,-2.0436,-2.1954,-2.2868,-2.3791,-2.4707,-2.5538,-2.4913,-2.4716,-2.5635,-2.5742,-2.5742,-2.5742,-2.5742,-2.5742,-2.5742,-2.5742,-2.5742,-2.5742,-2.5742,-2.5742,-2.5742,-2.5742,-2.5742,-2.5742,-2.5742,-2.5742,-2.5742,-2.5742,-2.5742,-2.5732,-2.611,-2.611,-2.5732,-2.6562,-2.6754,-2.639,-2.6754,-2.6935,-2.6935,-2.6935,-2.6935,-2.6935,-2.6935,-2.6935,-2.721,-2.8855,-2.9681,-3.0045,-3.0045,-3.0316,-3.0687,-3.0687,-3.0687,-3.0687,-3.0687,-3.0687,-3.0687,-3.0687,-3.1235,-3.1601,-3.0866,-3.1235,-3.1601,-3.0777,-3.0687,-3.0687,-3.0687,-3.0687,-3.0765,-3.1075,-3.1163,-3.1163,-3.1163,-3.2253,-3.2955,-3.2893,-3.3623,-3.4024,-3.3628,-3.3641,-3.3471,-3.3154,-3.2339,-3.195,-3.2119,-3.0513,-2.9628,-2.9946,-2.941,-2.8931,-2.8575,-2.8856,-2.8804,-2.8291,-2.8291,-2.9006,-3.0317,-3.0317,-3.103,-0.3689,-0.6614,-0.8886,-0.895,-0.894,-0.9154,-1.0131,-1.1864,-1.3588,-1.4449,-1.6174,-1.7891,-1.8708,-2.0033,-2.1245,-2.2064,-2.2676,-2.3285,-2.4196,-2.3484,-2.3285,-2.4196,-2.4304,-2.4304,-2.4304,-2.4304,-2.4501,-2.4922,-2.502,-2.4815,-2.4304,-2.4304,-2.4304,-2.4304,-2.4304,-2.4304,-2.4304,-2.4304,-2.4304,-2.4304,-2.4716,-2.4707,-2.4304,-2.4815,-2.502,-2.502,-2.502,-2.502,-2.502,-2.502,-2.4716,-2.4304,-2.4304,-2.4304,-2.4304,-2.4815,-2.502,-2.5304,-2.7369,-2.8402,-2.8773,-2.8773,-2.9039,-2.9407,-2.9407,-2.9407,-2.9407,-2.9407,-2.9407,-2.9407,-2.9407,-2.9954,-3.0406,-2.959,-2.9943,-3.0316,-2.959,-2.9407,-2.9407,-2.9407,-2.9407,-2.9407,-2.9407,-2.9407,-2.9223,-2.8866,-3.0508,-3.1512,-3.0676,-3.1235,-3.1789,-3.1789,-3.1789,-3.1789,-3.1789,-3.1045,-3.0586,-3.0586,-2.8964,-2.8093,-2.8153,-2.7593,-2.7353,-2.7656,-2.793,-2.8144,-2.8291,-2.8291,-2.8698,-2.9608,-2.9608,-3.0016,-0.3689,-0.6614,-0.8886,-0.895,-0.894,-0.894,-0.894,-1.1105,-1.3156,-1.3156,-1.5411,-1.7345,-1.745,-1.8575,-1.9494,-1.9605,-2.0727,-2.1651,-2.1643,-2.1651,-2.1651,-2.1643,-2.1752,-2.1752,-2.1752,-2.1752,-2.2156,-2.3384,-2.3592,-2.3076,-2.1752,-2.1752,-2.1752,-2.1752,-2.1752,-2.1752,-2.1752,-2.1752,-2.1752,-2.1752,-2.2976,-2.2976,-2.1752,-2.2976,-2.3592,-2.3592,-2.3592,-2.3592,-2.3592,-2.3592,-2.2868,-2.1752,-2.1752,-2.1752,-2.1853,-2.3176,-2.3592,-2.3791,-2.502,-2.637,-2.7494,-2.7494,-2.8319,-2.9223,-2.9223,-2.9223,-2.9223,-2.9223,-2.9223,-2.9223,-2.9223,-2.9223,-2.9315,-2.9223,-2.9223,-2.9315,-2.9223,-2.9223,-2.9223,-2.9223,-2.9223,-2.9223,-2.9223,-2.9223,-2.8855,-2.7683,-2.8495,-2.9223,-2.9315,-2.9315,-2.9407,-2.9407,-2.9407,-2.9407,-2.9407,-2.9315,-2.9315,-2.9315,-2.8132,-2.7683,-2.8015,-2.7031,-2.6768,-2.7588,-2.7646,-2.7861,-2.8262,-2.8281,-2.8291,-2.8291,-2.8291,-2.8291,-0.3689,-0.6614,-0.8886,-0.895,-0.894,-0.894,-0.894,-1.0351,-1.1647,-1.1647,-1.3021,-1.4489,-1.5449,-1.6872,-1.8091,-1.916,-1.977,-2.0538,-2.155,-2.0845,-2.0538,-2.155,-2.1752,-2.1752,-2.1752,-2.1752,-2.1448,-2.0743,-2.1651,-2.2055,-2.1752,-2.1752,-2.1752,-2.1752,-2.1752,-2.1752,-2.1752,-2.1752,-2.1752,-2.1752,-2.2055,-2.2055,-2.1744,-2.2055,-2.2257,-2.2257,-2.2257,-2.2257,-2.2257,-2.2257,-2.2055,-2.1752,-2.1752,-2.1752,-2.1752,-2.2055,-2.2257,-2.2257,-2.2567,-2.4276,-2.6197,-2.6197,-2.638,-2.6658,-2.6658,-2.6658,-2.6658,-2.6658,-2.6658,-2.6658,-2.6658,-2.7305,-2.7861,-2.6839,-2.74,-2.7767,-2.6839,-2.6658,-2.6658,-2.6658,-2.6658,-2.6658,-2.6658,-2.6658,-2.6562,-2.6197,-2.6476,-2.703,-2.7955,-2.8855,-2.9407,-2.9407,-2.9407,-2.9407,-2.9407,-2.8598,-2.8049,-2.8049,-2.6849,-2.6247,-2.6356,-2.6409,-2.6494,-2.6709,-2.7344,-2.7715,-2.7822,-2.8135,-2.8291,-2.8291,-2.8291,-2.8291,-0.3689,-0.6614,-0.8886,-0.895,-0.894,-0.894,-0.894,-0.9964,-1.0983,-1.0983,-1.199,-1.3304,-1.4659,-1.5657,-1.6767,-1.8136,-1.8508,-1.9013,-1.9826,-1.9213,-1.9013,-1.9826,-1.9922,-1.9922,-1.9922,-1.9922,-1.962,-1.8812,-2.0033,-2.0531,-1.9922,-1.9922,-1.9922,-1.9922,-1.9922,-1.9922,-1.9922,-1.9922,-1.9922,-1.9922,-2.0538,-2.0436,-1.9922,-2.0538,-2.0743,-2.0743,-2.0743,-2.0743,-2.0743,-2.0743,-2.0428,-1.9922,-1.9922,-1.9922,-1.9922,-2.0538,-2.0743,-2.0845,-2.1448,-2.2667,-2.389,-2.389,-2.389,-2.389,-2.389,-2.4402,-2.4815,-2.4815,-2.5226,-2.5742,-2.5742,-2.6197,-2.6572,-2.583,-2.6294,-2.6572,-2.582,-2.5742,-2.5538,-2.4922,-2.4815,-2.4609,-2.4097,-2.4402,-2.4609,-2.3998,-2.389,-2.4384,-2.5732,-2.6989,-2.7757,-2.7757,-2.7757,-2.7757,-2.7757,-2.6607,-2.5935,-2.5935,-2.4669,-2.4196,-2.4815,-2.5041,-2.5567,-2.6387,-2.6855,-2.7197,-2.7383,-2.7812,-2.8018,-2.8027,-2.8203,-2.8291,-0.3242,-0.6388,-0.888,-0.8819,-0.891,-0.8903,-0.8882,-0.9734,-1.0576,-1.0576,-1.1472,-1.2562,-1.3982,-1.4373,-1.5062,-1.6658,-1.712,-1.7325,-1.7575,-1.7582,-1.7582,-1.7582,-1.7582,-1.7582,-1.7582,-1.7582,-1.7582,-1.7582,-1.8715,-1.8812,-1.7687,-1.7582,-1.7582,-1.7582,-1.7582,-1.7582,-1.7582,-1.7582,-1.7582,-1.7582,-1.8812,-1.8708,-1.7687,-1.8812,-1.9324,-1.9324,-1.9324,-1.9324,-1.9324,-1.9324,-1.8603,-1.7582,-1.7582,-1.7582,-1.7793,-1.8916,-1.9324,-1.9524,-2.0735,-2.1143,-2.1245,-2.1541,-2.1752,-2.1752,-2.1752,-2.2458,-2.3384,-2.3384,-2.4304,-2.5128,-2.5128,-2.5128,-2.5128,-2.5128,-2.5128,-2.5128,-2.5128,-2.5128,-2.4815,-2.3692,-2.3384,-2.3076,-2.1853,-2.2667,-2.3076,-2.1853,-2.1752,-2.2156,-2.3276,-2.4609,-2.5528,-2.5635,-2.5742,-2.5742,-2.5742,-2.4501,-2.3692,-2.3692,-2.2466,-2.2257,-2.3384,-2.3384,-2.4262,-2.5981,-2.6039,-2.6352,-2.6934,-2.7363,-2.7607,-2.7676,-2.8047,-2.8242,-0.0671,-0.47,-0.886,-0.8706,-0.8655,-0.8716,-0.8591,-0.8748,-0.8937,-0.8937,-0.9024,-0.9517,-1.0712,-1.1148,-1.2141,-1.4779,-1.5463,-1.6039,-1.7437,-1.7582,-1.7582,-1.7582,-1.7582,-1.7582,-1.7582,-1.7582,-1.7582,-1.7582,-1.7786,-1.7891,-1.7582,-1.7582,-1.7582,-1.7582,-1.7582,-1.7582,-1.7582,-1.7582,-1.7582,-1.7582,-1.7891,-1.7786,-1.7582,-1.7891,-1.7996,-1.7996,-1.7996,-1.7996,-1.7996,-1.7996,-1.7786,-1.7582,-1.7582,-1.7582,-1.7582,-1.7891,-1.7996,-1.7996,-1.8192,-1.8297,-1.8708,-2.0939,-2.1752,-2.1752,-2.1752,-2.1853,-2.2055,-2.2055,-2.2257,-2.2366,-2.2366,-2.2366,-2.2366,-2.2366,-2.2366,-2.2366,-2.2366,-2.2366,-2.2366,-2.2055,-2.2055,-2.1954,-2.1752,-2.1853,-2.1954,-2.1752,-2.1752,-2.1752,-2.2055,-2.3176,-2.4501,-2.5538,-2.5742,-2.5742,-2.5742,-2.4501,-2.3692,-2.3692,-2.2466,-2.1853,-2.2055,-2.2055,-2.2702,-2.4099,-2.4519,-2.5254,-2.6494,-2.6924,-2.7314,-2.7666,-2.7744,-2.7959,-0.0,-0.3069,-0.675,-0.821,-0.8608,-0.857,-0.8499,-0.8425,-0.8374,-0.8374,-0.8255,-0.8546,-0.9829,-1.0305,-1.1102,-1.3222,-1.4361,-1.5348,-1.6254,-1.6932,-1.7415,-1.7562,-1.7582,-1.7582,-1.7582,-1.7582,-1.7259,-1.6499,-1.6499,-1.6499,-1.6499,-1.5743,-1.531,-1.531,-1.531,-1.531,-1.531,-1.531,-1.531,-1.5417,-1.6068,-1.6068,-1.5423,-1.6929,-1.7147,-1.6499,-1.7259,-1.7582,-1.7582,-1.7582,-1.7582,-1.7582,-1.7582,-1.7582,-1.7582,-1.7582,-1.7582,-1.7582,-1.7582,-1.7582,-1.7786,-1.9109,-1.962,-1.962,-1.962,-2.0025,-2.0641,-2.0641,-2.1143,-2.1752,-2.1752,-2.1752,-2.1752,-2.1752,-2.1752,-2.1752,-2.1752,-2.1143,-2.0641,-2.0641,-2.0641,-2.0436,-1.9723,-2.0128,-2.0333,-1.9723,-1.962,-1.9826,-2.0538,-2.1151,-2.2064,-2.3484,-2.3592,-2.3592,-2.3592,-2.2366,-2.1558,-2.1558,-2.0333,-1.993,-2.0538,-2.0641,-2.155,-2.3692,-2.3872,-2.469,-2.6055,-2.6484,-2.6797,-2.7002,-2.7226,-2.7559,-0.0,-0.1931,-0.4769,-0.7731,-0.8455,-0.8428,-0.8394,-0.8303,-0.8221,-0.8221,-0.8126,-0.8333,-0.9414,-0.9717,-1.0327,-1.1768,-1.3021,-1.414,-1.5033,-1.6059,-1.6918,-1.7462,-1.7325,-1.7147,-1.7147,-1.6823,-1.6174,-1.5091,-1.4663,-1.4663,-1.4877,-1.3911,-1.3264,-1.3264,-1.3264,-1.3264,-1.3264,-1.3264,-1.3264,-1.3264,-1.4449,-1.4341,-1.3372,-1.5636,-1.6068,-1.4984,-1.6174,-1.6717,-1.6717,-1.6717,-1.6717,-1.6717,-1.6717,-1.6717,-1.6717,-1.6717,-1.6717,-1.6717,-1.6717,-1.6929,-1.7147,-1.7147,-1.7364,-1.7582,-1.7582,-1.8297,-1.922,-1.922,-1.993,-2.0837,-2.0837,-2.0837,-2.0837,-2.0837,-2.0837,-2.0837,-2.0837,-1.993,-1.922,-1.922,-1.922,-1.8812,-1.7786,-1.8506,-1.8812,-1.7786,-1.7582,-1.7996,-1.9013,-1.922,-1.9627,-2.0735,-2.1347,-2.1752,-2.1752,-2.0436,-1.9627,-1.9627,-1.8297,-1.8094,-1.9117,-1.922,-2.0333,-2.2776,-2.3076,-2.3899,-2.5226,-2.5976,-2.6299,-2.6396,-2.6728,-2.7119,-0.0,-0.1916,-0.4652,-0.7416,-0.8206,-0.8252,-0.8113,-0.8069,-0.8062,-0.8062,-0.8052,-0.8038,-0.8137,-0.8247,-0.8696,-1.0344,-1.069,-1.1774,-1.4439,-1.5106,-1.5799,-1.7078,-1.6243,-1.563,-1.563,-1.4449,-1.3588,-1.348,-1.2295,-1.2077,-1.3372,-1.3372,-1.3264,-1.3264,-1.3264,-1.3264,-1.3264,-1.3264,-1.3264,-1.3264,-1.348,-1.348,-1.3264,-1.3588,-1.3588,-1.348,-1.3588,-1.3696,-1.3696,-1.3696,-1.3696,-1.3696,-1.3696,-1.3696,-1.3696,-1.3696,-1.3696,-1.3696,-1.3696,-1.4556,-1.563,-1.563,-1.6499,-1.7582,-1.7582,-1.7687,-1.7786,-1.7786,-1.7891,-1.7996,-1.7996,-1.7996,-1.7996,-1.7996,-1.7996,-1.7996,-1.7996,-1.7891,-1.7786,-1.7786,-1.7786,-1.7786,-1.7582,-1.7681,-1.7793,-1.7582,-1.7582,-1.7687,-1.7786,-1.7786,-1.7786,-1.7989,-2.0231,-2.1752,-2.1752,-2.0436,-1.9627,-1.9627,-1.8297,-1.7687,-1.7786,-1.7786,-1.8506,-1.9937,-2.1245,-2.2567,-2.3899,-2.5166,-2.6006,-2.6387,-2.6426,-2.667,-0.0,-0.0831,-0.2666,-0.6952,-0.8066,-0.8133,-0.8058,-0.8038,-0.8038,-0.8038,-0.8038,-0.8038,-0.8038,-0.8038,-0.8254,-0.8811,-0.9614,-1.0666,-1.1966,-1.2988,-1.3722,-1.4481,-1.4184,-1.4011,-1.4011,-1.3612,-1.294,-1.2077,-1.0566,-1.0025,-1.0676,-1.0672,-1.0672,-1.0672,-1.0672,-1.0672,-1.0672,-1.0672,-1.0672,-1.0676,-1.1538,-1.1538,-1.0676,-1.2512,-1.2832,-1.2082,-1.2945,-1.3264,-1.3264,-1.3264,-1.3264,-1.3264,-1.3264,-1.3264,-1.3264,-1.3264,-1.3264,-1.3264,-1.3264,-1.3696,-1.4126,-1.4126,-1.4556,-1.531,-1.7041,-1.7582,-1.7582,-1.7582,-1.7582,-1.7582,-1.7582,-1.7582,-1.7582,-1.7582,-1.7582,-1.7582,-1.7582,-1.7582,-1.7582,-1.7582,-1.7582,-1.7582,-1.7582,-1.7582,-1.7582,-1.7582,-1.7582,-1.7582,-1.7582,-1.7582,-1.7582,-1.7582,-1.8603,-1.9213,-1.9213,-1.8708,-1.8401,-1.8401,-1.7891,-1.7582,-1.7582,-1.7582,-1.8199,-1.9524,-2.0135,-2.1558,-2.3692,-2.4205,-2.5007,-2.5996,-2.5996,-2.623,-0.0,-0.0,-0.1106,-0.5639,-0.7369,-0.7972,-0.8045,-0.8045,-0.8048,-0.8041,-0.8038,-0.8038,-0.8038,-0.8038,-0.8038,-0.8038,-0.8825,-0.9652,-1.0388,-1.1248,-1.1927,-1.2161,-1.227,-1.2302,-1.2302,-1.2079,-1.1584,-1.0562,-0.9482,-0.894,-0.894,-0.894,-0.894,-0.894,-0.894,-0.894,-0.894,-0.894,-0.894,-0.894,-0.9915,-0.9915,-0.8937,-1.0996,-1.1433,-1.0457,-1.1538,-1.1969,-1.1969,-1.1969,-1.1969,-1.1969,-1.1969,-1.1969,-1.1969,-1.1969,-1.1969,-1.1969,-1.1969,-1.2295,-1.262,-1.262,-1.2945,-1.3696,-1.5743,-1.6605,-1.6935,-1.6935,-1.7252,-1.7582,-1.7582,-1.7582,-1.7582,-1.7582,-1.7582,-1.7582,-1.7582,-1.7582,-1.7582,-1.7582,-1.7582,-1.7582,-1.7582,-1.7582,-1.7582,-1.7582,-1.7582,-1.7582,-1.7582,-1.7582,-1.7582,-1.7582,-1.7582,-1.7582,-1.7582,-1.7582,-1.7582,-1.7582,-1.7582,-1.7582,-1.7582,-1.7582,-1.7989,-1.9013,-1.9428,-2.0538,-2.2466,-2.3276,-2.4196,-2.5128,-2.5128,-2.528,-0.0,-0.0,-0.0603,-0.3413,-0.6042,-0.7982,-0.8048,-0.7955,-0.7965,-0.8045,-0.8038,-0.8038,-0.8038,-0.8038,-0.8038,-0.8038,-0.8038,-0.8641,-1.0345,-1.048,-1.0453,-1.0606,-1.071,-1.075,-1.075,-0.9568,-0.8774,-0.8927,-0.894,-0.894,-0.894,-0.894,-0.894,-0.894,-0.894,-0.894,-0.894,-0.894,-0.894,-0.894,-0.894,-0.894,-0.894,-0.8937,-0.8937,-0.8937,-0.8937,-0.8937,-0.8937,-0.8937,-0.8937,-0.8937,-0.8937,-0.8937,-0.8937,-0.8937,-0.8937,-0.8937,-0.8937,-0.9915,-1.1105,-1.1105,-1.2077,-1.3264,-1.3372,-1.4341,-1.5417,-1.5417,-1.6499,-1.7582,-1.7582,-1.7582,-1.7582,-1.7582,-1.7582,-1.7582,-1.7582,-1.7582,-1.7582,-1.7582,-1.7582,-1.7582,-1.7582,-1.7582,-1.7582,-1.7582,-1.7582,-1.7582,-1.7582,-1.7582,-1.7582,-1.7582,-1.7582,-1.7582,-1.7582,-1.7582,-1.7582,-1.7582,-1.7582,-1.7582,-1.7582,-1.7582,-1.7582,-1.7582,-1.8909,-1.9627,-1.9627,-2.2366,-2.3692,-2.3692,-2.3692,-2.3692,-0.0,-0.0,-0.0202,-0.1005,-0.4636,-0.7695,-0.6534,-0.7147,-0.7965,-0.8045,-0.8038,-0.8038,-0.8038,-0.8038,-0.8038,-0.8038,-0.8038,-0.824,-0.8741,-0.8774,-0.8796,-0.8785,-0.894,-0.9091,-0.9194,-0.8836,-0.8574,-0.8621,-0.8625,-0.8679,-0.8689,-0.8696,-0.8736,-0.8933,-0.894,-0.894,-0.894,-0.8954,-0.8853,-0.8853,-0.8866,-0.8873,-0.8873,-0.8873,-0.8873,-0.8873,-0.8873,-0.8873,-0.8873,-0.8873,-0.8873,-0.8873,-0.8873,-0.8873,-0.8873,-0.8873,-0.8873,-0.8873,-0.8856,-0.9179,-0.961,-0.9596,-0.9915,-1.0241,-1.0241,-1.1969,-1.3911,-1.3911,-1.4341,-1.4883,-1.5849,-1.5417,-1.5204,-1.7147,-1.6823,-1.6387,-1.7364,-1.7582,-1.7582,-1.7582,-1.7582,-1.7582,-1.7582,-1.7582,-1.7582,-1.7582,-1.7582,-1.7582,-1.7582,-1.7582,-1.7582,-1.7582,-1.7582,-1.7582,-1.7582,-1.7582,-1.7582,-1.7582,-1.7582,-1.7582,-1.7582,-1.7582,-1.7582,-1.7582,-1.7989,-1.8708,-1.9627,-2.0444,-2.1347,-2.2366,-2.3276,-2.3692,-0.0,-0.0,-0.0,-0.0,-0.2519,-0.505,-0.5327,-0.6745,-0.7972,-0.8045,-0.8038,-0.8038,-0.8038,-0.8038,-0.8041,-0.7952,-0.8045,-0.8045,-0.7955,-0.8048,-0.8038,-0.8038,-0.8126,-0.8241,-0.8387,-0.8404,-0.8428,-0.8492,-0.8496,-0.8547,-0.8555,-0.757,-0.7075,-0.7188,-0.8367,-0.8853,-0.8853,-0.8866,-0.8304,-0.7276,-0.7287,-0.7293,-0.7293,-0.7293,-0.7293,-0.7293,-0.7293,-0.7293,0.0,-0.7293,-0.7293,-0.7293,-0.7293,-0.7293,-0.7293,-0.7293,-0.7293,-0.7293,-0.7279,-0.7961,-0.887,-0.885,-0.8947,-0.894,-0.894,-1.0566,-1.262,-1.3156,-1.3264,-1.348,-1.4341,-1.3911,-1.3804,-1.553,-1.531,-1.4883,-1.5743,-1.5962,-1.5962,-1.5962,-1.5962,-1.5962,-1.5962,-1.5962,-1.6174,-1.6717,-1.6823,-1.6929,-1.7582,-1.7582,-1.7582,-1.7582,-1.7582,-1.7582,-1.7582,-1.7582,-1.7582,-1.7582,-1.7582,-1.7582,-1.7582,-1.7582,-1.7582,-1.7582,-1.7582,-1.7996,-1.8812,-1.993,-2.0538,-2.0939,-2.2876,-2.3384,0.0,-0.0,-0.0,-0.0,-0.0302,-0.1412,-0.462,-0.6748,0.0,-0.8045,-0.8038,-0.8038,-0.8038,-0.8041,-0.8048,-0.7969,-0.7856,-0.7849,-0.7985,-0.7959,-0.8038,-0.8041,-0.8041,-0.8096,-0.8245,-0.8255,-0.8323,-0.858,-0.8377,-0.8286,-0.8428,-0.6054,-0.4702,-0.4459,-0.721,-0.8533,-0.8552,-0.8782,-0.7524,-0.4808,-0.436,-0.4136,-0.4136,-0.4136,-0.4136,-0.4136,-0.4136,-0.4136,-0.4136,-0.4136,-0.4136,-0.4136,-0.4136,-0.4136,-0.4136,-0.4136,-0.4136,-0.4136,-0.4136,-0.6161,-0.866,-0.887,-0.885,-0.894,-0.894,-0.9805,-1.1214,-1.262,-1.2945,-1.3048,-1.3156,-1.3048,-1.3048,-1.3264,-1.3264,-1.3156,-1.327,-1.3264,-1.3264,-1.3264,-1.3264,-1.3264,-1.3264,-1.3264,-1.3696,-1.5091,-1.5204,-1.5743,-1.7252,-1.747,-1.747,-1.7582,-1.7582,-1.7582,-1.7582,-1.7582,-1.7582,-1.7582,-1.7582,-1.7582,-1.7582,-1.7582,-1.7582,-1.7582,-1.7582,-1.7582,-1.7582,-2.0231,-2.0837,-1.9524,-2.2165,-2.2776,-0.0604,0.0,-0.0,-0.0,-0.313,-0.5763,0.0,-0.6239,-0.7969,-0.8045,-0.8038,-0.8038,-0.8038,-0.7952,-0.7965,-0.7972,-0.6842,-0.6434,-0.7772,-0.7955,-0.8045,-0.7962,-0.8048,-0.8065,-0.8026,-0.8026,-0.814,-0.8187,-0.622,-0.5955,-0.7969,-0.7547,-0.6333,-0.4511,-0.5184,-0.5582,-0.5483,-0.7759,-0.8565,-0.7765,-0.3249,-0.1008,-0.1008,-0.1008,-0.1008,-0.1008,-0.1008,-0.1008,-0.1008,-0.1008,-0.1008,-0.1008,-0.1008,-0.1008,-0.1008,-0.1008,-0.1008,-0.1008,-0.1006,-0.3018,-0.594,-0.8183,-0.886,-0.885,-0.8944,-0.9154,-0.9482,-0.9805,-0.9915,-1.0241,-1.1324,-1.0781,-1.0457,-1.2729,-1.2403,-1.1969,-1.3053,-1.3264,-1.3264,-1.3264,-1.3264,-1.3264,-1.3264,-1.3264,-1.3372,-1.3696,-1.3804,-1.4341,-1.5743,-1.5956,-1.6387,-1.747,-1.7582,-1.7582,-1.7582,-1.7582,-1.7582,-1.7582,-1.7582,-1.7582,-1.7582,-1.7582,-1.7582,-1.7582,-1.7582,-1.7582,-1.7582,-1.9324,-1.942,-1.8094,-1.9826,-2.0444,-0.4024,-0.2818,-0.2115,-0.3331,-0.4947,-0.6155,-0.5837,-0.6951,-0.7965,-0.8045,-0.8038,-0.8038,-0.8038,-0.8048,-0.7756,-0.6945,-0.6734,-0.6936,-0.7869,-0.7965,-0.7965,-0.7979,-0.6945,-0.6639,-0.7885,-0.6856,-0.6653,-0.7902,-0.6667,-0.5374,-0.4409,-0.6694,-0.6336,-0.253,-0.2426,-0.2464,-0.2434,-0.3992,-0.4792,-0.4825,-0.1569,-0.0,-0.0,-0.0,-0.0,-0.0,-0.0,-0.0,-0.0,-0.0,-0.0,-0.0,-0.0,-0.0,-0.0,-0.0,-0.0,-0.0,-0.0,-0.1118,-0.2907,-0.5929,-0.7841,-0.8856,-0.8947,-0.894,-0.894,-0.894,-0.894,-0.9047,-0.9915,-0.9482,-0.9265,-1.0891,-1.0676,-1.0351,-1.1105,-1.1324,-1.1324,-1.1324,-1.1324,-1.1324,-1.1324,-1.1324,-1.1538,-1.2186,-1.2295,-1.2832,-1.4234,-1.4449,-1.477,-1.553,-1.6174,-1.6605,-1.6605,-1.7259,-1.7582,-1.7582,-1.7582,-1.7582,-1.7582,-1.7582,-1.7582,-1.7582,-1.7582,-1.7582,-1.7582,-1.8909,-1.8916,-1.7582,-1.902,-1.9627,-0.7985,-0.6345,-0.5127,-0.7394,-0.6258,-0.5227,-0.7463,-0.7969,-0.7962,-0.8041,-0.8038,-0.8038,-0.8038,-0.8041,-0.754,-0.6029,-0.7036,-0.7952,-0.7965,-0.7975,-0.7882,-0.7475,-0.5737,-0.5229,-0.6665,-0.5438,-0.524,-0.6687,-0.679,-0.4752,-0.0202,-0.4356,-0.4696,-0.0103,-0.0,0.042,0.1194,0.0437,-0.0,-0.0,-0.0,0.0448,0.1345,0.0448,-0.0,-0.0,0.1009,0.1345,0.1233,0.0336,-0.0,-0.0,-0.0,-0.0,-0.0,-0.0,-0.0,-0.0,-0.0,-0.0,-0.0447,-0.3016,-0.6151,-0.8863,-0.895,-0.8944,-0.894,-0.894,-0.894,-0.894,-0.894,-0.894,-0.894,-0.894,-0.894,-0.894,-0.894,-0.894,-0.894,-0.894,-0.894,-0.894,-0.894,-0.894,-0.9372,-1.0566,-1.0781,-1.1324,-1.2724,-1.294,-1.3048,-1.327,-1.4341,-1.5091,-1.5091,-1.6387,-1.7252,-1.7252,-1.747,-1.7477,-1.7259,-1.747,-1.7477,-1.7259,-1.7477,-1.7582,-1.7582,-1.8708,-1.8708,-1.7582,-1.8812,-1.9324,-0.7969,-0.7653,-0.7444,-0.7885,-0.7675,-0.7463,-0.7872,-0.7959,-0.8041,-0.8038,-0.8038,-0.8038,-0.8038,-0.7955,-0.7869,-0.7675,-0.7779,-0.7972,-0.8048,-0.8045,-0.7138,-0.4922,-0.6239,-0.5741,-0.1613,-0.4951,-0.5663,-0.1515,-0.1212,-0.0909,-0.0,-0.0808,-0.0809,-0.0,-0.0,0.2151,0.6719,0.2265,-0.0,-0.0,-0.0,0.269,0.7315,0.2354,-0.0,0.0335,0.5384,0.7541,0.7086,0.2125,-0.0,-0.0,-0.0,-0.0,-0.0,-0.0,-0.0,-0.0,-0.0,-0.0,-0.0112,-0.0559,-0.4362,-0.8886,-0.8863,-0.8954,-0.894,-0.894,-0.894,-0.894,-0.894,-0.894,-0.894,-0.894,-0.894,-0.894,-0.894,-0.894,-0.894,-0.894,-0.894,-0.894,-0.894,-0.894,-0.8937,-0.9154,-0.9265,-0.9809,-1.1214,-1.1433,-1.1973,-1.3161,-1.348,-1.3588,-1.3588,-1.4877,-1.5743,-1.5743,-1.6929,-1.7041,-1.5743,-1.6929,-1.7041,-1.5743,-1.6929,-1.7582,-1.7582,-1.7786,-1.7786,-1.7582,-1.7786,-1.7891,-0.7952,-0.8048,-0.8041,-0.7959,-0.7959,-0.7955,-0.7955,-0.8045,-0.8038,-0.8038,-0.8038,-0.8038,-0.8038,-0.8048,-0.7955,-0.7962,-0.7972,-0.7979,-0.7969,-0.7975,-0.7582,-0.6274,-0.4642,-0.272,-0.0202,-0.2221,-0.2625,-0.0202,-0.0,-0.0,-0.0,-0.0,0.1313,0.4244,0.4345,0.4766,0.5824,0.4823,0.3645,0.2402,0.2419,0.3883,0.6507,0.5382,0.3917,0.2569,0.5375,0.7416,0.8673,0.594,0.3913,0.2457,0.246,0.2461,0.2237,0.0559,-0.0,-0.0,-0.0,-0.0,-0.0,-0.0,-0.1899,-0.4698,-0.797,-0.8873,-0.8863,-0.885,-0.895,-0.894,-0.894,-0.894,-0.894,-0.894,-0.894,-0.894,-0.894,-0.894,-0.894,-0.894,-0.894,-0.894,-0.894,-0.894,-0.894,-0.894,-0.894,-0.9154,-0.9809,-0.9915,-1.0131,-1.0891,-1.1647,-1.2077,-1.2077,-1.348,-1.4883,-1.6499,-1.6499,-1.6068,-1.5417,-1.531,-1.531,-1.5417,-1.6068,-1.6823,-1.7582,-1.7582,-1.7582,-1.7582,-1.7582,-1.7582,-0.8038,-0.8038,-0.8038,-0.8038,-0.8038,-0.8038,-0.8038,-0.8038,-0.8038,-0.8038,-0.8038,-0.8038,-0.8038,-0.8045,-0.8048,-0.8048,-0.7962,-0.7975,-0.7985,-0.8002,-0.8022,-0.8049,-0.4353,-0.1414,-0.0101,-0.0,-0.0,-0.0,-0.0,0.0505,0.1817,0.1918,0.3433,0.6986,0.7704,0.6977,0.4924,0.6955,0.7122,0.5281,0.5433,0.549,0.5558,0.7847,0.7636,0.5479,0.5479,0.6834,0.8886,0.8886,0.7516,0.5481,0.5483,0.5485,0.5146,0.2122,0.0559,-0.0,-0.0,-0.0,-0.0,-0.0,-0.0,-0.0893,-0.5375,-0.7296,-0.7862,-0.7847,-0.8399,-0.8954,-0.8944,-0.894,-0.894,-0.894,-0.894,-0.894,-0.894,-0.894,-0.894,-0.894,-0.894,-0.894,-0.894,-0.894,-0.894,-0.894,-0.894,-0.894,-0.894,-0.894,-0.894,-0.894,-0.9915,-1.0672,-1.1105,-1.2186,-1.3911,-1.6393,-1.5524,-1.477,-1.4449,-1.3696,-1.3804,-1.4883,-1.5204,-1.6174,-1.7582,-1.7582,-1.7582,-1.7582,-1.7582,-1.7582,-0.8038,-0.8038,-0.8038,-0.8038,-0.8038,-0.8038,-0.8038,-0.8038,-0.8038,-0.8038,-0.8038,-0.8038,-0.8038,-0.7955,-0.7972,-0.7972,-0.7972,-0.7972,-0.7975,-0.7975,-0.7989,-0.8022,-0.7613,-0.5464,-0.0505,-0.0,-0.0,-0.0,-0.0,0.2222,0.7202,0.7406,0.6472,0.4321,0.6659,0.7885,0.7666,0.7882,0.787,0.7723,0.8314,0.8442,0.8323,0.8706,0.8768,0.8631,0.8631,0.8745,0.8863,0.8863,0.8749,0.8634,0.8542,0.8552,0.8208,0.526,0.2457,-0.0,-0.0,-0.0,-0.0,-0.0,-0.0,-0.0112,-0.0558,-0.2569,-0.4808,-0.4806,-0.6837,-0.888,-0.895,-0.894,-0.894,-0.894,-0.894,-0.894,-0.894,-0.894,-0.894,-0.894,-0.894,-0.894,-0.894,-0.894,-0.894,-0.894,-0.894,-0.894,-0.894,-0.894,-0.894,-0.894,-0.9047,-0.9592,-1.1,-1.1214,-1.1969,-1.348,-1.348,-1.2832,-1.1428,-1.262,-1.3372,-1.348,-1.477,-1.6174,-1.7582,-1.7582,-1.7582,-1.7582,-1.7582,-1.7582,-0.8038,-0.8038,-0.8038,-0.8038,-0.8038,-0.8038,-0.8038,-0.8038,-0.8038,-0.8038,-0.8038,-0.8045,-0.7959,-0.7955,-0.7955,-0.7972,-0.7972,-0.7975,-0.7982,-0.7995,-0.6779,-0.3433,-0.303,-0.2221,-0.0202,-0.0,-0.0,-0.0,0.3131,0.5871,0.7922,0.8012,0.7582,0.6545,0.7466,0.7972,0.7952,0.7952,0.7982,0.8046,0.8452,0.8642,0.8618,0.8779,0.885,0.8954,0.8954,0.8954,0.8954,0.8954,0.8954,0.8954,0.885,0.8863,0.8759,0.7619,0.6492,0.5262,0.3463,0.1564,-0.0,-0.0,-0.0,-0.0,-0.0,-0.0784,-0.2126,-0.3917,-0.6621,-0.89,-0.8876,-0.887,-0.8866,-0.8853,-0.885,-0.8846,-0.8944,-0.894,-0.894,-0.894,-0.894,-0.894,-0.894,-0.894,-0.894,-0.894,-0.894,-0.894,-0.894,-0.894,-0.894,-0.894,-0.894,-0.9158,-0.9699,-0.9699,-0.9915,-1.0566,-1.1428,-1.1647,-1.1105,-1.0781,-1.1,-1.1864,-1.3372,-1.4776,-1.628,-1.7147,-1.7582,-1.7582,-1.7582,-1.7582,-0.8038,-0.8038,-0.8038,-0.8038,-0.8038,-0.8038,-0.8038,-0.8038,-0.8038,-0.8038,-0.8045,-0.7955,-0.7975,-0.7553,-0.7341,-0.7872,-0.7975,-0.7979,-0.7999,-0.8016,-0.5974,-0.0606,-0.0,-0.0,-0.0,-0.0,0.0707,0.2424,0.5972,0.8019,0.8009,0.7995,0.7979,0.7962,0.7962,0.7955,0.8038,0.8038,0.8237,0.863,0.8896,0.9111,0.9382,0.9865,1.019,1.0241,1.0241,1.0241,1.0241,1.0241,1.0241,1.0241,0.9809,0.9599,0.9503,0.9071,0.8866,0.8654,0.6606,0.4582,0.2458,0.0558,-0.0,-0.0,-0.0,-0.0,-0.0448,-0.2464,-0.4485,-0.6293,-0.731,-0.753,-0.7519,-0.7504,-0.8187,-0.887,-0.8853,-0.8954,-0.895,-0.895,-0.8944,-0.894,-0.894,-0.894,-0.894,-0.894,-0.894,-0.894,-0.894,-0.894,-0.894,-0.894,-0.894,-0.894,-0.894,-0.894,-0.894,-0.894,-0.9805,-1.0457,-1.0457,-0.9482,-0.9588,-1.1105,-1.2512,-1.4019,-1.5417,-1.6929,-1.7582,-1.7582,-1.7582,-1.7582,-0.8038,-0.8038,-0.8038,-0.8038,-0.8038,-0.8038,-0.8038,-0.8038,-0.8038,-0.8038,-0.7959,-0.7975,-0.7989,-0.6548,-0.6032,-0.7682,-0.7982,-0.7985,-0.8019,-0.7922,-0.5972,-0.0606,-0.0,-0.0,-0.0,-0.0,0.2221,0.7613,0.8026,0.8009,0.7975,0.7972,0.7962,0.8038,0.8038,0.8038,0.8038,0.8038,0.8726,1.0002,1.0175,1.0357,1.075,1.2202,1.2946,1.3264,1.3264,1.3264,1.3264,1.3264,1.3264,1.3156,1.1647,1.1105,1.0891,0.9482,0.8954,0.8863,0.8863,0.8876,0.7979,0.2011,0.0112,-0.0,-0.0,-0.0,-0.0,-0.0,-0.0,-0.0673,-0.3706,-0.4484,-0.447,-0.447,-0.6728,-0.8782,-0.8893,-0.8876,-0.886,-0.8863,-0.8954,-0.894,-0.894,-0.894,-0.894,-0.894,-0.894,-0.894,-0.894,-0.894,-0.894,-0.894,-0.894,-0.894,-0.894,-0.894,-0.894,-0.894,-0.894,-0.894,-0.894,-0.894,-0.9588,-1.0996,-1.2512,-1.4019,-1.5417,-1.6823,-1.7582,-1.7582,-1.7582,-1.7582,-0.8038,-0.7952,-0.7959,-0.8041,-0.7959,-0.7972,-0.7965,-0.7962,-0.7965,-0.7972,-0.6542,-0.5739,-0.7701,-0.7585,-0.7375,-0.7908,-0.8012,-0.8012,-0.8022,-0.4752,-0.1817,-0.0202,-0.0,-0.0,-0.0,-0.0,0.2221,0.7613,0.8009,0.7992,0.7975,0.7959,0.8045,0.8038,0.8038,0.8038,0.8038,0.8924,0.9608,0.9998,1.1903,1.2527,1.2088,1.2621,1.2946,1.3264,1.3264,1.3264,1.3264,1.3264,1.3264,1.3264,1.2832,1.1969,1.0996,1.0566,0.9812,0.895,0.895,0.8853,0.8641,0.6826,0.4804,0.3128,0.313,0.1677,-0.0,-0.0,-0.0,-0.0224,-0.1121,-0.1345,-0.1343,-0.1341,-0.2011,-0.3242,-0.5371,-0.5819,-0.6381,-0.8539,-0.888,-0.8876,-0.8876,-0.8863,-0.8853,-0.8853,-0.895,-0.894,-0.894,-0.894,-0.894,-0.894,-0.894,-0.894,-0.894,-0.894,-0.894,-0.894,-0.894,-0.894,-0.894,-0.894,-0.9154,-0.9588,-1.1,-1.2512,-1.3911,-1.531,-1.6605,-1.7582,-1.7582,-1.7582,-0.8038,-0.7955,-0.7969,-0.7955,-0.7972,-0.7992,-0.7995,-0.7166,-0.6753,-0.7795,-0.6667,-0.5445,-0.4945,-0.4839,-0.5548,-0.761,-0.8026,-0.7302,-0.5157,-0.2019,-0.0,-0.0,-0.0,-0.0,-0.0,0.1918,0.4039,0.6263,0.7375,0.7975,0.7962,0.8045,0.8038,0.8038,0.8038,0.8038,0.8038,0.9316,1.0293,1.0779,1.2909,1.3992,1.4093,1.4248,1.4497,1.4847,1.4944,1.499,1.499,1.499,1.499,1.499,1.4341,1.3588,1.2724,1.2186,1.1433,1.0672,1.0672,1.0249,0.9717,0.9044,0.7709,0.6265,0.6272,0.4923,0.3242,0.2122,0.1789,0.1567,0.0336,-0.0,-0.0,-0.0,-0.0,-0.0447,-0.2349,-0.2682,-0.324,-0.5037,-0.6277,-0.7182,-0.7182,-0.7171,-0.7507,-0.8759,-0.8856,-0.895,-0.894,-0.894,-0.894,-0.894,-0.894,-0.894,-0.894,-0.894,-0.894,-0.894,-0.894,-0.894,-0.894,-0.894,-0.894,-0.894,-1.0347,-1.1538,-1.2403,-1.4449,-1.5849,-1.6711,-1.7364,-1.7582,-0.8041,-0.7959,-0.7972,-0.7666,-0.7779,-0.7999,-0.8022,-0.616,-0.4933,-0.6888,-0.7305,-0.5766,-0.0906,-0.0,-0.1611,-0.6483,-0.7305,-0.5567,-0.0707,-0.0,-0.0,-0.0,-0.0,0.0202,0.0707,0.5159,0.6983,0.4522,0.6645,0.7962,0.8041,0.8038,0.8038,0.8038,0.8038,0.8038,0.8134,0.9509,1.0779,1.2139,1.3392,1.4883,1.6246,1.656,1.6881,1.7201,1.7468,1.7582,1.7582,1.7681,1.7786,1.7674,1.6274,1.5731,1.5411,1.4019,1.3372,1.3264,1.3264,1.2403,1.1101,0.9757,0.9244,0.9082,0.9102,0.9001,0.832,0.5706,0.492,0.4247,0.1564,0.0558,0.0447,0.0448,0.0224,-0.0,-0.0,-0.0,-0.0,-0.0,-0.2234,-0.4136,-0.4136,-0.4136,-0.5146,-0.8094,-0.8762,-0.8856,-0.8947,-0.8944,-0.894,-0.894,-0.894,-0.894,-0.894,-0.894,-0.894,-0.894,-0.894,-0.894,-0.894,-0.894,-0.894,-0.894,-1.0241,-1.1,-1.1105,-1.3911,-1.531,-1.5417,-1.6929,-1.7582,-0.7962,-0.7975,-0.7472,-0.5429,-0.6461,-0.8022,-0.8046,-0.7529,-0.6085,-0.2424,-0.1716,-0.1414,-0.0202,-0.0,-0.0404,-0.1515,-0.1716,-0.1313,-0.0202,-0.0,-0.0,-0.0,-0.0,0.1615,0.5871,0.7305,0.7802,0.716,0.7666,0.7962,0.8041,0.8038,0.8038,0.8038,0.8038,0.8528,0.9608,1.0877,1.2134,1.3488,1.4752,1.5566,1.5945,1.6466,1.6994,1.7495,1.7555,1.7582,1.7687,1.8708,1.922,1.9117,1.879,1.8032,1.6858,1.5506,1.4234,1.3264,1.3264,1.3048,1.2724,1.2493,1.1533,1.0574,1.0582,0.9839,0.8752,0.818,0.7967,0.7753,0.7184,0.526,0.3575,0.3578,0.1679,-0.0,-0.0,-0.0,-0.0,-0.0,-0.056,-0.1008,-0.1008,-0.1006,-0.201,-0.5033,-0.7407,-0.888,-0.8856,-0.8856,-0.885,-0.894,-0.894,-0.894,-0.894,-0.894,-0.894,-0.894,-0.894,-0.894,-0.894,-0.894,-0.894,-0.894,-0.9265,-0.9915,-1.1105,-1.2832,-1.4341,-1.5417,-1.6929,-1.7582,-0.7965,-0.7056,-0.5436,-0.2716,-0.5054,-0.7321,-0.4762,-0.4152,-0.334,-0.0606,-0.0,-0.0,-0.0,-0.0,-0.0,-0.0,-0.0,-0.0,-0.0,-0.0,-0.0,-0.0,0.2221,0.4956,0.7717,0.8009,0.7992,0.7975,0.7962,0.7952,0.8038,0.8038,0.8038,0.8038,0.8627,0.9316,0.9998,1.194,1.3199,1.3878,1.5146,1.5905,1.6059,1.65,1.6954,1.7382,1.7522,1.7996,1.8603,1.9324,2.0033,2.0641,2.0641,2.0207,1.9354,1.7928,1.6983,1.6237,1.5624,1.4883,1.4341,1.4341,1.3372,1.2186,1.2186,1.166,1.0911,1.015,0.9945,0.9739,0.9095,0.7736,0.6604,0.6611,0.3244,-0.0,-0.0,-0.0,-0.0,-0.0,-0.0,-0.0,-0.0,-0.0,-0.0559,-0.2122,-0.3689,-0.5146,-0.6604,-0.8075,-0.887,-0.8846,-0.8846,-0.895,-0.894,-0.894,-0.894,-0.894,-0.894,-0.894,-0.894,-0.894,-0.894,-0.894,-0.894,-0.9265,-1.0025,-1.1538,-1.294,-1.4449,-1.5849,-1.6929,-0.7965,-0.5734,-0.2813,-0.0504,-0.334,-0.548,-0.101,-0.0,-0.0,-0.0,-0.0,-0.0,-0.0,-0.0,-0.0,-0.0,-0.0,-0.0,-0.0,-0.0,0.0303,0.1313,0.526,0.8022,0.8016,0.7992,0.7972,0.7969,0.8048,0.8137,0.8333,0.8333,0.8432,0.8627,0.9702,1.0485,1.0676,1.2807,1.3974,1.4262,1.5337,1.5959,1.6206,1.65,1.682,1.7271,1.7762,1.8603,1.9627,2.0135,2.0947,2.2055,2.2055,2.2055,2.1853,2.0436,1.993,1.9731,1.8401,1.7127,1.605,1.5843,1.477,1.3696,1.3696,1.348,1.294,1.1542,1.1105,1.0789,0.9289,0.8856,0.886,0.888,0.5144,0.1451,0.0893,0.0336,-0.0,-0.0,-0.0,-0.0,-0.0,-0.0,-0.0,-0.0,-0.0,-0.0894,-0.3352,-0.5824,-0.7519,-0.8069,-0.8634,-0.886,-0.8947,-0.8944,-0.8944,-0.894,-0.894,-0.894,-0.894,-0.894,-0.894,-0.894,-0.894,-0.894,-0.894,-1.0351,-1.1755,-1.294,-1.4663,-1.6062,-0.7965,-0.4321,-0.0402,-0.0101,-0.0505,-0.0909,-0.0202,-0.0,-0.0,-0.0,-0.0,-0.0,-0.0,-0.0,-0.0,-0.0,-0.0,-0.0,-0.0,-0.0,0.1716,0.6382,0.761,0.8012,0.7982,0.7975,0.7965,0.8045,0.8041,0.8528,0.9706,0.9706,1.019,1.1361,1.1556,1.2231,1.3392,1.368,1.4459,1.554,1.573,1.5852,1.5899,1.6192,1.6633,1.7271,1.8676,1.942,1.9826,2.2165,2.3276,2.3384,2.3384,2.3384,2.3276,2.1954,2.1448,2.1245,1.9826,1.9213,1.8902,1.7667,1.628,1.5097,1.5097,1.4234,1.294,1.1542,1.1105,1.0785,0.9268,0.8944,0.8944,0.8947,0.8282,0.7049,0.447,0.1899,-0.0,-0.0,-0.0,-0.0,-0.0,-0.0,-0.0,-0.0,-0.0,-0.0112,-0.0559,-0.0893,-0.2234,-0.4806,-0.7404,-0.8883,-0.886,-0.8856,-0.885,-0.894,-0.894,-0.894,-0.894,-0.894,-0.894,-0.894,-0.894,-0.894,-0.894,-1.0351,-1.1214,-1.1428,-1.4126,-1.5524,-0.7975,-0.4123,-0.0,-0.0,-0.0,-0.0,-0.0,0.2322,0.4448,0.4448,0.3327,0.2718,0.4243,0.4448,0.4038,0.2516,0.2213,0.2213,0.2213,0.2213,0.3119,0.5443,0.7071,0.7992,0.7975,0.7962,0.8347,0.9019,0.9118,0.9702,1.0974,1.1072,1.1361,1.1848,1.2619,1.3295,1.3872,1.4657,1.5242,1.5832,1.5832,1.5832,1.5838,1.6889,1.7561,1.8096,1.9014,2.0366,2.1963,2.3176,2.4097,2.4815,2.4815,2.4815,2.4609,2.3285,2.2767,2.2667,2.1245,2.0238,1.9524,1.8916,1.7759,1.6605,1.6605,1.6174,1.5417,1.3906,1.348,1.3156,1.1755,1.0781,1.0131,1.0131,0.9489,0.8501,0.726,0.5926,0.4026,0.067,-0.0,-0.0,-0.0,-0.0,-0.0,-0.0,-0.0,-0.0,-0.0,-0.0,-0.0559,-0.1787,-0.3129,-0.4806,-0.7043,-0.8288,-0.8853,-0.894,-0.894,-0.894,-0.894,-0.894,-0.894,-0.894,-0.894,-0.894,-0.894,-0.9588,-1.0241,-1.1105,-1.3264,-1.4663,-0.7982,-0.5039,-0.1711,-0.0303,-0.0,0.0404,0.1716,0.5157,0.8022,0.8019,0.6358,0.5639,0.7598,0.8016,0.739,0.5334,0.5027,0.5027,0.5027,0.5027,0.5027,0.5024,0.6748,0.8168,0.8457,0.8538,0.9019,1.0391,1.0485,1.1068,1.2334,1.2431,1.2528,1.2915,1.3878,1.4364,1.4364,1.5337,1.5832,1.5832,1.5832,1.6015,1.6298,1.7465,1.8644,1.9731,1.998,2.1528,2.3692,2.4097,2.4815,2.5742,2.5742,2.5742,2.5538,2.4609,2.4196,2.3998,2.2667,2.155,2.0538,2.0238,1.922,1.8094,1.8094,1.7891,1.7252,1.5849,1.5417,1.5091,1.3696,1.2186,1.1105,1.1105,1.0025,0.894,0.8947,0.8863,0.7404,0.2122,0.0559,-0.0,-0.0,-0.0,-0.0,-0.0,-0.0,-0.0,-0.0,-0.0,-0.0,-0.0,-0.0,-0.1228,-0.4237,-0.7165,-0.8863,-0.895,-0.8947,-0.8947,-0.894,-0.894,-0.894,-0.894,-0.894,-0.894,-0.894,-0.894,-0.9482,-1.0566,-1.2077,-1.348,-0.7985,-0.7802,-0.638,-0.1313,-0.0,0.1313,0.6382,0.7818,0.8019,0.7999,0.7889,0.7882,0.7979,0.7985,0.7992,0.7785,0.7785,0.7785,0.7785,0.7785,0.7782,0.7769,0.7872,0.8457,0.9809,0.9903,1.0391,1.175,1.1755,1.2425,1.368,1.3776,1.4364,1.554,1.5635,1.573,1.573,1.5737,1.5832,1.5832,1.5832,1.6386,1.7598,1.7707,1.9458,2.2434,2.2724,2.3117,2.3791,2.5118,2.5635,2.5742,2.5742,2.5742,2.5732,2.5635,2.5635,2.543,2.4097,2.3583,2.3276,2.1954,2.0641,1.9531,1.9531,1.861,1.7252,1.5849,1.5417,1.5091,1.3696,1.2186,1.1105,1.1105,1.0025,0.8944,0.8856,0.8863,0.7955,0.4918,0.201,-0.0,-0.0,-0.0,-0.0,-0.0,-0.0,-0.0,-0.0,-0.0,-0.0,-0.0,-0.0,-0.0112,-0.0335,-0.5605,-0.8897,-0.8863,-0.886,-0.885,-0.894,-0.894,-0.894,-0.894,-0.894,-0.894,-0.894,-0.894,-0.8937,-0.9047,-1.0566,-1.1969,-0.8006,-0.8019,-0.669,-0.1313,-0.0,0.1414,0.679,0.8012,0.7999,0.7982,0.866,0.9236,0.9331,0.9454,0.9271,0.8161,0.943,1.0216,0.9434,1.0019,1.0507,1.0498,1.0498,1.069,1.117,1.1268,1.175,1.3102,1.3199,1.3782,1.5045,1.5146,1.5337,1.5825,1.5832,1.5832,1.5832,1.5832,1.5832,1.5832,1.5832,1.648,1.7692,1.8503,2.0273,2.2614,2.3523,2.4269,2.502,2.5528,2.5742,2.5742,2.5742,2.5742,2.5742,2.5742,2.5742,2.5635,2.5128,2.4402,2.3592,2.3176,2.2064,2.0743,1.9826,1.922,1.8596,1.7239,1.6823,1.6717,1.6174,1.499,1.3372,1.1538,1.0025,0.894,0.895,0.8853,0.8631,0.7502,0.6495,0.4475,0.067,-0.0,-0.0,-0.0,-0.0,-0.0,-0.0,-0.0,-0.0,-0.0,-0.0,-0.0,-0.0,-0.2011,-0.4247,-0.6927,-0.8177,-0.8853,-0.894,-0.894,-0.894,-0.894,-0.894,-0.894,-0.894,-0.894,-0.894,-0.8937,-1.0457,-1.186,-0.667,-0.5967,-0.4448,-0.0909,-0.0,0.1211,0.5655,0.7381,0.7985,0.7965,0.8737,0.9509,0.9899,1.0614,1.0623,0.9513,1.0779,1.1556,1.0779,1.1365,1.1945,1.1945,1.1945,1.2042,1.2528,1.2528,1.3108,1.4459,1.4555,1.4949,1.573,1.5832,1.5832,1.5832,1.5832,1.5832,1.5832,1.5832,1.5832,1.5832,1.5832,1.6662,1.8319,1.9131,2.075,2.3075,2.3977,2.4912,2.5742,2.5742,2.5742,2.5742,2.5742,2.5742,2.5742,2.5742,2.5742,2.5742,2.5742,2.5118,2.4402,2.4402,2.3484,2.2156,2.1253,2.0341,1.942,1.8506,1.7996,1.7582,1.7582,1.6174,1.3906,1.0996,0.9592,0.894,0.894,0.895,0.885,0.885,0.887,0.763,0.3689,0.1341,-0.0,-0.0,-0.0,-0.0,-0.0,-0.0,-0.0,-0.0,-0.0,-0.0,-0.0,-0.0,-0.1117,-0.3791,-0.7051,-0.8863,-0.895,-0.8944,-0.894,-0.894,-0.894,-0.894,-0.894,-0.894,-0.894,-0.8937,-0.9915,-1.1428,0.0,0.0,0.0,-0.0,-0.0,0.0706,0.3416,0.6044,0.7979,0.8045,0.8038,0.8432,0.9805,1.1072,1.1945,1.1945,1.1945,1.2042,1.1945,1.1945,1.2047,1.2047,1.2047,1.2528,1.3872,1.3974,1.4459,1.573,1.5832,1.5832,1.5832,1.5832,1.5832,1.5832,1.5832,1.5832,1.5832,1.5832,1.5832,1.5832,1.5832,1.7117,1.9497,1.9497,2.1075,2.3809,2.4238,2.4912,2.5723,2.5732,2.5742,2.5742,2.5742,2.5742,2.5742,2.5742,2.5742,2.5742,2.5742,2.5742,2.5742,2.5742,2.4815,2.3791,2.3683,2.1862,1.9731,1.9627,1.8708,1.7687,1.7582,1.5423,1.262,0.9699,0.8937,0.894,0.894,0.894,0.894,0.894,0.8846,0.887,0.8893,0.4026,0.0112,-0.0,-0.0,-0.0,-0.0,-0.0,-0.0,-0.0,-0.0,-0.0,-0.0,-0.0,-0.0,-0.0,-0.5487,-0.8768,-0.8863,-0.8954,-0.894,-0.894,-0.894,-0.894,-0.894,-0.894,-0.894,-0.894,-0.8937,-1.0457,-0.2116,0.0,0.0,0.0,0.0,0.0,0.3416,0.6044,0.7979,0.8045,0.8726,0.9608,0.9899,1.1843,1.3397,1.3397,1.4076,1.437,1.3494,1.4172,1.4758,1.4758,1.4758,1.4854,1.5242,1.5242,1.5439,1.5737,1.5832,1.5832,1.5832,1.5832,1.5832,1.5832,1.5832,1.5832,1.5832,1.5832,1.5832,1.5832,1.5832,1.7117,1.9497,1.9497,2.1075,2.3809,2.4238,2.4736,2.5283,2.5605,2.5742,2.5742,2.5742,2.5742,2.5742,2.5742,2.5742,2.5742,2.5742,2.5742,2.5742,2.5742,2.543,2.502,2.3998,2.3185,2.2165,2.0135,1.9324,1.8812,1.7891,1.5423,1.3048,1.2295,1.0457,0.894,0.894,0.894,0.894,0.894,0.8944,0.885,0.889,0.5712,0.2459,0.0336,-0.0,-0.0,-0.0,-0.0,-0.0,-0.0,-0.0,-0.0,-0.0,-0.0,-0.0,-0.0,-0.1564,-0.4357,-0.8749,-0.8856,-0.8846,-0.894,-0.894,-0.894,-0.894,-0.894,-0.894,-0.8937,-1.0025,-1.0891,0.0,0.0,-0.0,-0.0,0.0,0.0,0.201,0.5236,0.7982,0.7959,0.8634,0.9316,0.9903,1.1258,1.2614,1.368,1.4561,1.4949,1.4752,1.5337,1.5832,1.5832,1.5832,1.6015,1.6574,1.6574,1.6574,1.6574,1.7023,1.7117,1.6662,1.6109,1.5832,1.5832,1.5832,1.5832,1.5832,1.5832,1.5832,1.5832,1.6386,1.7576,1.9497,2.0034,2.1437,2.3555,2.416,2.456,2.4844,2.5478,2.5742,2.5742,2.5742,2.5742,2.5742,2.5742,2.5742,2.5742,2.5742,2.5742,2.5742,2.5742,2.5742,2.5538,2.4815,2.4097,2.3285,2.1041,1.9627,1.8394,1.7028,1.499,1.3156,1.2512,1.0566,0.894,0.894,0.894,0.894,0.894,0.894,0.895,0.8876,0.6829,0.3908,0.0559,-0.0,-0.0,-0.0,-0.0,-0.0,-0.0,-0.0,-0.0,-0.0,-0.0,-0.0,-0.0,-0.0,-0.1563,-0.5025,-0.7621,-0.8866,-0.8954,-0.8954,-0.895,-0.894,-0.894,-0.894,-0.8937,-0.9809,-1.0457,0.0,0.0,0.0,-0.0,-0.0,0.0,-0.0,0.3721,0.7269,0.7872,0.7959,0.8336,0.9509,0.9903,1.0774,1.3295,1.3776,1.4364,1.5635,1.5832,1.5832,1.5832,1.5832,1.6292,1.7598,1.7692,1.7777,1.787,1.8864,1.9039,1.7963,1.6669,1.6109,1.6197,1.592,1.592,1.6197,1.6109,1.6109,1.6197,1.7404,1.8503,1.9761,2.0845,2.1943,2.3184,2.4043,2.4414,2.4482,2.5371,2.5742,2.5742,2.5742,2.5742,2.5742,2.5742,2.5742,2.5742,2.5742,2.5742,2.5742,2.5742,2.5742,2.5742,2.5742,2.4913,2.3583,2.2156,1.9826,1.7463,1.6062,1.4556,1.3156,1.1647,1.0241,0.9047,0.8937,0.894,0.894,0.894,0.894,0.8947,0.886,0.7493,0.5133,0.1563,0.0447,-0.0,-0.0,-0.0,-0.0,-0.0,-0.0,-0.0,-0.0,-0.0,-0.0,-0.0,-0.0,-0.0,-0.0,-0.5489,-0.8542,-0.8631,-0.8745,-0.885,-0.894,-0.894,-0.894,-0.894,-0.894,-0.9588,-0.2726,-0.0808,-0.0,-0.0,-0.0,0.0,-0.0,0.0804,0.2814,0.7156,0.7969,0.8062,0.8336,0.9312,1.0485,1.2042,1.3199,1.4364,1.5635,1.5832,1.5832,1.5832,1.5832,1.6292,1.7598,1.7692,1.8141,1.9039,1.9405,1.9405,1.9131,1.7956,1.777,1.8764,1.6835,1.6749,1.8764,1.777,1.7863,1.8764,1.9039,1.9761,2.0935,2.1203,2.1943,2.3184,2.4043,2.4414,2.4482,2.5371,2.5742,2.5742,2.5742,2.5742,2.5742,2.5742,2.5742,2.5742,2.5742,2.5742,2.5742,2.5742,2.5742,2.5742,2.5742,2.5528,2.4815,2.2357,2.0538,1.8909,1.7562,1.6068,1.4663,1.3156,1.1755,1.0351,0.9154,0.894,0.894,0.894,0.894,0.8947,0.886,0.8631,0.8069,0.7296,0.313,-0.0,-0.0,-0.0,-0.0,-0.0,-0.0,-0.0,-0.0,-0.0,-0.0,-0.0,-0.0,-0.0,-0.0,-0.4254,-0.6611,-0.6589,-0.8156,-0.8944,-0.894,-0.894,-0.894,-0.894,-0.894,-0.9047,-0.0707,-0.0,-0.0,-0.0,-0.0,0.0,0.0,-0.0,0.0804,0.3416,0.6139,0.7969,0.7959,0.8538,0.941,1.0779,1.1551,1.2614,1.4561,1.5439,1.5832,1.5832,1.5832,1.6292,1.7598,1.8234,1.9322,2.1132,2.0223,1.9761,2.0395,1.9222,1.8864,1.9497,1.8303,1.8211,1.9497,1.8864,1.8864,1.9497,2.0124,2.0747,2.1293,2.1933,2.2704,2.3496,2.4141,2.4541,2.4795,2.5469,2.5742,2.5742,2.5742,2.5742,2.5742,2.5742,2.5742,2.5742,2.5742,2.5742,2.5742,2.5742,2.5742,2.5742,2.5742,2.4815,2.3384,2.2055,2.0231,1.8401,1.7786,1.6499,1.5091,1.3588,1.2186,1.0672,0.9265,0.894,0.894,0.894,0.894,0.8944,0.8954,0.8846,0.8853,0.8876,0.6379,0.3348,0.0335,-0.0,-0.0,-0.0,-0.0,-0.0,-0.0,-0.0,-0.0,-0.0,-0.0,-0.0,-0.0,-0.1903,-0.4369,-0.7402,-0.8402,-0.8846,-0.8846,-0.8944,-0.894,-0.894,-0.894,-0.894,-0.0,-0.0,-0.0,-0.0,-0.0,-0.0,0.0,0.0,0.0,-0.0,0.3416,0.6751,0.7772,0.7959,0.8347,0.9446,0.9821,1.0886,1.3556,1.4833,1.5619,1.5912,1.5865,1.6319,1.768,1.9152,2.0753,2.2589,2.1293,2.0753,2.1578,2.0486,1.9943,2.0223,1.977,1.9761,2.0223,1.9943,1.9943,2.0223,2.1212,2.1667,2.1658,2.2677,2.3379,2.3809,2.4238,2.4668,2.5098,2.5557,2.5742,2.5742,2.5742,2.5742,2.5742,2.5742,2.5742,2.5742,2.5742,2.5742,2.5742,2.5742,2.5538,2.5323,2.5323,2.3583,2.1651,2.1347,1.9723,1.7891,1.7687,1.6717,1.5417,1.3696,1.2403,1.1,0.9265,0.894,0.894,0.894,0.894,0.894,0.894,0.894,0.8947,0.8853,0.886,0.7163,0.2344,0.1228,0.0671,0.0112,-0.0,-0.0,-0.0,-0.0,-0.0,-0.0,-0.0,-0.0,-0.0,-0.0,-0.2241,-0.7081,-0.7741,-0.8295,-0.8863,-0.8954,-0.8944,-0.894,-0.894,-0.8954,-0.0,-0.0,-0.0,-0.0,-0.0,-0.0,-0.0,0.0,-0.0,-0.0,0.0,0.2312,0.7169,0.0,0.0,0.8473,0.9387,1.0936,1.3698,1.4317,1.4912,1.6122,1.5985,1.6395,1.7897,2.0272,2.1617,2.1507,2.2655,2.3169,2.2882,2.1756,2.1569,2.2687,2.0584,2.0494,2.2677,2.1667,2.1667,2.2677,2.2862,2.2862,2.2862,2.3047,2.3379,2.3809,2.4238,2.4668,2.5098,2.5557,2.5742,2.5742,2.5742,2.5742,2.5742,2.5742,2.5742,2.5742,2.5742,2.5742,2.5742,2.5742,2.4913,2.3899,2.3899,2.2868,2.1448,2.0238,1.9627,1.9117,1.7891,1.747,1.6717,1.3911,1.3156,1.2295,0.9482,0.894,0.894,0.894,0.894,0.894,0.894,0.894,0.894,0.8944,0.885,0.8634,0.7952,0.559,0.3016,0.0335,-0.0,-0.0,-0.0,-0.0,-0.0,-0.0,-0.0,-0.0,-0.0,-0.0,-0.0335,-0.1005,-0.3687,-0.6265,-0.8863,-0.886,-0.885,-0.894,-0.894,-0.9008,-0.0,-0.0,-0.0,-0.0,-0.0,-0.0,-0.0,-0.0,-0.0,-0.0,0.0,0.0,0.0,0.0,0.0,0.0,0.8765,0.9597,1.0624,1.1447,1.3116,1.5986,1.6313,1.6863,1.8245,1.9874,2.1186,2.1904,2.3066,2.3711,2.3525,2.2811,2.2589,2.3047,2.2129,2.2041,2.3047,2.2589,2.2589,2.3135,2.3135,2.3135,2.3135,2.3135,2.3516,2.417,2.4346,2.4814,2.5469,2.5664,2.5742,2.5742,2.5742,2.5742,2.5742,2.5742,2.5742,2.5742,2.5742,2.5742,2.5538,2.4815,2.3583,2.2567,2.2567,2.155,2.0333,1.9731,1.9013,1.8297,1.7786,1.7582,1.6823,1.4019,1.3264,1.2512,0.9592,0.894,0.894,0.894,0.894,0.894,0.894,0.894,0.894,0.894,0.8947,0.8846,0.886,0.7841,0.6604,0.5262,0.3688,0.1899,0.0112,-0.0,-0.0,-0.0,-0.0,-0.0,-0.0,-0.0,-0.0,-0.0,-0.1229,-0.4249,-0.889,-0.8873,-0.9011,-0.9083,-0.9069,-0.9096,-0.0,-0.0,-0.0303,-0.1817,-0.2222,-0.2019,-0.131,-0.1109,-0.0908,-0.0102,-0.0,0.0,0.0,0.0,0.3576,0.5458,0.0,0.7607,0.833,0.9265,1.1376,1.5413,1.6493,1.7282,1.8466,1.9654,2.0777,2.1821,2.2908,2.3444,2.3238,2.2818,2.2765,2.3047,2.3135,2.3135,2.3135,2.3135,2.3135,2.3135,2.3135,2.3135,2.3135,2.3135,2.3603,2.4414,2.4414,2.4912,2.5742,2.5742,2.5742,2.5742,2.5742,2.5742,2.5742,2.5742,2.5742,2.5742,2.5742,2.543,2.4922,2.3583,2.2265,2.1143,2.1143,2.0128,1.9013,1.9013,1.8297,1.7582,1.7582,1.7582,1.6823,1.4019,1.3264,1.2512,0.9592,0.894,0.894,0.894,0.894,0.894,0.894,0.9265,0.9482,0.9482,0.9482,0.9596,1.0048,0.9724,0.94,0.8967,0.7035,0.4795,0.2681,0.1675,0.1229,0.1232,0.1232,0.0896,-0.0,-0.0,-0.0,-0.0,-0.0,-0.2129,-0.6446,-0.7334,-0.8301,-0.9245,-0.9181,-0.9198,-0.0,-0.0,-0.1212,-0.6483,-0.7717,-0.7089,-0.4423,-0.3915,-0.3128,-0.0515,-0.0,-0.0,-0.0,0.0106,0.0107,0.0217,0.2465,0.0,0.0,0.8745,1.0225,1.4584,1.6285,1.7618,1.8587,2.0189,2.1022,2.0691,2.1916,2.2423,2.1859,2.1527,2.1845,2.3047,2.3135,2.3135,2.3135,2.3135,2.3135,2.3135,2.3135,2.3135,2.3135,2.3135,2.3603,2.4414,2.4414,2.4912,2.5742,2.5742,2.5742,2.5742,2.5742,2.5742,2.5742,2.5742,2.5742,2.5742,2.5742,2.4815,2.3583,2.2156,2.0837,1.9627,1.9627,1.8708,1.7687,1.7687,1.7582,1.7582,1.7582,1.7582,1.6823,1.4019,1.3264,1.2512,0.9592,0.894,0.894,0.894,0.894,0.894,0.894,1.0135,1.1,1.1,1.1,1.1538,1.2945,1.1864,1.0441,0.9095,0.8763,0.8686,0.8657,0.6047,0.4359,0.4359,0.4359,0.3016,0.0112,-0.0,-0.0,-0.0,-0.0,-0.0113,-0.0343,-0.343,-0.6462,-0.9165,-0.9232,-0.931,0.1006,-0.0,-0.1309,-0.6684,-0.8026,-0.7811,-0.6865,-0.6656,-0.6486,-0.5782,-0.424,-0.3012,-0.2964,-0.1381,-0.0,-0.0,0.41,0.7624,0.0,0.8889,0.9334,1.0741,1.3841,1.6323,1.7874,1.91,1.9876,1.9985,2.1531,2.2362,2.2227,2.2413,2.2677,2.3057,2.3135,2.3135,2.3135,2.3887,2.3887,2.3135,2.4648,2.4967,2.4211,2.4211,2.4712,2.5492,2.468,2.4912,2.5742,2.5742,2.5742,2.5742,2.5742,2.5742,2.5742,2.5742,2.5118,2.4205,2.3384,2.2165,2.0947,2.0444,1.942,1.8304,1.8304,1.7996,1.7582,1.7582,1.7582,1.7582,1.7582,1.6929,1.5636,1.3804,1.2512,1.1324,0.9372,0.894,0.894,0.894,0.894,0.894,0.894,1.0131,1.1105,1.1105,1.1105,1.1647,1.3156,1.2832,1.2394,1.1837,1.0971,0.9998,0.9027,0.7949,0.741,0.741,0.741,0.6956,0.5938,0.2123,-0.0,-0.0,-0.0,-0.2171,-0.6446,-0.5448,-0.6462,-0.9588,-0.9496,-0.951,0.3822,0.1407,-0.0805,-0.4338,-0.6581,-0.8019,-0.7992,-0.7982,-0.8029,-0.8289,-0.7084,-0.5976,-0.6064,-0.4516,-0.2486,-0.0323,0.3273,0.6423,0.0,0.8002,0.7773,0.8759,1.214,1.5018,1.666,1.7867,1.8614,1.8693,2.0598,2.1674,2.1543,2.2124,2.2677,2.3057,2.3464,2.3714,2.3714,2.4798,2.5052,2.4307,2.5808,2.6141,2.5378,2.5378,2.5562,2.5784,2.5239,2.5189,2.5518,2.5674,2.5742,2.5742,2.5742,2.5742,2.5635,2.5128,2.4097,2.2767,2.1448,2.0333,1.9531,1.9013,1.8297,1.7582,1.7582,1.7582,1.7582,1.7582,1.7252,1.6823,1.6823,1.5743,1.4341,1.2832,1.1755,1.0672,0.9265,0.894,0.894,0.894,0.894,0.894,0.894,0.9699,1.0457,1.0996,1.1105,1.186,1.3804,1.3588,1.348,1.4019,1.2729,1.1093,0.9113,0.895,0.8873,0.8873,0.8873,0.8876,0.8883,0.5284,0.2251,-0.0,-0.0,-0.3254,-0.9782,-0.7688,-0.7776,-0.9744,-0.9703,-0.9686]},{"header":{"parameterUnit":"m.s-1","parameterCategory":1,"la1":30.6,"la2":29.2853,"lo1":-89.7004,"lo2":-87.6739,"dy":0.0162,"dx":0.0183,"nx":112,"ny":82,"refTime":"2023-04-22T18:00:00:Z","depth":0,"parameterNumber":3,"parameterNumberName":"V-component_of_WINDS"},"data":[0.0,0.0,0.0,0.0,0.0,0.0,0.0,0.0,0.0,0.0,0.0,0.0,0.0,0.0,0.0,0.0,0.0,0.0,0.0,0.0,0.0,0.0,0.0,0.0,0.0,0.0,0.0,0.0,0.0,0.0,0.0,0.0,0.0,0.0,0.0,0.0,0.0,0.0,0.0,0.0,0.0,0.0,0.0,0.0,0.0,0.0,0.0,0.0,0.0,0.0,0.0,0.0,0.0,0.0,0.0,0.0,0.0,0.0,0.0,0.0,0.0,0.0,0.0,0.0,0.0,0.0,0.0,0.0,0.0,0.0,0.0,0.0,0.0,0.0,0.0,0.0,0.0,0.0,0.0,0.0,0.0,0.0,0.0,0.0,0.0,0.0,0.0,0.0,0.0,0.0,-2.9873,-2.9212,-2.8925,-2.9772,-3.2043,-3.2634,-3.2719,-3.2573,0.0,0.0,0.0,0.0,0.0,0.0,0.0,0.0,0.0,0.0,0.0,0.0,0.0,0.0,0.0,0.0,0.0,0.0,0.0,0.0,0.0,0.0,0.0,0.0,0.0,0.0,0.0,0.0,0.0,0.0,0.0,0.0,0.0,0.0,0.0,0.0,0.0,0.0,0.0,0.0,0.0,0.0,0.0,0.0,0.0,0.0,0.0,0.0,0.0,0.0,0.0,0.0,0.0,0.0,0.0,0.0,0.0,0.0,0.0,0.0,0.0,0.0,0.0,0.0,0.0,0.0,0.0,0.0,0.0,0.0,0.0,0.0,0.0,0.0,0.0,0.0,0.0,0.0,0.0,0.0,0.0,0.0,0.0,0.0,0.0,0.0,0.0,0.0,0.0,0.0,0.0,0.0,0.0,0.0,0.0,0.0,0.0,0.0,0.0,0.0,0.0,0.0,0.0,0.0,-2.6771,-2.7757,-2.6822,-2.7149,-2.9727,-3.1707,-3.2413,-3.1541,0.0,0.0,0.0,0.0,0.0,0.0,0.0,0.0,0.0,0.0,0.0,0.0,0.0,0.0,0.0,0.0,0.0,0.0,0.0,0.0,0.0,0.0,0.0,0.0,0.0,0.0,0.0,0.0,0.0,0.0,0.0,0.0,0.0,0.0,0.0,0.0,0.0,0.0,0.0,0.0,0.0,0.0,0.0,0.0,0.0,0.0,0.0,0.0,0.0,0.0,0.0,0.0,0.0,0.0,0.0,0.0,0.0,0.0,0.0,0.0,0.0,0.0,0.0,0.0,0.0,0.0,0.0,0.0,0.0,0.0,0.0,0.0,0.0,0.0,0.0,0.0,0.0,0.0,0.0,0.0,0.0,0.0,0.0,0.0,0.0,0.0,0.0,0.0,0.0,0.0,0.0,0.0,0.0,0.0,0.0,0.0,0.0,0.0,0.0,0.0,0.0,0.0,0.0,-2.4547,-2.4654,-2.5431,-2.4925,-2.5266,-2.717,-2.9557,-3.0516,-2.9315,-3.0348,0.0,0.0,0.0,0.0,0.0,0.0,0.0,0.0,0.0,0.0,0.0,0.0,0.0,0.0,0.0,0.0,0.0,0.0,0.0,0.0,0.0,0.0,0.0,0.0,0.0,0.0,0.0,0.0,0.0,0.0,0.0,0.0,0.0,0.0,0.0,0.0,0.0,0.0,0.0,0.0,0.0,0.0,0.0,0.0,0.0,0.0,0.0,0.0,0.0,0.0,0.0,0.0,0.0,0.0,0.0,0.0,0.0,0.0,0.0,0.0,0.0,0.0,0.0,0.0,0.0,0.0,0.0,0.0,0.0,0.0,0.0,0.0,0.0,0.0,0.0,0.0,0.0,0.0,0.0,0.0,0.0,0.0,0.0,0.0,0.0,0.0,0.0,0.0,0.0,0.0,0.0,0.0,0.0,0.0,0.0,0.0,0.0,0.0,0.0,0.0,0.0,0.0,-2.3332,-2.3088,-2.3176,-2.3276,-2.3835,-2.5324,-2.7672,-2.8484,-2.7158,-2.8287,0.0,0.0,0.0,0.0,0.0,0.0,0.0,0.0,0.0,0.0,0.0,0.0,0.0,0.0,0.0,0.0,0.0,0.0,0.0,0.0,0.0,0.0,0.0,0.0,0.0,0.0,0.0,0.0,0.0,0.0,0.0,0.0,0.0,0.0,0.0,0.0,0.0,0.0,0.0,0.0,0.0,0.0,0.0,0.0,0.0,0.0,0.0,0.0,0.0,0.0,0.0,0.0,0.0,0.0,0.0,0.0,0.0,0.0,0.0,0.0,0.0,0.0,0.0,0.0,0.0,0.0,0.0,0.0,0.0,0.0,0.0,0.0,0.0,0.0,0.0,0.0,0.0,0.0,0.0,0.0,0.0,0.0,0.0,0.0,0.0,0.0,0.0,0.0,0.0,0.0,0.0,0.0,0.0,0.0,0.0,0.0,0.0,0.0,0.0,0.0,0.0,0.0,-2.0271,-2.1845,-2.1853,-2.1853,-2.2815,-2.5324,-2.6853,-2.7158,-2.572,-2.6948,0.0,0.0,0.0,0.0,0.0,0.0,0.0,0.0,0.0,0.0,0.0,0.0,0.0,0.0,0.0,0.0,0.0,0.0,0.0,0.0,0.0,0.0,0.0,0.0,0.0,0.0,0.0,0.0,0.0,0.0,0.0,0.0,0.0,0.0,0.0,0.0,0.0,0.0,0.0,0.0,0.0,0.0,0.0,0.0,0.0,0.0,0.0,0.0,0.0,0.0,0.0,0.0,0.0,0.0,0.0,0.0,0.0,0.0,0.0,0.0,0.0,0.0,0.0,0.0,0.0,0.0,0.0,0.0,0.0,0.0,0.0,0.0,0.0,0.0,0.0,0.0,0.0,0.0,0.0,0.0,0.0,0.0,0.0,0.0,0.0,0.0,0.0,0.0,0.0,0.0,0.0,0.0,0.0,0.0,0.0,0.0,0.0,0.0,0.0,0.0,0.0,0.0,-1.9169,-2.0436,-2.0436,-2.1143,-2.2139,-2.3006,-2.5895,-2.6693,-2.4524,0.0,0.0,0.0,0.0,0.0,0.0,0.0,0.0,0.0,0.0,0.0,0.0,0.0,0.0,0.0,0.0,0.0,0.0,0.0,0.0,0.0,0.0,0.0,0.0,0.0,0.0,0.0,0.0,0.0,0.0,0.0,0.0,0.0,0.0,0.0,0.0,0.0,0.0,0.0,0.0,0.0,0.0,0.0,0.0,0.0,0.0,0.0,0.0,0.0,0.0,0.0,0.0,0.0,0.0,0.0,0.0,0.0,0.0,0.0,0.0,0.0,0.0,0.0,0.0,0.0,0.0,0.0,0.0,0.0,0.0,0.0,0.0,0.0,0.0,0.0,0.0,0.0,0.0,0.0,0.0,0.0,0.0,0.0,0.0,0.0,0.0,0.0,0.0,0.0,0.0,0.0,0.0,0.0,0.0,0.0,0.0,0.0,0.0,0.0,0.0,0.0,0.0,-1.6318,-1.8137,-1.942,-1.902,-2.0231,-2.1245,-2.1651,-2.4524,-2.5431,-2.3176,0.0,0.0,0.0,0.0,0.0,0.0,0.0,0.0,0.0,0.0,0.0,0.0,0.0,0.0,0.0,0.0,0.0,0.0,0.0,0.0,0.0,0.0,0.0,0.0,0.0,0.0,0.0,0.0,0.0,0.0,0.0,0.0,0.0,0.0,0.0,0.0,0.0,0.0,0.0,0.0,0.0,0.0,0.0,0.0,0.0,0.0,0.0,0.0,0.0,0.0,0.0,0.0,0.0,0.0,0.0,0.0,0.0,0.0,0.0,0.0,0.0,0.0,0.0,0.0,0.0,0.0,0.0,0.0,0.0,0.0,0.0,0.0,0.0,0.0,0.0,0.0,0.0,0.0,0.0,0.0,0.0,0.0,0.0,0.0,0.0,0.0,0.0,0.0,0.0,0.0,0.0,0.0,0.0,0.0,0.0,0.0,0.0,0.0,0.0,0.0,0.0,0.0,-1.3691,-1.6976,-1.9117,-1.7793,-1.8812,-2.0135,-2.155,-2.2976,-2.3176,0.0,0.0,0.0,0.0,0.0,0.0,0.0,0.0,0.0,0.0,0.0,0.0,0.0,0.0,0.0,0.0,0.0,0.0,0.0,0.0,0.0,0.0,0.0,0.0,0.0,0.0,0.0,0.0,0.0,0.0,0.0,0.0,0.0,0.0,0.0,0.0,0.0,0.0,0.0,0.0,0.0,0.0,0.0,0.0,0.0,0.0,0.0,0.0,0.0,0.0,0.0,0.0,0.0,0.0,0.0,0.0,0.0,0.0,0.0,0.0,0.0,0.0,0.0,0.0,0.0,0.0,0.0,0.0,0.0,0.0,0.0,0.0,0.0,0.0,0.0,0.0,0.0,0.0,0.0,0.0,0.0,0.0,0.0,0.0,0.0,0.0,0.0,0.0,0.0,0.0,0.0,0.0,0.0,0.0,0.0,0.0,0.0,0.0,0.0,0.0,0.0,0.0,0.0,-1.3583,-1.6976,-1.9117,-1.7793,-1.8812,-2.0135,-2.155,-2.2976,-2.3176,-2.1752,0.0,0.0,0.0,0.0,0.0,0.0,0.0,0.0,0.0,0.0,0.0,0.0,0.0,0.0,0.0,0.0,0.0,0.0,0.0,0.0,0.0,0.0,0.0,0.0,0.0,0.0,0.0,0.0,0.0,0.0,0.0,0.0,0.0,0.0,0.0,0.0,0.0,0.0,0.0,0.0,0.0,0.0,0.0,0.0,0.0,0.0,0.0,0.0,0.0,0.0,0.0,0.0,0.0,0.0,0.0,0.0,0.0,0.0,0.0,0.0,0.0,0.0,0.0,0.0,0.0,0.0,0.0,0.0,0.0,0.0,0.0,0.0,0.0,0.0,0.0,0.0,0.0,0.0,0.0,0.0,0.0,0.0,0.0,0.0,0.0,0.0,0.0,0.0,0.0,0.0,0.0,0.0,0.0,0.0,0.0,0.0,0.0,0.0,0.0,0.0,0.0,0.0,-1.3367,-1.6567,-1.8506,-1.7687,-1.8304,-1.9627,-2.155,-2.2603,-2.3002,-2.2782,0.0,0.0,0.0,0.0,0.0,0.0,0.0,0.0,0.0,0.0,0.0,0.0,0.0,0.0,0.0,0.0,0.0,0.0,0.0,0.0,0.0,0.0,0.0,0.0,0.0,0.0,0.0,0.0,0.0,0.0,0.0,0.0,0.0,0.0,0.0,0.0,0.0,0.0,0.0,0.0,0.0,0.0,0.0,0.0,0.0,0.0,0.0,0.0,0.0,0.0,0.0,0.0,0.0,0.0,0.0,0.0,0.0,0.0,0.0,0.0,0.0,0.0,0.0,0.0,0.0,0.0,0.0,0.0,0.0,0.0,0.0,0.0,0.0,0.0,0.0,0.0,0.0,0.0,0.0,0.0,0.0,0.0,0.0,0.0,0.0,0.0,0.0,0.0,0.0,0.0,0.0,0.0,0.0,0.0,0.0,0.0,0.0,0.0,0.0,0.0,0.0,0.0,-1.327,-1.5855,-1.7582,-1.7582,-1.7582,-1.8715,-2.1497,-2.2117,-2.2946,-2.4416,0.0,0.0,0.0,0.0,0.0,0.0,0.0,0.0,0.0,0.0,0.0,0.0,0.0,0.0,0.0,0.0,0.0,0.0,0.0,0.0,0.0,0.0,0.0,0.0,0.0,0.0,0.0,0.0,0.0,0.0,0.0,0.0,0.0,0.0,0.0,0.0,0.0,0.0,0.0,0.0,0.0,0.0,0.0,0.0,0.0,0.0,0.0,0.0,0.0,0.0,0.0,0.0,0.0,0.0,0.0,0.0,0.0,0.0,0.0,0.0,-4.8948,-4.9461,0.0,0.0,0.0,0.0,0.0,0.0,0.0,0.0,0.0,0.0,0.0,0.0,0.0,0.0,0.0,0.0,0.0,0.0,0.0,0.0,0.0,0.0,0.0,0.0,0.0,0.0,0.0,0.0,0.0,0.0,0.0,0.0,0.0,0.0,0.0,0.0,0.0,0.0,0.0,0.0,-1.329,-1.5855,-1.7582,-1.7582,-1.7582,-1.8807,-2.1865,-2.2275,-2.3436,-2.6256,-2.7863,0.0,0.0,0.0,0.0,0.0,0.0,0.0,0.0,0.0,0.0,0.0,0.0,0.0,0.0,0.0,0.0,0.0,0.0,0.0,0.0,0.0,0.0,0.0,0.0,0.0,0.0,0.0,0.0,0.0,0.0,0.0,0.0,0.0,0.0,0.0,0.0,0.0,0.0,0.0,0.0,0.0,0.0,0.0,0.0,0.0,0.0,0.0,0.0,0.0,0.0,0.0,0.0,0.0,0.0,0.0,0.0,0.0,0.0,0.0,-4.7475,-4.8337,0.0,0.0,0.0,0.0,0.0,0.0,0.0,0.0,0.0,0.0,0.0,0.0,0.0,0.0,0.0,0.0,0.0,0.0,0.0,0.0,0.0,0.0,0.0,0.0,0.0,0.0,0.0,0.0,0.0,0.0,0.0,0.0,0.0,0.0,0.0,0.0,0.0,0.0,0.0,0.0,-1.3603,-1.6241,-1.8016,-1.8016,-1.8016,-1.9234,-2.2241,-2.2739,-2.4167,-2.7197,-2.8314,0.0,0.0,0.0,0.0,0.0,0.0,0.0,0.0,0.0,0.0,0.0,0.0,0.0,0.0,0.0,0.0,0.0,0.0,0.0,0.0,0.0,0.0,0.0,0.0,0.0,0.0,0.0,0.0,0.0,0.0,0.0,0.0,0.0,0.0,0.0,0.0,0.0,0.0,0.0,0.0,0.0,0.0,0.0,0.0,0.0,0.0,0.0,0.0,0.0,0.0,0.0,0.0,0.0,-4.5089,-4.4397,-4.4054,-4.4366,-4.4883,-4.5532,-4.6168,-4.7306,-4.8576,-4.6276,0.0,0.0,0.0,0.0,0.0,0.0,0.0,0.0,0.0,0.0,0.0,0.0,0.0,0.0,0.0,0.0,0.0,0.0,0.0,0.0,0.0,0.0,-3.0554,-2.8835,-2.8519,-2.8105,-2.6797,0.0,0.0,0.0,0.0,0.0,0.0,0.0,0.0,0.0,0.0,0.0,-1.4277,-1.6776,-1.849,-1.849,-1.849,-1.969,-2.2626,-2.3228,-2.4727,-2.7953,-2.859,-2.937,0.0,0.0,0.0,0.0,0.0,0.0,0.0,0.0,0.0,0.0,0.0,0.0,0.0,0.0,0.0,0.0,0.0,0.0,0.0,0.0,0.0,0.0,0.0,0.0,0.0,0.0,0.0,0.0,0.0,0.0,0.0,0.0,-4.9978,-4.9724,0.0,0.0,0.0,0.0,0.0,0.0,0.0,0.0,0.0,0.0,0.0,0.0,0.0,-4.6252,-4.568,-4.5579,-4.5284,-4.4814,-4.4682,-4.4547,-4.4535,-4.5816,-4.6505,-4.6596,-4.7143,0.0,-4.7737,-4.7373,0.0,0.0,0.0,0.0,0.0,0.0,0.0,0.0,0.0,0.0,0.0,0.0,0.0,0.0,0.0,0.0,0.0,0.0,0.0,0.0,0.0,0.0,-3.2948,-3.0565,-2.9985,-2.9682,-2.8262,-2.5936,-2.4044,-2.3599,-2.2158,-2.0153,0.0,0.0,0.0,0.0,0.0,0.0,-1.5873,-1.7452,-1.849,-1.849,-1.849,-1.9775,-2.3086,-2.3369,-2.5237,-2.9683,-3.1068,-3.1803,-3.2028,-3.3231,0.0,0.0,0.0,0.0,0.0,0.0,0.0,0.0,0.0,0.0,0.0,0.0,0.0,0.0,0.0,0.0,0.0,0.0,0.0,0.0,0.0,0.0,0.0,0.0,0.0,0.0,0.0,0.0,0.0,-4.9589,-4.9246,-4.9021,-4.934,-4.9277,0.0,0.0,0.0,0.0,0.0,0.0,0.0,0.0,0.0,-4.5865,-4.5563,-4.5267,-4.4998,-4.4998,-4.4852,-4.4587,-4.4587,-4.4327,-4.3923,-4.4789,-4.5241,-4.5323,-4.5805,-4.6346,-4.6747,-4.626,-4.5577,-4.4737,0.0,0.0,0.0,0.0,-4.2981,-4.2629,-4.3155,-4.2981,-4.2371,-4.1085,0.0,0.0,0.0,0.0,0.0,0.0,0.0,-3.124,-3.2118,-3.1567,-3.0739,-3.04,-2.9713,-2.9006,-2.8398,-2.7276,-2.6054,-2.527,-2.3047,-2.0735,-1.8481,-1.6832,0.0,0.0,0.0,-1.6048,-1.6639,-1.804,-1.8985,-1.8985,-1.8985,-2.0245,-2.3353,-2.3591,-2.5186,-2.8976,-3.1122,-3.2331,-3.2331,-3.3662,-3.408,0.0,0.0,0.0,0.0,0.0,0.0,0.0,0.0,0.0,0.0,0.0,0.0,0.0,0.0,0.0,0.0,0.0,0.0,0.0,0.0,0.0,0.0,0.0,0.0,0.0,0.0,0.0,0.0,-4.8844,-4.8564,-4.8071,-4.8574,-4.8503,0.0,0.0,0.0,0.0,0.0,0.0,-4.6143,-4.5597,-4.5267,-4.5267,-4.4814,-4.4587,-4.4587,-4.4587,-4.4587,-4.4587,-4.4384,-4.3948,-4.3295,-4.3783,-4.4026,-4.4122,-4.4834,-4.5431,-4.5762,-4.5079,-4.4812,-4.4737,-4.3708,-4.3155,-4.29,-4.317,-4.3155,-4.29,-4.317,-4.3329,-4.2996,-4.1014,-3.9683,-3.8402,-3.5294,0.0,0.0,0.0,0.0,-3.012,-3.1429,-3.0016,-2.8601,-2.9503,-2.9006,-2.8291,-2.8291,-2.795,-2.7501,-2.6825,-2.4404,-2.2007,-2.0102,-1.8481,0.0,-1.5419,-1.6256,-1.7202,-1.7566,-1.8648,-1.9366,-1.9366,-1.97,-2.1038,-2.3599,-2.4156,-2.5498,-2.8174,-3.0824,-3.2331,-3.2331,-3.3958,-3.4884,-3.4884,0.0,0.0,0.0,0.0,0.0,0.0,0.0,0.0,0.0,0.0,0.0,0.0,0.0,0.0,0.0,0.0,0.0,0.0,0.0,0.0,0.0,0.0,0.0,0.0,0.0,0.0,0.0,0.0,0.0,-4.6674,-4.7114,0.0,0.0,0.0,0.0,-4.6442,-4.5865,-4.5563,-4.5563,-4.4944,-4.4626,-4.4626,-4.4626,-4.4587,-4.4587,-4.4587,-4.4587,-4.457,-4.3756,-4.3366,-4.3295,-4.3864,-4.4109,-4.4189,-4.5511,-4.5634,-4.4887,-4.4812,-4.4812,-4.4737,-4.3708,-4.2644,-4.185,-4.29,-4.2629,-4.185,-4.29,-4.3329,-4.3076,-4.1932,-3.9122,-3.6013,-3.4824,-3.2555,0.0,0.0,-3.0421,-2.8698,-3.0016,-2.9408,-2.8291,-2.8398,-2.8398,-2.8291,-2.8291,-2.7168,-2.6599,-2.795,-2.6933,-2.4879,-2.1879,0.0,-1.8532,-1.7073,-1.6968,-1.7566,-1.9127,-1.9366,-1.9366,-1.9366,-2.0702,-2.2145,-2.371,-2.5151,-2.6608,-2.8174,-3.0824,-3.2331,-3.2331,-3.4848,-3.6263,-3.6263,-3.625,0.0,0.0,0.0,0.0,0.0,0.0,0.0,0.0,0.0,0.0,0.0,0.0,0.0,0.0,0.0,0.0,0.0,0.0,0.0,0.0,0.0,0.0,0.0,0.0,0.0,0.0,0.0,0.0,-4.5965,-4.6383,0.0,-4.532,-4.5597,-4.5648,-4.5267,-4.5052,-4.4906,-4.4906,-4.472,-4.4587,-4.4587,-4.4587,-4.4327,-4.3756,-4.3756,-4.3486,-4.2892,-4.2583,-4.2458,-4.249,-4.2541,-4.2808,-4.3224,-4.358,-4.3808,-4.3849,-4.3849,-4.3849,-4.3771,-4.3394,-4.3076,-4.2725,-4.3155,-4.3076,-4.2725,-4.3155,-4.3329,-4.2996,-4.1099,-3.8608,-3.6175,-3.5846,-3.4362,-3.3066,-3.3563,-3.1735,-2.9713,-3.0224,-2.9313,-2.8291,-2.8291,-2.8291,-2.8291,-2.8291,-2.7843,-2.7618,-2.8184,-2.6273,-2.425,-2.3095,-2.1752,-2.0193,-1.8752,-1.8525,-1.8765,-1.9366,-2.0263,-2.0809,-2.0809,-2.2153,-2.3599,-2.5151,-2.5818,-2.7131,-2.9398,-3.1327,-3.2744,-3.3563,-3.5451,-3.6358,-3.6358,-3.7861,-3.7834,0.0,0.0,0.0,0.0,0.0,0.0,0.0,0.0,0.0,0.0,0.0,0.0,0.0,0.0,0.0,0.0,0.0,0.0,0.0,0.0,0.0,0.0,0.0,0.0,0.0,-4.7281,-4.715,-4.5699,-4.6014,-4.5915,-4.472,-4.4944,-4.5052,-4.4626,-4.4587,-4.4587,-4.4587,-4.4587,-4.4457,-4.4196,-4.4138,-4.3739,-4.2847,-4.2847,-4.2583,-4.1997,-4.1723,-4.1543,-4.1559,-4.1349,-4.1526,-4.1928,-4.2258,-4.2611,-4.3015,-4.324,-4.3329,-4.3329,-4.3329,-4.3329,-4.3329,-4.3329,-4.3329,-4.3329,-4.3329,-4.282,-4.1879,-4.0418,-3.8302,-3.6358,-3.6358,-3.5463,-3.4288,-3.3871,-3.2039,-3.0214,-2.9713,-2.9006,-2.8291,-2.8291,-2.8291,-2.8291,-2.8291,-2.8291,-2.8291,-2.8291,-2.5827,-2.3822,-2.3822,-2.2145,-2.0479,-1.9597,-1.9815,-2.0148,-2.0148,-2.1479,-2.2363,-2.2363,-2.3702,-2.5041,-2.6036,-2.6599,-2.7776,-3.011,-3.1531,-3.312,-3.4884,-3.5928,-3.6534,-3.6977,-3.893,-3.9094,-3.7599,0.0,0.0,0.0,0.0,0.0,0.0,0.0,0.0,0.0,0.0,0.0,0.0,0.0,0.0,0.0,0.0,0.0,0.0,0.0,0.0,0.0,0.0,0.0,-4.7428,-4.7897,-4.7554,-4.5732,-4.6014,-4.5865,-4.472,-4.4587,-4.4587,-4.4587,-4.4587,-4.4587,-4.4587,-4.4587,-4.4196,-4.3306,-4.3306,-4.2847,-4.1997,-4.1933,-4.1933,-4.1933,-4.108,-4.069,-4.0638,-4.0474,-4.0382,-4.0472,-4.1743,-4.2327,-4.2417,-4.3045,-4.3314,-4.3329,-4.3329,-4.3329,-4.3329,-4.3329,-4.3329,-4.3329,-4.3329,-4.1864,-3.9986,-3.9899,-3.8315,-3.6452,-3.6452,-3.5463,-3.408,-3.2744,-3.1327,-3.0016,-2.8698,-2.8291,-2.8291,-2.8291,-2.8291,-2.8291,-2.8291,-2.8291,-2.8291,-2.8291,-2.5945,-2.3822,-2.3822,-2.1373,-1.9482,-1.9482,-2.0694,0.0,-2.1692,-2.2927,-2.3822,-2.3822,-2.5261,-2.6155,-2.6145,-2.7492,-2.9006,-3.0317,-3.1724,-3.3557,-3.6094,-3.6351,-3.707,-3.8198,-3.936,-3.9899,-3.9986,0.0,0.0,0.0,0.0,0.0,0.0,0.0,0.0,0.0,0.0,0.0,0.0,0.0,0.0,0.0,0.0,0.0,0.0,0.0,0.0,0.0,-4.7288,-4.7428,-4.6756,-4.6801,-4.6571,-4.5597,-4.5267,-4.4944,-4.4626,-4.4587,-4.4587,-4.4587,-4.4587,-4.4587,-4.4587,-4.4587,-4.4196,-4.3306,-4.3306,-4.2583,-4.108,-4.108,-4.0758,-4.013,-3.9864,-3.9737,-3.9737,-3.9733,-3.9948,-4.0427,-4.0786,-4.1474,-4.2372,-4.2551,-4.291,-4.3329,-4.3329,-4.3329,-4.3329,-4.3329,-4.3329,-4.3329,-4.3329,-4.2371,-4.1,-4.0159,-3.8827,-3.7507,-3.6628,-3.5463,-3.4288,-3.397,-3.214,-3.0214,-2.9817,-2.9006,-2.8291,-2.8291,-2.8291,-2.8291,-2.8291,-2.8291,-2.8291,-2.8291,-2.6726,-2.5489,-2.5489,-2.2927,-2.1373,-2.2379,-2.204,-2.2032,-2.3039,-2.4488,-2.5041,-2.3933,-2.6164,-2.7688,-2.7573,-2.8916,-3.0721,-3.3155,-3.4437,-3.5837,-3.7508,-3.8456,-3.9434,-4.0632,-4.0145,-4.0332,0.0,0.0,0.0,0.0,0.0,0.0,0.0,0.0,0.0,0.0,0.0,0.0,0.0,0.0,0.0,0.0,0.0,0.0,0.0,0.0,0.0,0.0,-4.7512,-4.7656,-4.7263,-4.6756,-4.6192,-4.5545,-4.5178,-4.4852,-4.4626,-4.4587,-4.4587,-4.4587,-4.4587,-4.4587,-4.4587,-4.4587,-4.4196,-4.3306,-4.2986,-4.2062,-4.0675,-4.0378,-3.9935,-3.9424,-3.9424,-3.9424,-3.9424,-3.9424,-3.9634,-4.0008,-4.0277,-4.0831,-4.1564,-4.1833,-4.2177,-4.2566,0.0,0.0,0.0,0.0,-4.3329,-4.3329,-4.3329,-4.2548,-4.1504,-4.0831,-3.9434,-3.803,-3.7322,-3.6213,-3.5078,-3.4581,-3.3266,-3.1836,-3.1327,-3.011,-2.9303,-2.9807,-2.9102,-2.8455,-2.8765,-2.843,-2.7978,-2.7793,-2.7094,0.0,-2.643,-2.4149,-2.2601,-2.3378,-2.3247,-2.3258,-2.413,-2.5558,-2.6305,-2.5922,-2.7717,-2.9103,-2.9497,-3.0561,0.0,0.0,0.0,-3.6957,-3.8827,-3.9972,0.0,0.0,0.0,-4.1406,-4.2956,-4.0998,0.0,0.0,-3.9948,-3.919,0.0,0.0,0.0,0.0,0.0,0.0,0.0,0.0,0.0,0.0,0.0,0.0,0.0,0.0,0.0,0.0,-4.8035,-4.8035,-4.7879,-4.6892,-4.6063,-4.5648,-4.5459,-4.5178,-4.4682,-4.4587,-4.4587,-4.4587,-4.4587,-4.4587,-4.4587,-4.4587,0.0,0.0,0.0,-4.1674,-4.069,-3.992,-3.9481,-3.9424,-3.9424,-3.9424,-3.9424,-3.9424,-3.9424,-3.9454,-4.0038,-4.0337,-4.0442,-4.1025,-4.1309,-4.1504,-4.2746,-4.3225,-4.324,-4.3299,-4.3329,-4.3329,-4.3329,0.0,0.0,-4.167,-4.0204,-3.8456,-3.8379,-3.7547,-3.6407,-3.5233,-3.4619,-3.4074,-3.2849,-3.1458,-3.0664,-3.1873,-3.0263,-2.8745,-2.9656,-2.8881,-2.7875,-2.7284,-2.7206,-2.7206,-2.7012,-2.4959,-2.3453,-2.3561,-2.4351,-2.4864,-2.5081,-2.6349,-2.7582,-2.8425,-2.93,0.0,-3.1372,-3.2094,-3.3511,-3.6188,-3.6548,-3.7768,-4.0145,-4.1253,-4.1767,-4.1767,-4.1918,-4.2877,-4.4812,-4.3927,-4.3927,-4.4721,-4.0365,-3.9591,0.0,0.0,0.0,0.0,0.0,0.0,0.0,0.0,0.0,0.0,0.0,0.0,0.0,0.0,0.0,-4.6305,-4.643,-4.643,-4.5459,-4.5089,-4.5284,-4.6094,-4.5372,-4.472,-4.4626,-4.4587,-4.4587,-4.4587,-4.4587,-4.4587,-4.4587,-4.4587,-4.4196,-4.3306,-4.3108,-4.2316,-4.069,-4.0554,-4.0115,-3.9424,-3.9424,0.0,-3.9424,-3.9424,-3.9424,-3.9424,-3.9559,-3.9903,-4.0412,-4.0531,-4.0905,-4.1459,-4.2252,-4.2551,-4.2611,-4.3135,-4.3329,-4.3329,-4.3329,-4.3155,-4.2805,-4.1932,-4.1322,-4.0732,-3.9798,-3.9019,0.0,-3.8061,-3.625,-3.4267,-3.3968,-3.2322,-3.0667,-3.096,-3.0569,-3.0253,-3.0449,-3.034,-2.9828,-2.8666,-2.8445,-2.8166,-2.7206,-2.558,-2.4877,-2.6069,-2.5457,-2.5185,-2.6368,-2.7663,-2.8115,-2.712,-2.913,-3.0732,-3.127,-3.2494,-3.452,-3.7482,-3.9527,-4.121,-4.2563,-4.282,-4.2981,-4.2981,-4.3804,-4.4403,-4.4812,-4.4586,-4.4586,-4.4737,-4.3036,-4.2504,0.0,0.0,0.0,0.0,0.0,0.0,0.0,0.0,0.0,0.0,0.0,-4.7752,-4.7824,0.0,-4.7512,-4.6589,-4.643,-4.6192,-4.5597,-4.5232,-4.5178,-4.5459,-4.4944,-4.4587,-4.4587,-4.4587,-4.4587,-4.4587,-4.4587,-4.4587,-4.4587,-4.4587,-4.4384,-4.3948,-4.3502,-4.2909,-4.1997,-4.1543,-4.1147,-4.0706,-4.0706,-4.0447,-4.006,-4.006,-3.9793,-3.9424,-3.9424,-3.9604,-3.9903,-3.9903,-4.0113,-4.0472,-4.113,-4.1579,-4.1908,-4.2237,-4.2357,-4.2357,-4.2357,-4.2357,-4.2264,-4.1671,-4.1084,-4.0474,-3.9912,-3.9089,-3.842,-3.842,-3.687,-3.5339,-3.5339,-3.354,-3.1829,-3.25,-3.1639,-3.0807,-3.1318,-3.0884,-3.0141,-2.9232,-2.9094,-2.8913,-2.825,-2.7636,-2.7021,-2.6751,-2.6455,-2.6487,-2.7218,-2.8347,-2.9061,-2.888,-3.0397,-3.1716,-3.2545,-3.4819,-3.6933,-3.8431,-4.0983,-4.2725,-4.325,-4.3329,-4.3329,-4.3329,-4.4297,-4.5005,-4.5488,-4.502,-4.502,-4.5504,-4.3989,-4.3329,0.0,0.0,0.0,0.0,0.0,0.0,0.0,-4.8321,-4.8221,-4.8292,-4.8306,-4.8306,-4.8306,-4.7797,-4.7342,-4.7237,-4.6664,-4.6192,-4.6063,-4.5648,-4.5125,-4.4682,-4.4587,-4.4587,-4.4587,-4.4587,-4.4587,-4.4587,-4.4587,-4.4587,-4.4587,-4.4587,-4.4587,-4.4587,-4.3948,-4.3502,-4.3306,-4.2583,-4.2189,-4.1997,-4.1997,-4.1609,-4.0946,-4.0946,-4.05,-3.9666,-3.9481,-3.9481,-3.961,-3.9481,-3.9424,-3.9469,-4.0008,-4.0531,-4.1025,-4.128,-4.1384,-4.1384,-4.1384,-4.1384,-4.1384,-4.1384,-4.0713,-3.9967,-3.9967,-3.9216,-3.8375,-3.8375,-3.7538,-3.6632,-3.6632,-3.503,-3.3633,-3.4768,-3.335,-3.1993,-3.2711,-3.204,-3.1073,-3.0485,-3.0415,-3.0235,-2.9818,-2.9727,-2.9046,-2.7232,-2.7544,-2.7955,-2.7955,-2.9039,-3.0135,-3.1134,-3.2051,-3.3168,-3.4446,-3.7317,-3.9159,-3.9284,-4.1726,-4.321,-4.3329,-4.3329,-4.3409,-4.3551,-4.4571,-4.5488,-4.6454,-4.5706,-4.5634,-4.6173,-4.4403,-4.3472,-4.9081,-4.9255,-4.9623,-4.9452,-4.9377,-4.9344,0.0,-4.88,-4.8273,-4.8288,-4.8306,-4.8306,-4.8306,-4.7797,-4.7194,-4.6618,-4.6014,-4.5407,-4.4852,-4.472,-4.4682,-4.4626,-4.4587,-4.4587,-4.4587,-4.4587,-4.4587,-4.4587,-4.4587,-4.4587,-4.4587,-4.4587,-4.4587,-4.4587,-4.4514,-4.4064,-4.3306,-4.3169,-4.2785,-4.1997,-4.1997,-4.1933,-4.1869,-4.1869,-4.1412,-4.05,-3.9737,-3.9864,-4.05,-3.9737,-3.9424,-3.9424,-3.9499,-3.9574,-3.9783,-4.095,-4.1384,-4.1384,-4.1384,-4.1384,-4.1384,-4.1384,-4.1293,-4.1217,-4.1217,-4.0725,-4.0099,-4.0099,-3.8949,-3.7648,-3.7648,-3.6721,-3.5817,-3.6006,-3.5817,-3.5615,-3.5736,-3.5628,-3.5157,-3.4084,-3.3796,-3.3212,-3.1185,-3.0844,-3.0458,-2.9279,-2.9165,-2.9223,-2.9223,-3.0214,-3.1033,-3.1223,-3.3177,-3.5024,-3.662,-3.8426,-3.9805,-4.0363,-4.1745,-4.2731,-4.3314,-4.3329,-4.3693,-4.4586,-4.5561,-4.6539,-4.744,-4.7306,-4.6884,-4.6173,-4.5153,-4.4143,-5.0304,-5.0354,-5.0506,-5.0277,-5.0212,-5.0068,-4.9608,-4.9234,-4.8881,-4.8402,-4.8306,-4.8172,-4.7838,-4.7237,-4.6618,-4.5965,-4.5372,-4.4906,-4.4626,-4.4587,-4.4587,-4.4587,-4.4587,-4.4587,-4.4587,-4.4587,-4.4587,-4.4587,-4.4587,-4.4587,-4.4587,-4.4587,-4.4587,-4.4587,-4.4587,-4.4457,-4.4064,-4.4064,-4.3873,-4.3545,-4.3545,-4.3229,-4.2785,-4.2785,-4.2252,-4.1412,-4.1095,-4.1095,-4.1412,-4.1095,-4.0894,-4.0894,-4.0894,-4.0894,-4.0851,-4.0429,-4.0247,-4.0247,-4.0247,-4.0247,-4.0247,-4.0247,-4.0247,-4.0247,-4.0247,-4.0053,-3.9828,-3.9828,-3.884,-3.7829,-3.7829,-3.7021,-3.6198,-3.6198,-3.6198,-3.6198,-3.6198,-3.6198,-3.6026,-3.5559,-3.5465,-3.513,-3.4192,-3.4027,-3.3861,-3.3398,-3.2216,-3.1608,-3.2241,-3.3398,-3.4131,-3.4131,-3.4981,-3.5843,-3.6491,-3.8139,-3.9269,-3.9542,-4.1818,-4.3318,-4.3594,-4.4474,-4.5196,-4.5634,-4.6539,-4.7239,-4.7589,-4.7589,-4.7104,-4.6173,-4.5227,-4.4297,-5.1171,-5.1108,-5.1042,-5.0797,-5.0643,-5.038,-4.98,-4.9504,-4.9171,-4.8568,-4.8364,-4.8172,-4.7715,-4.6937,-4.624,-4.5833,-4.5089,-4.4587,-4.4587,-4.4587,-4.4587,-4.4587,-4.4587,-4.4587,-4.4587,-4.4587,-4.4587,-4.4587,-4.4587,-4.4587,-4.4587,-4.4587,-4.4587,-4.4587,-4.4587,-4.4587,-4.4587,-4.4587,-4.4587,-4.4587,-4.4587,-4.4253,-4.3621,-4.3426,-4.3108,-4.2707,-4.2189,-4.2125,-4.2332,-4.2125,-4.1997,-4.1997,-4.1997,-4.1997,-4.1869,-4.0585,-4.013,-4.013,-4.013,-3.9935,-3.9737,-3.9737,-3.961,-3.9424,-3.9424,-3.9424,-3.9424,-3.9424,-3.8855,-3.8234,-3.8234,-3.7648,-3.7084,-3.7084,-3.7084,-3.7084,-3.7084,-3.7084,-3.7084,-3.7084,-3.7084,-3.7007,-3.6682,-3.6604,-3.6604,-3.6604,-3.5438,-3.4631,-3.4834,-3.5653,-3.6277,-3.6604,-3.6604,-3.6774,-3.7084,-3.8232,-3.9066,-3.9241,-4.1771,-4.3355,-4.38,-4.5136,-4.6121,-4.6592,-4.7239,-4.7737,-4.8015,-4.8015,-4.7523,-4.6592,-4.5921,-4.5064,-5.1235,-5.1145,-5.1068,-5.0933,-5.0517,-5.0092,-5.0092,-4.9475,-4.893,-4.8897,-4.8568,-4.8306,-4.8267,-4.7263,-4.6365,-4.6383,-4.5372,-4.4587,-4.4587,-4.4587,-4.4587,-4.4587,-4.4587,-4.4587,-4.4587,-4.4587,-4.4587,-4.4587,-4.4587,-4.4587,-4.4587,-4.4587,-4.4587,-4.4587,-4.4587,-4.4587,-4.4587,-4.4587,-4.4587,-4.4587,-4.4587,-4.4587,-4.4514,-4.3697,-4.3756,-4.444,-4.2707,-4.2458,-4.3185,-4.2332,-4.1997,-4.1997,-4.1997,-4.1997,-4.1997,-4.1933,-4.1933,-4.1933,-4.1933,-4.1346,-4.069,-4.069,-4.0115,-3.9424,-3.9424,-3.9424,-3.9424,-3.9424,-3.9352,-3.9337,-3.9337,-3.9337,-3.9337,-3.9337,-3.9337,-3.9337,-3.9337,-3.9337,-3.9337,-3.9337,-3.9337,-3.8943,-3.7919,-3.7753,-3.7753,-3.7753,-3.8444,-3.8208,-3.6406,-3.6198,-3.6604,-3.7663,-3.7753,-3.8144,-3.9177,-3.9352,-3.9636,-4.0278,-4.124,-4.2395,-4.3769,-4.4677,-4.5914,-4.7506,-4.7589,-4.808,-4.894,-4.894,-4.8513,-4.7589,-4.7523,-4.702,-5.1169,-5.1125,-5.1049,-5.0837,-5.0623,-5.0421,-5.0159,-4.9673,-4.9234,-4.8963,-4.8568,-4.8172,-4.7797,-4.6999,-4.6288,-4.5865,-4.5459,-4.5035,-4.4682,-4.4944,-4.5052,-4.4626,-4.4587,-4.4587,-4.4587,-4.4587,-4.4587,-4.4587,-4.4587,-4.4587,-4.4587,-4.4587,-4.4587,-4.4587,-4.4587,-4.4587,-4.4587,-4.4587,-4.4587,-4.4587,-4.4587,-4.4587,-4.457,-4.4327,-4.4327,-4.457,-4.3989,-4.3873,-4.4138,-4.3873,-4.3739,-4.3739,-4.3739,-4.3739,-4.3739,-4.3739,-4.3739,-4.3545,-4.2379,-4.1804,-4.1543,-4.1543,-4.1346,-4.1095,-4.1095,-4.1095,-4.1095,-4.1095,-4.1095,-4.1095,-4.1095,-4.0706,-4.0447,-4.0961,-4.0706,-4.0447,-4.1028,-4.1095,-4.1095,-4.1095,-4.1095,-4.1013,-4.0681,-4.0613,-4.0613,-4.0613,-3.9829,-3.9275,-3.92,-3.8679,-3.8457,-3.8855,-3.887,-3.9017,-3.9337,-3.9935,-4.0347,-4.0561,-4.2386,-4.3719,-4.4188,-4.5944,-4.7212,-4.7792,-4.8262,-4.8656,-4.9001,-4.9001,-4.8513,-4.7589,-4.7589,-4.7104,-5.1156,-5.1097,-5.1049,-5.076,-5.0702,-5.0624,-5.0358,-4.9898,-4.9416,-4.9171,-4.8692,-4.8172,-4.7797,-4.7194,-4.6618,-4.6257,-4.5982,-4.5699,-4.5267,-4.5597,-4.5699,-4.5267,-4.5232,-4.5232,-4.5232,-4.5232,-4.5125,-4.4961,-4.4906,-4.4998,-4.5232,-4.5232,-4.5232,-4.5232,-4.5232,-4.5232,-4.5232,-4.5232,-4.5232,-4.5232,-4.5052,-4.5035,-4.5232,-4.4998,-4.4906,-4.4906,-4.4906,-4.4906,-4.4906,-4.4906,-4.5052,-4.5232,-4.5232,-4.5232,-4.5232,-4.4998,-4.4906,-4.4725,-4.3376,-4.2707,-4.2458,-4.2458,-4.2252,-4.1997,-4.1997,-4.1997,-4.1997,-4.1997,-4.1997,-4.1997,-4.1997,-4.1609,-4.128,-4.1869,-4.1593,-4.1346,-4.1869,-4.1997,-4.1997,-4.1997,-4.1997,-4.1997,-4.1997,-4.1997,-4.2125,-4.2395,-4.1229,-4.0516,-4.108,-4.0706,-4.0324,-4.0324,-4.0324,-4.0324,-4.0324,-4.0826,-4.1147,-4.1147,-4.2941,-4.4097,-4.4405,-4.615,-4.7378,-4.7902,-4.8376,-4.8748,-4.9001,-4.9001,-4.8719,-4.808,-4.808,-4.7803,-5.1156,-5.1097,-5.1049,-5.076,-5.0702,-5.0702,-5.0702,-5.0092,-4.9532,-4.9532,-4.8878,-4.8309,-4.8271,-4.7765,-4.7355,-4.7331,-4.6829,-4.643,-4.6413,-4.643,-4.643,-4.6413,-4.6383,-4.6383,-4.6383,-4.6383,-4.6192,-4.5648,-4.5563,-4.5783,-4.6383,-4.6383,-4.6383,-4.6383,-4.6383,-4.6383,-4.6383,-4.6383,-4.6383,-4.6383,-4.5833,-4.5833,-4.6383,-4.5833,-4.5563,-4.5563,-4.5563,-4.5563,-4.5563,-4.5563,-4.5865,-4.6383,-4.6383,-4.6383,-4.6336,-4.5732,-4.5563,-4.5459,-4.4906,-4.4105,-4.3366,-4.3366,-4.2785,-4.2125,-4.2125,-4.2125,-4.2125,-4.2125,-4.2125,-4.2125,-4.2125,-4.2125,-4.2062,-4.2125,-4.2125,-4.2062,-4.2125,-4.2125,-4.2125,-4.2125,-4.2125,-4.2125,-4.2125,-4.2125,-4.2379,-4.3246,-4.2645,-4.2125,-4.2062,-4.2062,-4.1997,-4.1997,-4.1997,-4.1997,-4.1997,-4.2062,-4.2062,-4.2062,-4.2909,-4.3663,-4.4401,-4.5211,-4.6363,-4.7784,-4.7885,-4.8257,-4.8951,-4.8984,-4.9001,-4.9001,-4.9001,-4.9001,-5.1156,-5.1097,-5.1049,-5.076,-5.0702,-5.0702,-5.0702,-5.0313,-4.9949,-4.9949,-4.9023,-4.814,-4.7902,-4.7316,-4.6822,-4.6543,-4.6859,-4.6955,-4.6478,-4.6819,-4.6955,-4.6478,-4.6383,-4.6383,-4.6383,-4.6383,-4.6524,-4.6864,-4.643,-4.624,-4.6383,-4.6383,-4.6383,-4.6383,-4.6383,-4.6383,-4.6383,-4.6383,-4.6383,-4.6383,-4.624,-4.624,-4.6365,-4.624,-4.6143,-4.6143,-4.6143,-4.6143,-4.6143,-4.6143,-4.624,-4.6383,-4.6383,-4.6383,-4.6383,-4.624,-4.6143,-4.6143,-4.6014,-4.518,-4.4253,-4.4253,-4.4121,-4.3931,-4.3931,-4.3931,-4.3931,-4.3931,-4.3931,-4.3931,-4.3931,-4.3486,-4.3108,-4.3798,-4.3426,-4.3169,-4.3798,-4.3931,-4.3931,-4.3931,-4.3931,-4.3931,-4.3931,-4.3931,-4.3989,-4.4253,-4.4064,-4.368,-4.3047,-4.2379,-4.1997,-4.1997,-4.1997,-4.1997,-4.1997,-4.2599,-4.2986,-4.2986,-4.3814,-4.4337,-4.4522,-4.5284,-4.5889,-4.6261,-4.7361,-4.8003,-4.8189,-4.8731,-4.9001,-4.9001,-4.9001,-4.9001,-5.1156,-5.1097,-5.1049,-5.076,-5.0702,-5.0702,-5.0702,-5.0093,-4.9539,-4.9539,-4.8541,-4.7569,-4.721,-4.7135,-4.7022,-4.6637,-4.7288,-4.7656,-4.7281,-4.7554,-4.7656,-4.7281,-4.7219,-4.7219,-4.7219,-4.7219,-4.7367,-4.7756,-4.7194,-4.6937,-4.7219,-4.7219,-4.7219,-4.7219,-4.7219,-4.7219,-4.7219,-4.7219,-4.7219,-4.7219,-4.6955,-4.6999,-4.7219,-4.6955,-4.6864,-4.6864,-4.6864,-4.6864,-4.6864,-4.6864,-4.6981,-4.7219,-4.7219,-4.7219,-4.7219,-4.6955,-4.6864,-4.6819,-4.6524,-4.5965,-4.5407,-4.5407,-4.5407,-4.5407,-4.5407,-4.5178,-4.4998,-4.4998,-4.4814,-4.4587,-4.4587,-4.4253,-4.4006,-4.4514,-4.4196,-4.4006,-4.4497,-4.4587,-4.4682,-4.4961,-4.4998,-4.5089,-4.532,-4.5178,-4.5089,-4.5372,-4.5407,-4.5144,-4.4345,-4.3614,-4.3152,-4.3152,-4.3152,-4.3152,-4.3152,-4.3848,-4.4249,-4.4249,-4.4966,-4.5267,-4.4998,-4.5408,-4.5653,-4.5703,-4.6515,-4.7107,-4.7428,-4.8173,-4.8528,-4.8545,-4.8849,-4.9001,-5.1167,-5.1106,-5.101,-5.0664,-5.0529,-5.0491,-5.0375,-4.9501,-4.8709,-4.8709,-4.7783,-4.6881,-4.6457,-4.7012,-4.7411,-4.704,-4.7684,-4.8254,-4.8288,-4.8306,-4.8306,-4.8306,-4.8306,-4.8306,-4.8306,-4.8306,-4.8306,-4.8306,-4.7816,-4.7756,-4.8267,-4.8306,-4.8306,-4.8306,-4.8306,-4.8306,-4.8306,-4.8306,-4.8306,-4.8306,-4.7756,-4.7797,-4.8267,-4.7756,-4.753,-4.753,-4.753,-4.753,-4.753,-4.753,-4.7838,-4.8306,-4.8306,-4.8306,-4.8229,-4.7715,-4.753,-4.7428,-4.6847,-4.6664,-4.6618,-4.646,-4.6383,-4.6383,-4.6383,-4.6046,-4.5648,-4.5648,-4.5232,-4.4869,-4.4869,-4.4869,-4.4869,-4.4869,-4.4869,-4.4869,-4.4869,-4.4869,-4.4998,-4.5511,-4.5648,-4.5783,-4.6336,-4.5965,-4.5783,-4.6336,-4.6383,-4.6192,-4.5681,-4.5089,-4.4665,-4.4626,-4.4587,-4.4587,-4.4587,-4.5125,-4.5511,-4.5511,-4.6063,-4.6143,-4.5648,-4.5648,-4.563,-4.5688,-4.579,-4.6106,-4.665,-4.7394,-4.7817,-4.7936,-4.8578,-4.8917,-5.1226,-5.1152,-5.0895,-5.001,-4.9721,-4.9433,-4.8721,-4.8375,-4.8222,-4.8222,-4.753,-4.6776,-4.6397,-4.6434,-4.6528,-4.6517,-4.724,-4.7935,-4.8234,-4.8306,-4.8306,-4.8306,-4.8306,-4.8306,-4.8306,-4.8306,-4.8306,-4.8306,-4.821,-4.8172,-4.8306,-4.8306,-4.8306,-4.8306,-4.8306,-4.8306,-4.8306,-4.8306,-4.8306,-4.8306,-4.8172,-4.821,-4.8306,-4.8172,-4.8132,-4.8132,-4.8132,-4.8132,-4.8132,-4.8132,-4.821,-4.8306,-4.8306,-4.8306,-4.8306,-4.8172,-4.8132,-4.8132,-4.8017,-4.7977,-4.7797,-4.6756,-4.6383,-4.6383,-4.6383,-4.6336,-4.624,-4.624,-4.6143,-4.6112,-4.6112,-4.6112,-4.6112,-4.6112,-4.6112,-4.6112,-4.6112,-4.6112,-4.6112,-4.624,-4.624,-4.6288,-4.6383,-4.6336,-4.6288,-4.6383,-4.6383,-4.6383,-4.624,-4.5732,-4.5125,-4.4682,-4.4587,-4.4587,-4.4587,-4.5125,-4.5511,-4.5511,-4.6063,-4.6336,-4.624,-4.624,-4.6035,-4.5562,-4.6113,-4.6272,-4.5889,-4.6633,-4.731,-4.7919,-4.8054,-4.8426,-5.0605,-5.018,-4.9601,-4.9064,-4.8817,-4.8606,-4.8202,-4.7778,-4.749,-4.749,-4.6817,-4.6109,-4.5753,-4.6008,-4.6244,-4.611,-4.6607,-4.7237,-4.7883,-4.7813,-4.7847,-4.8251,-4.8306,-4.8306,-4.8306,-4.8306,-4.8402,-4.8604,-4.8604,-4.8604,-4.8604,-4.8813,-4.893,-4.893,-4.893,-4.893,-4.893,-4.893,-4.893,-4.8897,-4.8728,-4.8728,-4.8915,-4.8477,-4.8421,-4.8604,-4.8402,-4.8306,-4.8306,-4.8306,-4.8306,-4.8306,-4.8306,-4.8306,-4.8306,-4.8306,-4.8306,-4.8306,-4.8306,-4.8306,-4.821,-4.7596,-4.7367,-4.7367,-4.7367,-4.7176,-4.691,-4.691,-4.6664,-4.6383,-4.6383,-4.6383,-4.6383,-4.6383,-4.6383,-4.6383,-4.6383,-4.6664,-4.691,-4.691,-4.691,-4.6999,-4.7324,-4.7132,-4.7044,-4.7324,-4.7367,-4.7281,-4.6955,-4.6682,-4.6257,-4.5597,-4.5563,-4.5563,-4.5563,-4.6112,-4.6495,-4.6495,-4.7044,-4.7237,-4.6955,-4.691,-4.6478,-4.5511,-4.5858,-4.5711,-4.5128,-4.5872,-4.6413,-4.6769,-4.7158,-4.7733,-4.9785,-4.9142,-4.8418,-4.8133,-4.7952,-4.7798,-4.7605,-4.7086,-4.6624,-4.6624,-4.6086,-4.5513,-4.5262,-4.5717,-4.6104,-4.5918,-4.6168,-4.6613,-4.7318,-4.7309,-4.7445,-4.7976,-4.8254,-4.8421,-4.8421,-4.8513,-4.8692,-4.8978,-4.9108,-4.9108,-4.9043,-4.9326,-4.9504,-4.9504,-4.9504,-4.9504,-4.9504,-4.9504,-4.9504,-4.9504,-4.9171,-4.9202,-4.9475,-4.8847,-4.8728,-4.9011,-4.8692,-4.855,-4.855,-4.855,-4.855,-4.855,-4.855,-4.855,-4.855,-4.855,-4.855,-4.855,-4.855,-4.8477,-4.8421,-4.8421,-4.8364,-4.8306,-4.8306,-4.7977,-4.7572,-4.7572,-4.7237,-4.6801,-4.6801,-4.6801,-4.6801,-4.6801,-4.6801,-4.6801,-4.6801,-4.7237,-4.7572,-4.7572,-4.7572,-4.7756,-4.821,-4.7897,-4.7756,-4.821,-4.8306,-4.8132,-4.7656,-4.7572,-4.7385,-4.6847,-4.6571,-4.6383,-4.6383,-4.6999,-4.7385,-4.7385,-4.7977,-4.8075,-4.7614,-4.7572,-4.7044,-4.5933,-4.5783,-4.5425,-4.4814,-4.5219,-4.5551,-4.572,-4.6295,-4.6972,-4.9004,-4.8771,-4.8312,-4.7491,-4.7142,-4.6797,-4.6009,-4.5759,-4.572,-4.572,-4.5663,-4.5586,-4.5568,-4.5608,-4.5803,-4.618,-4.6302,-4.636,-4.6501,-4.7192,-4.7562,-4.7242,-4.8196,-4.8829,-4.8829,-4.9171,-4.9416,-4.9445,-4.9773,-4.9827,-4.9475,-4.9475,-4.9504,-4.9504,-4.9504,-4.9504,-4.9504,-4.9504,-4.9504,-4.9504,-4.9445,-4.9445,-4.9504,-4.9416,-4.9416,-4.9445,-4.9416,-4.9386,-4.9386,-4.9386,-4.9386,-4.9386,-4.9386,-4.9386,-4.9386,-4.9386,-4.9386,-4.9386,-4.9386,-4.9139,-4.8829,-4.8829,-4.8604,-4.8306,-4.8306,-4.8267,-4.821,-4.821,-4.8172,-4.8132,-4.8132,-4.8132,-4.8132,-4.8132,-4.8132,-4.8132,-4.8132,-4.8172,-4.821,-4.821,-4.821,-4.821,-4.8306,-4.8249,-4.8229,-4.8306,-4.8306,-4.8267,-4.821,-4.821,-4.821,-4.8114,-4.7088,-4.6383,-4.6383,-4.6999,-4.7385,-4.7385,-4.7977,-4.8267,-4.821,-4.821,-4.7897,-4.7255,-4.6618,-4.6014,-4.5425,-4.4937,-4.5043,-4.5703,-4.5771,-4.6194,-4.8262,-4.759,-4.6955,-4.6515,-4.6334,-4.6124,-4.5701,-4.5586,-4.5586,-4.5586,-4.5586,-4.5586,-4.5586,-4.5586,-4.5646,-4.586,-4.5719,-4.5745,-4.6271,-4.644,-4.6697,-4.6999,-4.7885,-4.8464,-4.8464,-4.9085,-4.9589,-4.9827,-5.0249,-5.0399,-5.0225,-5.0206,-5.0206,-5.0206,-5.0206,-5.0206,-5.0206,-5.0206,-5.0206,-5.0225,-4.9974,-4.9974,-5.0225,-4.9719,-4.9617,-4.9846,-4.9608,-4.9504,-4.9504,-4.9504,-4.9504,-4.9504,-4.9504,-4.9504,-4.9504,-4.9504,-4.9504,-4.9504,-4.9504,-4.9386,-4.9265,-4.9265,-4.9139,-4.893,-4.8458,-4.8306,-4.8306,-4.8306,-4.8306,-4.8306,-4.8306,-4.8306,-4.8306,-4.8306,-4.8306,-4.8306,-4.8306,-4.8306,-4.8306,-4.8306,-4.8306,-4.8306,-4.8306,-4.8306,-4.8306,-4.8306,-4.8306,-4.8306,-4.8306,-4.8306,-4.8306,-4.8306,-4.7838,-4.7554,-4.7554,-4.7797,-4.7937,-4.7937,-4.8172,-4.8306,-4.8306,-4.8306,-4.8035,-4.7428,-4.715,-4.6495,-4.5511,-4.5284,-4.5115,-4.5026,-4.5026,-4.5432,-4.7383,-4.668,-4.6061,-4.5925,-4.5877,-4.5796,-4.5624,-4.5624,-4.5643,-4.5605,-4.5586,-4.5586,-4.5586,-4.5586,-4.5586,-4.5586,-4.54,-4.5411,-4.591,-4.5968,-4.6119,-4.6603,-4.7443,-4.7999,-4.7999,-4.8901,-4.9683,-5.023,-5.0544,-5.0702,-5.0702,-5.0702,-5.0702,-5.0702,-5.0702,-5.0702,-5.0702,-5.0702,-5.0702,-5.0702,-5.0421,-5.0421,-5.0683,-5.0116,-5.0019,-5.0272,-4.9974,-4.9853,-4.9853,-4.9853,-4.9853,-4.9853,-4.9853,-4.9853,-4.9853,-4.9853,-4.9853,-4.9853,-4.9853,-4.9773,-4.9692,-4.9692,-4.9608,-4.9386,-4.8813,-4.8568,-4.8495,-4.8495,-4.8383,-4.8306,-4.8306,-4.8306,-4.8306,-4.8306,-4.8306,-4.8306,-4.8306,-4.8306,-4.8306,-4.8306,-4.8306,-4.8306,-4.8306,-4.8306,-4.8306,-4.8306,-4.8306,-4.8306,-4.8306,-4.8306,-4.8306,-4.8306,-4.8306,-4.8306,-4.8306,-4.8306,-4.8306,-4.8306,-4.8306,-4.8306,-4.8306,-4.8306,-4.8114,-4.7656,-4.7488,-4.6955,-4.6063,-4.5681,-4.5267,-4.4869,-4.4869,-4.5141,-4.6328,-4.6211,-4.607,-4.5928,-4.5893,-4.5853,-4.5643,-4.5699,-4.5757,-4.5624,-4.5586,-4.5586,-4.5586,-4.5586,-4.5586,-4.5586,-4.5586,-4.5515,-4.5258,-4.5849,-4.6195,-4.594,-4.6858,-4.751,-4.751,-4.8658,-4.976,-5.0625,-5.0702,-5.0702,-5.0702,-5.0702,-5.0702,-5.0702,-5.0702,-5.0702,-5.0702,-5.0702,-5.0702,-5.0702,-5.0702,-5.0702,-5.0702,-5.0683,-5.0683,-5.0683,-5.0683,-5.0683,-5.0683,-5.0683,-5.0683,-5.0683,-5.0683,-5.0683,-5.0683,-5.0683,-5.0683,-5.0683,-5.0683,-5.0421,-5.0092,-5.0092,-4.9827,-4.9504,-4.9475,-4.9202,-4.8897,-4.8897,-4.8604,-4.8306,-4.8306,-4.8306,-4.8306,-4.8306,-4.8306,-4.8306,-4.8306,-4.8306,-4.8306,-4.8306,-4.8306,-4.8306,-4.8306,-4.8306,-4.8306,-4.8306,-4.8306,-4.8306,-4.8306,-4.8306,-4.8306,-4.8306,-4.8306,-4.8306,-4.8306,-4.8306,-4.8306,-4.8306,-4.8306,-4.8306,-4.8306,-4.8306,-4.8306,-4.8306,-4.7697,-4.7385,-4.7385,-4.6112,-4.5511,-4.5511,-4.5511,-4.5511,-4.6465,-4.6269,-4.6191,-4.6063,-4.6037,-4.5982,-4.5766,-4.5773,-4.5757,-4.5624,-4.5586,-4.5586,-4.5586,-4.5586,-4.5586,-4.5586,-4.5586,-4.5569,-4.5496,-4.5669,-4.5784,-4.5726,-4.6532,-4.7318,-4.7855,-4.826,-4.8625,-4.8894,-4.8913,-4.9221,-4.9913,-4.9952,-5.0183,-5.0664,-5.0702,-5.0702,-5.0702,-5.0779,-5.0856,-5.0856,-5.0933,-5.0972,-5.0972,-5.0972,-5.0972,-5.0972,-5.0972,-5.0972,-5.0972,-5.0972,-5.0972,-5.0972,-5.0972,-5.0972,-5.0972,-5.0972,-5.0972,-5.0972,-5.0875,-5.0759,-5.0619,-5.0542,-5.0421,-5.0336,-5.0336,-4.9853,-4.9326,-4.9326,-4.9202,-4.9062,-4.8779,-4.8897,-4.8963,-4.8421,-4.8513,-4.8621,-4.8364,-4.8306,-4.8306,-4.8306,-4.8306,-4.8306,-4.8306,-4.8306,-4.8306,-4.8306,-4.8306,-4.8306,-4.8306,-4.8306,-4.8306,-4.8306,-4.8306,-4.8306,-4.8306,-4.8306,-4.8306,-4.8306,-4.8306,-4.8306,-4.8306,-4.8306,-4.8306,-4.8306,-4.8114,-4.7797,-4.7385,-4.7017,-4.6571,-4.6112,-4.5681,-4.5511,-4.6445,-4.6308,-4.6269,-4.6133,-4.6142,-4.6111,-4.5863,-4.5815,-4.5796,-4.5624,-4.5586,-4.5586,-4.5586,-4.5586,-4.5605,-4.568,-4.5624,-4.5624,-4.5699,-4.5643,-4.5586,-4.5586,-4.6086,-4.674,-4.7567,-4.7663,-4.7798,-4.8163,-4.8182,-4.8471,-4.9144,-4.9186,-4.9556,-5.0349,-5.0681,-5.0856,-5.0856,-5.0933,-5.0988,-5.0967,-5.1045,-5.1083,-5.1083,-5.1083,-5.1083,-5.1083,-5.1083,-5.1083,0.0,-5.1083,-5.1083,-5.1083,-5.1083,-5.1083,-5.1083,-5.1083,-5.1083,-5.1083,-5.0987,-5.0984,-5.0952,-5.0837,-5.0741,-5.0702,-5.0702,-5.0249,-4.9692,-4.9532,-4.9504,-4.9445,-4.9202,-4.9326,-4.9356,-4.8881,-4.893,-4.9062,-4.8813,-4.8763,-4.8763,-4.8763,-4.8763,-4.8763,-4.8763,-4.8763,-4.8692,-4.855,-4.8513,-4.8477,-4.8306,-4.8306,-4.8306,-4.8306,-4.8306,-4.8306,-4.8306,-4.8306,-4.8306,-4.8306,-4.8306,-4.8306,-4.8306,-4.8306,-4.8306,-4.8306,-4.8306,-4.8132,-4.7756,-4.7237,-4.6955,-4.6756,-4.5883,-4.5648,0.0,-4.6289,-4.6269,-4.6152,-4.619,-4.6209,-4.5881,-4.5834,0.0,-4.5624,-4.5586,-4.5586,-4.5586,-4.5605,-4.5643,-4.5776,-4.5717,-4.5678,-4.5873,-4.5719,-4.5586,-4.5605,-4.5605,-4.5913,-4.6759,-4.6817,-4.7201,-4.8048,-4.8124,-4.8219,-4.8412,-4.8432,-4.8837,-4.9722,-5.0503,-5.099,-5.1106,-5.1106,-5.1109,-5.1102,-5.1123,-5.1122,-5.1122,-5.1122,-5.1122,-5.1122,-5.1122,-5.1122,-5.1122,-5.1122,-5.1122,-5.1122,-5.1122,-5.1122,-5.1122,-5.1122,-5.1122,-5.1122,-5.1122,-5.1095,-5.1068,-5.0952,-5.0837,-5.0702,-5.0702,-5.0442,-5.0068,-4.9692,-4.9608,-4.9561,-4.9532,-4.9561,-4.9561,-4.9504,-4.9504,-4.9532,-4.9522,-4.9504,-4.9504,-4.9504,-4.9504,-4.9504,-4.9504,-4.9504,-4.9386,-4.8978,-4.8963,-4.8813,-4.8383,-4.8326,-4.8326,-4.8306,-4.8306,-4.8306,-4.8306,-4.8306,-4.8306,-4.8306,-4.8306,-4.8306,-4.8306,-4.8306,-4.8306,-4.8306,-4.8306,-4.8306,-4.8306,-4.7088,-4.6801,-4.7428,-4.6209,-4.5933,-4.6129,0.0,-4.6289,-4.6269,-4.6203,-4.6106,0.0,-4.5847,-4.5776,-4.5624,-4.5586,-4.5586,-4.5586,-4.568,-4.5757,-4.5796,-4.5781,-4.578,-4.583,-4.5699,-4.5624,-4.5738,-4.5643,-4.574,-4.6103,-4.6103,-4.6163,-4.6432,-4.646,-4.681,-4.7619,-4.7648,-4.81,-4.909,-4.9318,-4.9962,-5.1093,-5.1153,-5.1183,-5.1192,-5.1284,-5.1338,-5.1338,-5.1338,-5.1338,-5.1338,-5.1338,-5.1338,-5.1338,-5.1338,-5.1338,-5.1338,-5.1338,-5.1338,-5.1338,-5.1338,-5.1338,-5.1318,-5.122,-5.118,-5.114,-5.0948,-5.0895,-5.0837,-5.0721,-5.0624,-5.0544,-5.0442,-5.0421,-5.0336,-5.0043,-5.0183,-5.0272,-4.9664,-4.9746,-4.9853,-4.958,-4.9504,-4.9504,-4.9504,-4.9504,-4.9504,-4.9504,-4.9504,-4.9475,-4.9386,-4.9356,-4.9202,-4.8813,-4.8744,-4.8621,-4.8326,-4.8306,-4.8306,-4.8306,-4.8306,-4.8306,-4.8306,-4.8306,-4.8306,-4.8306,-4.8306,-4.8306,-4.8306,-4.8306,-4.8306,-4.8306,-4.753,-4.747,-4.8075,-4.7281,-4.7017,-4.5996,-4.6066,-4.6123,-4.6189,-4.6102,-4.5976,-4.588,-4.5823,-4.5757,-4.5624,-4.5586,-4.5586,-4.5586,-4.5643,-4.5734,-4.5785,-4.5737,-4.5727,-4.5794,-4.5757,-4.5757,-4.5834,-4.5785,-4.5791,-4.589,-4.5877,-4.5887,-4.5986,-4.5984,-4.6271,-4.6863,-4.6888,-4.7332,-4.8273,-4.8298,-4.9059,-5.0664,-5.0722,-5.0927,-5.1277,-5.1363,-5.1406,-5.1406,-5.1406,-5.1406,-5.1406,-5.1406,-5.1406,-5.1406,-5.1406,-5.1406,-5.1406,-5.1406,-5.1406,-5.1406,-5.1406,-5.1406,-5.1387,-5.1328,-5.1257,-5.1187,-5.1043,-5.0943,-5.0875,-5.0741,-5.0702,-5.0702,-5.0702,-5.0702,-5.0663,-5.0421,-5.0544,-5.0604,-5.0159,-5.0225,-5.0313,-5.0092,-5.0043,-5.0043,-5.0043,-5.0043,-5.0043,-5.0043,-5.0043,-4.9974,-4.98,-4.9773,-4.9617,-4.9234,-4.9171,-4.9075,-4.8881,-4.8692,-4.8568,-4.8568,-4.8402,-4.8306,-4.8306,-4.8306,-4.8306,-4.8306,-4.8306,-4.8306,-4.8306,-4.8306,-4.8306,-4.8306,-4.7697,-4.7715,-4.8306,-4.7674,-4.7385,-4.5873,-4.5872,-4.5886,-4.6031,-4.5982,-4.5875,-4.5822,-4.5776,-4.5738,-4.5605,-4.5586,-4.5586,-4.5586,-4.5605,-4.5671,-4.5796,-4.5712,-4.568,-4.5757,-4.5815,-4.5871,-4.5899,-4.5893,-4.5894,-4.5965,-4.5949,-4.5991,-4.6119,-4.6124,-4.6182,-4.6289,-4.6299,-4.6639,-4.7383,-4.7402,-4.8162,-4.9751,-5.0057,-5.0547,-5.1211,-5.1348,-5.1385,-5.1369,-5.1385,-5.1387,-5.1367,-5.1377,-5.1369,-5.1372,-5.1366,-5.1367,-5.1367,-5.1387,-5.1406,-5.1406,-5.1406,-5.1406,-5.1406,-5.1406,-5.1328,-5.1228,-5.1141,-5.1017,-5.0914,-5.076,-5.0721,-5.0702,-5.0702,-5.0702,-5.0702,-5.0702,-5.0702,-5.0702,-5.0702,-5.0702,-5.0702,-5.0702,-5.0702,-5.0702,-5.0702,-5.0702,-5.0702,-5.0702,-5.0702,-5.0565,-5.0249,-5.0183,-5.0043,-4.9645,-4.9589,-4.9561,-4.9522,-4.9202,-4.8978,-4.8978,-4.8621,-4.8383,-4.8383,-4.8326,-4.8344,-4.8402,-4.8326,-4.8344,-4.8402,-4.8344,-4.8306,-4.8306,-4.7797,-4.7797,-4.8306,-4.7756,-4.753,-4.5776,-4.5731,-4.5706,-4.589,-4.5866,-4.5822,-4.5813,-4.5719,-4.5605,-4.5586,-4.5586,-4.5586,-4.5586,-4.5699,-4.5794,-4.5866,-4.5868,-4.5796,-4.5643,-4.5624,-4.5715,-4.5869,-4.5847,-4.5932,-4.6202,-4.6141,-4.6118,-4.6264,-4.6273,-4.628,-4.6308,-4.6301,-4.636,-4.6504,-4.6504,-4.6923,-4.7811,-4.9401,-5.0254,-5.0391,-5.1074,-5.1336,-5.1238,-5.1352,-5.1348,-5.1229,-5.1222,-5.1225,-5.1231,-5.1225,-5.123,-5.123,-5.1367,-5.1406,-5.1406,-5.1406,-5.1406,-5.1406,-5.1406,-5.1387,-5.1347,-5.1227,-5.1142,-5.1049,-5.0914,-5.0779,-5.0702,-5.0702,-5.0702,-5.0702,-5.0702,-5.0702,-5.0702,-5.0702,-5.0702,-5.0702,-5.0702,-5.0702,-5.0702,-5.0702,-5.0702,-5.0702,-5.0702,-5.0702,-5.0683,-5.0624,-5.0604,-5.0462,-5.0068,-5.0019,-4.9872,-4.9551,-4.9445,-4.9416,-4.9416,-4.9043,-4.8813,-4.8813,-4.8477,-4.8458,-4.8813,-4.8477,-4.8458,-4.8813,-4.8477,-4.8306,-4.8306,-4.821,-4.821,-4.8306,-4.821,-4.8172,-4.568,-4.5643,-4.5605,-4.5719,-4.5719,-4.5699,-4.5699,-4.5624,-4.5586,-4.5586,-4.5586,-4.5586,-4.5586,-4.5643,-4.5699,-4.5738,-4.5796,-4.5834,-4.5776,-4.5815,-4.5921,-4.6098,-4.6095,-4.6131,-4.6289,-4.6236,-4.6234,-4.6308,-4.6308,-4.6308,-4.6308,-4.6308,-4.627,-4.6192,-4.6183,-4.6318,-4.659,-4.7902,-4.9044,-5.0001,-5.0352,-5.075,-5.115,-5.1202,-5.1198,-5.1146,-5.1144,-5.1145,-5.1145,-5.114,-5.1139,-5.1152,-5.121,-5.123,-5.124,-5.1286,-5.1348,-5.1406,-5.1406,-5.1406,-5.1387,-5.123,-5.1176,-5.1132,-5.1042,-5.0972,-5.0914,-5.0837,-5.076,-5.0702,-5.0702,-5.0702,-5.0702,-5.0702,-5.0702,-5.0702,-5.0702,-5.0702,-5.0702,-5.0702,-5.0702,-5.0702,-5.0702,-5.0702,-5.0702,-5.0702,-5.0702,-5.0624,-5.0462,-5.0421,-5.0358,-5.0159,-4.9949,-4.9827,-4.9827,-4.9445,-4.9062,-4.8604,-4.8604,-4.8728,-4.8897,-4.893,-4.893,-4.8897,-4.8728,-4.8513,-4.8306,-4.8306,-4.8306,-4.8306,-4.8306,-4.8306,-4.5586,-4.5586,-4.5586,-4.5586,-4.5586,-4.5586,-4.5586,-4.5586,-4.5586,-4.5586,-4.5586,-4.5586,-4.5586,-4.5624,-4.5643,-4.5643,-4.5738,-4.5815,-4.5873,-4.5969,-4.6084,-4.6238,-4.626,-4.6267,-4.6308,-4.6308,-4.6308,-4.6308,-4.6308,-4.6286,-4.6253,-4.6249,-4.6201,-4.6055,-4.6039,-4.5997,-4.5889,-4.6534,-4.7654,-4.921,-4.9606,-5.013,-5.0751,-5.0982,-5.1093,-5.1054,-5.1054,-5.1048,-5.1049,-5.1049,-5.1051,-5.1074,-5.1093,-5.1113,-5.1109,-5.1167,-5.1247,-5.1348,-5.1348,-5.1367,-5.1387,-5.1289,-5.123,-5.1183,-5.1144,-5.1103,-5.1078,-5.0982,-5.0874,-5.0779,-5.0721,-5.0702,-5.0702,-5.0702,-5.0702,-5.0702,-5.0702,-5.0702,-5.0702,-5.0702,-5.0702,-5.0702,-5.0702,-5.0702,-5.0702,-5.0702,-5.0702,-5.0702,-5.0702,-5.0702,-5.0702,-5.0702,-5.0421,-5.0206,-5.0092,-4.98,-4.9326,-4.864,-4.8863,-4.9075,-4.9171,-4.9386,-4.9356,-4.9062,-4.8963,-4.8692,-4.8306,-4.8306,-4.8306,-4.8306,-4.8306,-4.8306,-4.5586,-4.5586,-4.5586,-4.5586,-4.5586,-4.5586,-4.5586,-4.5586,-4.5586,-4.5586,-4.5586,-4.5586,-4.5586,-4.5699,-4.5796,-4.5796,-4.5796,-4.5796,-4.5815,-4.5815,-4.5892,-4.6084,-4.6114,-4.6162,-4.6286,-4.6308,-4.6308,-4.6308,-4.6308,-4.6255,-4.6121,-4.6108,-4.6051,-4.593,-4.5926,-4.589,-4.5808,-4.5871,-4.6408,-4.7422,-4.9026,-4.9777,-4.9738,-5.0664,-5.1029,-5.0894,-5.0894,-5.0895,-5.0914,-5.0914,-5.0914,-5.0914,-5.1048,-5.1106,-5.1103,-5.1117,-5.1152,-5.1211,-5.1211,-5.1308,-5.1406,-5.1387,-5.1308,-5.1191,-5.1188,-5.1146,-5.1102,-5.1083,-5.1068,-5.101,-5.076,-5.0702,-5.0702,-5.0702,-5.0702,-5.0702,-5.0702,-5.0702,-5.0702,-5.0702,-5.0702,-5.0702,-5.0702,-5.0702,-5.0702,-5.0702,-5.0702,-5.0702,-5.0702,-5.0702,-5.0702,-5.0702,-5.0663,-5.0523,-5.0135,-5.0068,-4.9853,-4.9445,-4.9445,-4.9617,-4.9999,-4.9692,-4.9475,-4.9445,-4.9075,-4.8692,-4.8306,-4.8306,-4.8306,-4.8306,-4.8306,-4.8306,-4.5586,-4.5586,-4.5586,-4.5586,-4.5586,-4.5586,-4.5586,-4.5586,-4.5586,-4.5586,-4.5586,-4.5624,-4.5719,-4.5699,-4.5699,-4.5796,-4.5796,-4.5815,-4.5853,-4.593,-4.6047,-4.6201,-4.6229,-4.6236,-4.6308,-4.6308,-4.6308,-4.6308,-4.6222,-4.6151,-4.6102,-4.6026,-4.5921,-4.5844,-4.5841,-4.5796,-4.568,-4.568,-4.5853,-4.6219,-4.7932,-4.9009,-4.9509,-5.0433,-5.0837,-5.0779,-5.0779,-5.0779,-5.0779,-5.0779,-5.0779,-5.0779,-5.0837,-5.0914,-5.0972,-5.0977,-5.1034,-5.1136,-5.1133,-5.1206,-5.1289,-5.1289,-5.1308,-5.1328,-5.1328,-5.1302,-5.1264,-5.1198,-5.1155,-5.1126,-5.0991,-5.0952,-5.0933,-5.0856,-5.0837,-5.0818,-5.0721,-5.0702,-5.0702,-5.0702,-5.0702,-5.0702,-5.0702,-5.0702,-5.0702,-5.0702,-5.0702,-5.0702,-5.0702,-5.0702,-5.0702,-5.0702,-5.0702,-5.0643,-5.0483,-5.0483,-5.0421,-5.0249,-4.9999,-4.9949,-5.0092,-5.0183,-5.0135,-4.9898,-4.9475,-4.9094,-4.8657,-4.8421,-4.8306,-4.8306,-4.8306,-4.8306,-4.5586,-4.5586,-4.5586,-4.5586,-4.5586,-4.5586,-4.5586,-4.5586,-4.5586,-4.5586,-4.5624,-4.5699,-4.5815,-4.5748,-4.5703,-4.5813,-4.5815,-4.5834,-4.595,-4.6046,-4.6158,-4.6285,-4.6308,-4.6308,-4.6308,-4.6308,-4.6284,-4.6245,-4.6138,-4.6065,-4.6007,-4.593,-4.5834,-4.5738,-4.5738,-4.5699,-4.5586,-4.5586,-4.555,-4.5457,-4.6858,-4.799,-4.8833,-4.9595,-5.0087,-5.0336,-5.0336,-5.0336,-5.0336,-5.0336,-5.0336,-5.0336,-5.0462,-5.0562,-5.0659,-5.0798,-5.0933,-5.1029,-5.1039,-5.1084,-5.1171,-5.1188,-5.1269,-5.1348,-5.1387,-5.1406,-5.1385,-5.1288,-5.1269,-5.1256,-5.1199,-5.1148,-5.107,-5.0974,-5.0968,-5.0952,-5.0856,-5.0779,-5.076,-5.076,-5.0721,-5.0702,-5.0702,-5.0702,-5.0702,-5.0702,-5.0702,-5.0702,-5.0702,-5.0702,-5.0702,-5.0702,-5.0702,-5.0702,-5.0702,-5.0702,-5.0702,-5.0702,-5.0442,-5.0272,-5.0272,-5.0544,-5.0504,-5.0092,-4.9719,-4.9295,-4.8897,-4.8477,-4.8306,-4.8306,-4.8306,-4.8306,-4.5586,-4.5586,-4.5586,-4.5586,-4.5586,-4.5586,-4.5586,-4.5586,-4.5586,-4.5586,-4.5719,-4.5815,-4.5892,-4.5863,-4.5815,-4.5905,-4.5853,-4.5873,-4.6065,-4.6102,-4.6138,-4.6285,-4.6308,-4.6308,-4.6308,-4.6308,-4.6236,-4.6114,-4.6103,-4.6007,-4.5815,-4.5796,-4.5738,-4.5586,-4.5586,-4.5586,-4.5586,-4.5586,-4.5419,-4.5115,-4.5897,-4.6717,-4.751,-4.8045,-4.874,-4.9504,-4.9504,-4.9504,-4.9504,-4.9504,-4.9504,-4.9532,-4.9949,-5.0092,-5.0159,-5.0544,-5.0779,-5.0914,-5.0914,-5.0991,-5.1099,-5.1171,-5.1191,-5.1211,-5.1367,-5.1406,-5.1406,-5.1406,-5.1406,-5.1402,-5.139,-5.1249,-5.1094,-5.1094,-5.1102,-5.1106,-5.1087,-5.0991,-5.0895,-5.0914,-5.0779,-5.0702,-5.0702,-5.0702,-5.0702,-5.0702,-5.0702,-5.0702,-5.0702,-5.0702,-5.0702,-5.0702,-5.0702,-5.0702,-5.0702,-5.0702,-5.0702,-5.0702,-5.0702,-5.0702,-5.0702,-5.0702,-5.0504,-5.0116,-4.9719,-4.9295,-4.8897,-4.8513,-4.8306,-4.8306,-4.8306,-4.8306,-4.5586,-4.568,-4.5719,-4.5605,-4.5719,-4.5796,-4.5757,-4.5738,-4.5757,-4.5796,-4.5824,-4.5912,-4.602,-4.594,-4.5915,-4.6025,-4.6026,-4.6026,-4.6084,-4.6182,-4.6253,-4.6308,-4.6308,-4.6308,-4.6308,-4.6308,-4.6236,-4.6114,-4.6007,-4.5911,-4.5815,-4.5719,-4.5624,-4.5586,-4.5586,-4.5586,-4.5586,-4.5381,-4.5201,-4.5096,-4.4813,-4.5555,-4.7167,-4.7937,-4.874,-4.9504,-4.9504,-4.9504,-4.9504,-4.9504,-4.9504,-4.9504,-4.9617,-4.9853,-5.0116,-5.0249,-5.0481,-5.076,-5.076,-5.0856,-5.0952,-5.099,-5.1063,-5.1135,-5.1174,-5.1222,-5.1269,-5.1269,-5.1328,-5.1406,-5.1394,-5.1369,-5.1291,-5.1193,-5.1171,-5.1167,-5.1105,-5.1076,-5.1048,-5.1029,-5.101,-5.0991,-5.0991,-5.0914,-5.0856,-5.0856,-5.076,-5.0702,-5.0702,-5.0702,-5.0702,-5.0702,-5.0702,-5.0702,-5.0702,-5.0702,-5.0702,-5.0702,-5.0702,-5.0702,-5.0702,-5.0702,-5.0624,-5.0504,-5.0135,-4.9719,-4.9326,-4.893,-4.8568,-4.8306,-4.8306,-4.8306,-4.5586,-4.5699,-4.5776,-4.5699,-4.5796,-4.5911,-4.593,-4.5889,-4.5873,-4.5965,-4.5984,-4.6007,-4.6083,-4.6035,-4.6014,-4.6095,-4.6103,-4.6105,-4.6158,-4.6245,-4.6308,-4.6308,-4.6308,-4.6308,-4.6308,-4.6249,-4.6171,-4.6021,-4.5915,-4.5815,-4.5738,-4.5624,-4.5586,-4.5586,-4.5586,-4.5586,-4.5586,-4.5282,-4.503,-4.4896,-4.429,-4.4717,-4.6097,-4.6968,-4.7791,-4.8562,-4.888,-4.9029,-4.9029,-4.9029,-4.9029,-4.9029,-4.9202,-4.9416,-4.9645,-4.98,-5.0019,-5.0206,-5.0206,-5.0374,-5.0579,-5.0644,-5.0825,-5.1023,-5.1081,-5.1131,-5.1167,-5.1167,-5.1219,-5.1285,-5.1307,-5.1328,-5.1308,-5.1289,-5.1289,-5.1267,-5.1235,-5.118,-5.1147,-5.1139,-5.112,-5.1099,-5.1099,-5.1022,-5.0993,-5.0972,-5.0875,-5.076,-5.0702,-5.0702,-5.0702,-5.0702,-5.0702,-5.0702,-5.0702,-5.0702,-5.0702,-5.0702,-5.0702,-5.0702,-5.0702,-5.0702,-5.0702,-5.0702,-5.0294,-4.9974,-4.9746,-4.9171,-4.8779,-4.8532,-4.8364,-4.8306,-4.5605,-4.5719,-4.5796,-4.5808,-4.5868,-4.595,-4.6084,-4.6015,-4.5966,-4.609,-4.6124,-4.6125,-4.6124,-4.6113,-4.6124,-4.6129,-4.6124,-4.6169,-4.6284,-4.6308,-4.6308,-4.6308,-4.6308,-4.6308,-4.6284,-4.6177,-4.6036,-4.5911,-4.5829,-4.5738,-4.5605,-4.5586,-4.5586,-4.5586,-4.5586,-4.5586,-4.5549,-4.5222,-4.4896,-4.4527,-4.4146,-4.4161,-4.4635,-4.5498,-4.6379,-4.726,-4.7994,-4.8306,-4.8306,-4.8249,-4.821,-4.8231,-4.8639,-4.8776,-4.8878,-4.9295,-4.9475,-4.9504,-4.9504,-4.9746,-5.0073,-5.0193,-5.0489,-5.0856,-5.0971,-5.1048,-5.1085,-5.1069,-5.1092,-5.1113,-5.1187,-5.1188,-5.1228,-5.1346,-5.1386,-5.1406,-5.1406,-5.1308,-5.1211,-5.1211,-5.1162,-5.1122,-5.1122,-5.1122,-5.1109,-5.1101,-5.0991,-5.0875,-5.0741,-5.0721,-5.0702,-5.0702,-5.0702,-5.0702,-5.0702,-5.0702,-5.0702,-5.0702,-5.0702,-5.0702,-5.0702,-5.0702,-5.0702,-5.0702,-5.0336,-5.0135,-5.0092,-4.9326,-4.893,-4.8897,-4.8477,-4.8306,-4.5738,-4.5815,-4.588,-4.5871,-4.5974,-4.6084,-4.6219,-4.6227,-4.6222,-4.6245,-4.6257,-4.6267,-4.6269,-4.6269,-4.6268,-4.6264,-4.6257,-4.627,-4.6308,-4.6308,-4.6308,-4.6308,-4.6308,-4.6261,-4.6151,-4.6124,-4.6003,-4.5851,-4.5808,-4.5738,-4.5605,-4.5586,-4.5586,-4.5586,-4.5586,-4.5457,-4.5201,-4.4872,-4.4508,-4.4117,-4.3772,-4.3655,-4.3809,-4.5241,-4.6691,-4.8067,-4.8233,-4.8306,-4.8267,-4.7797,-4.7572,-4.7614,-4.7702,-4.791,-4.8274,-4.8807,-4.9234,-4.9504,-4.9504,-4.9561,-4.9645,-4.9644,-4.9955,-5.0287,-5.0325,-5.0615,-5.0933,-5.0929,-5.1022,-5.1114,-5.1119,-5.1117,-5.1125,-5.1164,-5.1301,-5.1406,-5.1406,-5.1387,-5.1367,-5.1367,-5.1344,-5.1338,-5.1338,-5.124,-5.1152,-5.11,-5.1087,-5.101,-5.0875,-5.0875,-5.0837,-5.0702,-5.0702,-5.0702,-5.0702,-5.0702,-5.0702,-5.0702,-5.0702,-5.0702,-5.0702,-5.0702,-5.0702,-5.0702,-5.0604,-5.0421,-5.0092,-4.9617,-4.9202,-4.8897,-4.8477,-4.8306,-4.5757,-4.5847,-4.5929,-4.6053,-4.615,-4.6221,-4.6279,-4.6298,-4.6305,-4.6305,-4.6308,-4.6308,-4.6308,-4.6308,-4.6308,-4.6308,-4.6308,-4.6308,-4.6308,-4.6308,-4.6308,-4.6308,-4.6236,-4.618,-4.6116,-4.6007,-4.5911,-4.5815,-4.5738,-4.568,-4.5586,-4.5586,-4.5586,-4.5586,-4.5438,-4.5282,-4.5096,-4.4561,-4.4204,-4.4016,-4.3679,-4.3699,-4.4121,-4.5333,-4.6581,-4.7755,-4.8141,-4.8132,-4.7838,-4.753,-4.7194,-4.691,-4.691,-4.7034,-4.7307,-4.7949,-4.8292,-4.8527,-4.881,-4.9062,-4.9202,-4.9202,-4.9475,-4.98,-4.98,-5.0006,-5.0255,-5.0454,-5.0574,-5.0694,-5.0932,-5.0999,-5.102,-5.1078,-5.1206,-5.1308,-5.1308,-5.1348,-5.1406,-5.1406,-5.1406,-5.1406,-5.1406,-5.1348,-5.1266,-5.1167,-5.1156,-5.1109,-5.102,-5.0985,-5.0952,-5.0818,-5.0818,-5.076,-5.0702,-5.0702,-5.0702,-5.0702,-5.0702,-5.0702,-5.0702,-5.0702,-5.0702,-5.0702,-5.0702,-5.0604,-5.0399,-4.9974,-4.9589,-4.9171,-4.8779,-4.8477,-4.5757,-4.5873,-4.5988,-4.6247,-4.6305,-4.6298,-4.6297,-4.6308,-4.6308,-4.6308,-4.6308,-4.6308,-4.6308,-4.6308,-4.6308,-4.6308,-4.6308,-4.6308,-4.6308,-4.6308,-4.6288,-4.627,-4.6166,-4.6084,-4.6046,-4.5911,-4.5796,-4.5776,-4.5643,-4.5568,-4.5513,-4.5513,-4.5495,-4.5438,-4.5161,-4.4966,-4.49,-4.4299,-4.3986,-4.3893,-4.3612,-4.3846,-4.4525,-4.5333,-4.6214,-4.713,-4.7824,-4.7838,-4.7385,-4.715,-4.6774,-4.624,-4.624,-4.624,-4.6336,-4.6999,-4.7237,-4.7342,-4.7937,-4.8365,-4.8672,-4.876,-4.9075,-4.9386,-4.9386,-4.9445,-4.9589,-4.9993,-5.0092,-5.0221,-5.0739,-5.0875,-5.0895,-5.101,-5.1089,-5.1151,-5.1183,-5.1288,-5.1367,-5.1367,-5.1387,-5.1406,-5.1406,-5.1406,-5.1367,-5.125,-5.123,-5.1203,-5.114,-5.1114,-5.107,-5.0947,-5.0914,-5.0895,-5.0741,-5.0721,-5.0721,-5.0702,-5.0702,-5.0702,-5.0702,-5.0702,-5.0702,-5.0702,-5.0702,-5.0702,-5.0702,-5.0313,-4.9924,-4.9589,-4.9108,-4.8709,-4.5757,-4.593,-4.6111,-4.6269,-4.6306,-4.63,-4.6308,-4.6308,-4.6308,-4.6308,-4.6308,-4.6308,-4.6308,-4.6308,-4.6308,-4.6308,-4.6308,-4.6308,-4.6308,-4.6308,-4.6257,-4.6143,-4.6095,-4.6026,-4.5853,-4.5815,-4.5757,-4.5624,-4.5605,-4.5457,-4.518,-4.518,-4.5033,-4.4732,-4.4682,-4.4482,-4.4146,-4.4058,-4.3849,-4.3582,-4.3513,-4.3552,-4.3681,-4.4488,-4.57,-4.713,-4.7411,-4.747,-4.7281,-4.6209,-4.5681,-4.5648,-4.5648,-4.5648,-4.5681,-4.6288,-4.6524,-4.6618,-4.7281,-4.7554,-4.7679,-4.8212,-4.8657,-4.8996,-4.8996,-4.9234,-4.9589,-4.9993,-5.0092,-5.0202,-5.0623,-5.0721,-5.0721,-5.0741,-5.0853,-5.096,-5.1094,-5.1176,-5.123,-5.123,-5.1328,-5.1406,-5.1406,-5.1406,-5.1387,-5.1387,-5.1367,-5.1328,-5.1208,-5.1183,-5.1162,-5.1083,-5.1067,-5.1029,-5.0895,-5.0875,-5.0837,-5.0702,-5.0702,-5.0702,-5.0702,-5.0702,-5.0702,-5.0702,-5.0702,-5.0702,-5.0702,-5.0313,-5.0068,-4.9999,-4.9265,-4.8863,-4.5815,-4.5968,-4.6133,-4.6269,-4.6308,-4.6308,-4.6308,-4.6231,-4.6192,-4.6192,-4.613,-4.6092,-4.6173,-4.6192,-4.6152,-4.6084,-4.608,-4.608,-4.608,-4.608,-4.6047,-4.5987,-4.5943,-4.5911,-4.5815,-4.5738,-4.559,-4.5342,-4.5322,-4.5161,-4.4849,-4.4825,-4.4732,-4.4606,-4.4373,-4.4175,-4.3998,-4.3804,-4.3646,-4.3497,-4.3497,-4.3497,-4.3516,-4.3999,-4.4869,-4.5939,-4.6476,-4.6561,-4.6305,-4.5732,-4.532,-4.4998,-4.4998,-4.4998,-4.5089,-4.5699,-4.5915,-4.5965,-4.6618,-4.7106,-4.7428,-4.7715,-4.8137,-4.8568,-4.8568,-4.8692,-4.8897,-4.9307,-4.9445,-4.9532,-4.9924,-5.0183,-5.0358,-5.0358,-5.0582,-5.0797,-5.0851,-5.1024,-5.115,-5.1187,-5.1308,-5.1406,-5.1406,-5.1406,-5.1406,-5.1406,-5.1406,-5.1387,-5.1328,-5.1308,-5.1266,-5.118,-5.1154,-5.1083,-5.0921,-5.0892,-5.0856,-5.0702,-5.0702,-5.0702,-5.0702,-5.0702,-5.0702,-5.0702,-5.0702,-5.0702,-5.0702,-5.0504,-5.0336,-5.0092,-4.9504,-4.9108,-4.5853,-4.6014,-4.612,-4.6268,-4.6308,-4.6287,-4.6257,-4.6158,-4.6084,-4.6065,-4.5969,-4.5925,-4.6018,-4.6046,-4.6012,-4.5922,-4.5897,-4.5897,-4.5897,-4.5897,-4.5897,-4.5878,-4.5834,-4.5741,-4.5629,-4.5515,-4.5342,-4.5007,-4.4966,-4.4806,-4.4474,-4.4447,-4.4419,-4.4308,-4.4016,-4.3881,-4.3881,-4.3612,-4.3497,-4.3497,-4.3497,-4.341,-4.3304,-4.35,-4.3922,-4.4578,-4.5408,-4.5647,-4.5511,-4.532,-4.4998,-4.4587,-4.4587,-4.4587,-4.4682,-4.5089,-4.5267,-4.5372,-4.5965,-4.6478,-4.6955,-4.7106,-4.7572,-4.8075,-4.8075,-4.8172,-4.8383,-4.8779,-4.8897,-4.8978,-4.9386,-4.98,-5.0092,-5.0092,-5.0399,-5.0702,-5.0741,-5.0914,-5.1067,-5.1167,-5.1266,-5.1348,-5.1348,-5.1387,-5.1406,-5.1406,-5.1406,-5.1406,-5.1406,-5.1406,-5.1367,-5.1269,-5.125,-5.1177,-5.0996,-5.0983,-5.0914,-5.076,-5.0741,-5.0741,-5.0702,-5.0702,-5.0702,-5.0702,-5.0702,-5.0702,-5.0702,-5.0702,-5.0544,-5.0249,-4.9827,-4.9445,-4.5873,-4.6003,-4.6123,-4.627,-4.6308,-4.627,-4.6143,-4.61,-4.6065,-4.595,-4.5909,-4.5871,-4.5834,-4.5873,-4.5911,-4.5907,-4.5907,-4.5907,-4.5907,-4.5907,-4.5888,-4.5811,-4.5813,-4.5629,-4.5178,-4.5137,-4.5007,-4.4631,-4.465,-4.4428,-4.4058,-4.4028,-4.3881,-4.3582,-4.3548,-4.3513,-4.3513,-4.3532,-4.3497,-4.3497,-4.3497,-4.325,-4.275,-4.2747,-4.2946,-4.3325,-4.4121,-4.4885,-4.5459,-4.4852,-4.4626,-4.4587,-4.4587,-4.4587,-4.457,-4.4626,-4.4626,-4.472,-4.532,-4.5545,-4.5681,-4.6288,-4.691,-4.7446,-4.7446,-4.7856,-4.8383,-4.8779,-4.8897,-4.8978,-4.9386,-4.98,-5.0092,-5.0092,-5.0399,-5.0721,-5.0875,-5.0914,-5.0945,-5.1072,-5.1152,-5.1211,-5.1211,-5.1328,-5.1406,-5.1406,-5.1406,-5.1406,-5.1406,-5.1406,-5.1406,-5.1387,-5.1387,-5.1328,-5.119,-5.1178,-5.1106,-5.0914,-5.0895,-5.0837,-5.0702,-5.0702,-5.0702,-5.0702,-5.0702,-5.0702,-5.0702,-5.0702,-5.0683,-5.0663,-5.0249,-4.9853,-4.5988,-4.6065,-4.6139,-4.627,-4.6308,-4.6267,-4.6124,-4.6026,-4.595,-4.5853,-4.5611,-4.5398,-4.5359,-4.5453,-4.557,-4.5703,-4.5338,-4.5148,-4.5357,-4.5192,-4.5061,-4.5023,-4.5023,-4.4957,-4.48,-4.4776,-4.4631,-4.4233,-4.4204,-4.4046,-4.3693,-4.3679,-4.3612,-4.3479,-4.3497,-4.3497,-4.3497,-4.3497,-4.3497,-4.3497,-4.3497,-4.3214,-4.2711,-4.2302,-4.2502,-4.321,-4.31,-4.3782,-4.4906,-4.4665,-4.4587,-4.4587,-4.4587,-4.4587,-4.4587,-4.4587,-4.4587,-4.4626,-4.4869,-4.5178,-4.5563,-4.5732,-4.6257,-4.6864,-4.7281,-4.7572,-4.782,-4.8346,-4.8513,-4.855,-4.8692,-4.9029,-4.9475,-4.9974,-5.0399,-5.0702,-5.076,-5.0856,-5.0894,-5.0955,-5.1053,-5.1152,-5.1187,-5.123,-5.1308,-5.1387,-5.1406,-5.1406,-5.1406,-5.1406,-5.1406,-5.1406,-5.1406,-5.1348,-5.1211,-5.1191,-5.1113,-5.0898,-5.091,-5.0856,-5.0702,-5.0702,-5.0702,-5.0702,-5.0702,-5.0702,-5.0702,-5.0702,-5.0702,-5.0683,-5.0272,-4.9879,-4.6003,-4.61,-4.6192,-4.628,-4.6308,-4.6254,-4.606,-4.5954,-4.5873,-4.5757,-4.5477,-4.5222,-4.5118,-4.5076,-4.5114,-4.5241,-4.4896,-4.4682,-4.4896,-4.4751,-4.458,-4.458,-4.458,-4.4553,-4.4419,-4.4419,-4.4252,-4.3849,-4.3818,-4.3726,-4.3513,-4.3497,-4.3497,-4.3497,-4.3497,-4.3497,-4.3497,-4.3497,-4.3497,-4.3497,-4.3497,-4.3124,-4.2382,-4.1979,-4.2076,-4.2499,-4.2379,-4.3149,-4.4587,-4.4587,-4.4587,-4.4587,-4.4587,-4.4587,-4.4587,-4.4587,-4.4587,-4.4587,-4.4587,-4.4852,-4.5178,-4.5178,-4.5597,-4.6192,-4.6635,-4.7062,-4.747,-4.7897,-4.8132,-4.8306,-4.8306,-4.8692,-4.9307,-5.0116,-5.0523,-5.0702,-5.0702,-5.076,-5.0837,-5.0837,-5.0952,-5.1054,-5.1156,-5.1193,-5.125,-5.1387,-5.1406,-5.1406,-5.1406,-5.1406,-5.1406,-5.1406,-5.1406,-5.1367,-5.1269,-5.1269,-5.1199,-5.1012,-5.0979,-5.0914,-5.076,-5.0721,-5.0702,-5.0702,-5.0702,-5.0702,-5.0702,-5.0702,-5.0702,-5.0683,-5.0421,-4.9999,0.0,0.0,0.0,-4.6308,-4.6308,-4.6225,-4.5967,-4.5912,-4.5834,-4.5624,-4.5586,-4.5495,-4.5159,-4.4825,-4.458,-4.458,-4.458,-4.4553,-4.458,-4.458,-4.4572,-4.4572,-4.4572,-4.4419,-4.3998,-4.3986,-4.3849,-4.3513,-4.3497,-4.3497,-4.3497,-4.3497,-4.3497,-4.3497,-4.3497,-4.3497,-4.3497,-4.3497,-4.3497,-4.3497,-4.3497,-4.2903,-4.181,-4.181,-4.1586,-4.1238,-4.1982,-4.3149,-4.4553,-4.457,-4.4587,-4.4587,-4.4587,-4.4587,-4.4587,-4.4587,-4.4587,-4.4587,-4.4587,-4.4587,-4.4587,-4.4587,-4.4998,-4.5459,-4.5494,-4.6353,-4.7342,-4.7385,-4.7797,-4.8267,-4.8306,-4.8915,-4.9692,-5.0483,-5.0683,-5.0702,-5.0702,-5.0702,-5.0702,-5.0702,-5.0818,-5.0952,-5.1087,-5.115,-5.123,-5.1387,-5.1406,-5.1406,-5.1406,-5.1406,-5.1406,-5.1406,-5.1406,-5.1406,-5.1406,-5.1406,-5.1348,-5.1211,-5.1132,-5.1029,-5.0914,-5.0779,-5.0702,-5.0702,-5.0702,-5.0702,-5.0702,-5.0702,-5.0702,-5.0702,-5.0683,-5.0272,-4.6143,0.0,0.0,0.0,0.0,0.0,-4.5967,-4.5912,-4.5834,-4.5624,-4.5419,-4.5201,-4.5118,-4.4587,-4.4165,-4.4165,-4.3974,-4.3899,-4.4136,-4.3943,-4.3791,-4.3791,-4.3791,-4.3758,-4.3646,-4.3646,-4.3597,-4.3532,-4.3497,-4.3497,-4.3497,-4.3497,-4.3497,-4.3497,-4.3497,-4.3497,-4.3497,-4.3497,-4.3497,-4.3497,-4.3497,-4.2903,-4.181,-4.181,-4.1586,-4.1238,-4.1982,-4.2844,-4.3792,-4.435,-4.4587,-4.4587,-4.4587,-4.4587,-4.4587,-4.4587,-4.4587,-4.4587,-4.4587,-4.4587,-4.4587,-4.4587,-4.472,-4.4906,-4.5372,-4.5749,-4.6209,-4.715,-4.753,-4.7756,-4.8172,-4.8915,-4.9561,-4.9773,-5.0272,-5.0702,-5.0702,-5.0702,-5.0702,-5.0702,-5.0721,-5.0837,-5.1068,-5.1127,-5.1191,-5.1366,-5.1406,-5.1406,-5.1406,-5.1406,-5.1406,-5.1406,-5.1406,-5.1406,-5.1406,-5.1406,-5.1348,-5.1211,-5.1187,-5.1084,-5.0914,-5.0875,-5.0818,-5.0702,-5.0702,-5.0702,-5.0702,-5.0702,-5.0702,-5.0683,-5.0399,-5.0159,0.0,0.0,-4.6308,-4.6308,0.0,0.0,-4.603,-4.5953,-4.5853,-4.5719,-4.5477,-4.5282,-4.5137,-4.4738,-4.4354,-4.4058,-4.3836,-4.3726,-4.3772,-4.3612,-4.3497,-4.3497,-4.3497,-4.341,-4.3178,-4.3178,-4.3178,-4.3178,-4.294,-4.2903,-4.3124,-4.3375,-4.3497,-4.3497,-4.3497,-4.3497,-4.3497,-4.3497,-4.3497,-4.3497,-4.325,-4.2696,-4.181,-4.1534,-4.118,-4.0798,-4.1847,-4.254,-4.3031,-4.413,-4.4587,-4.4587,-4.4587,-4.4587,-4.4587,-4.4587,-4.4587,-4.4587,-4.4587,-4.4587,-4.4587,-4.4587,-4.4587,-4.4682,-4.4998,-4.532,-4.5699,-4.671,-4.7385,-4.7919,-4.8421,-4.9029,-4.9532,-4.9719,-5.0249,-5.0702,-5.0702,-5.0702,-5.0702,-5.0702,-5.0702,-5.076,-5.0991,-5.101,-5.1081,-5.1286,-5.1328,-5.1348,-5.1387,-5.1406,-5.1406,-5.1406,-5.1406,-5.1406,-5.1406,-5.1406,-5.1367,-5.1289,-5.123,-5.1148,-5.1023,-5.0996,-5.0933,-5.0779,-5.0779,-5.076,-5.0702,-5.0702,-5.0702,-5.0683,-5.0462,-5.0272,0.0,0.0,0.0,-4.6308,-4.6308,0.0,-4.6133,-4.6002,-4.5893,-4.5813,-4.5719,-4.5532,-4.5222,-4.5137,-4.4877,-4.4175,-4.4028,-4.3881,-4.3548,-4.3497,-4.3497,-4.3497,-4.3497,-4.3286,-4.275,-4.2711,-4.2655,-4.2616,-4.2121,-4.2021,-4.2577,-4.3142,-4.3375,-4.3321,-4.3444,-4.3444,-4.3321,-4.3375,-4.3375,-4.3321,-4.2808,-4.2302,-4.1664,-4.1133,-4.0625,-4.0155,-4.1644,-4.2286,-4.2405,-4.3944,-4.4587,-4.4587,-4.4587,-4.4587,-4.4587,-4.4587,-4.4587,-4.4587,-4.4587,-4.4587,-4.4587,-4.4587,-4.4587,-4.4587,-4.4587,-4.4944,-4.5545,-4.6192,-4.7281,-4.8307,-4.8709,-4.9139,-4.9532,-4.9949,-5.0336,-5.0663,-5.0683,-5.0702,-5.0702,-5.0702,-5.0702,-5.0741,-5.0895,-5.0897,-5.0973,-5.1167,-5.1209,-5.123,-5.1367,-5.1387,-5.1406,-5.1406,-5.1406,-5.1406,-5.1406,-5.1406,-5.1406,-5.1406,-5.1289,-5.1211,-5.1191,-5.1152,-5.1048,-5.0894,-5.0895,-5.0837,-5.0702,-5.0702,-5.0702,-5.0702,-5.0702,-5.0504,-4.6228,-4.6282,-4.6308,-4.6308,-4.6308,0.0,-4.6133,-4.6087,-4.6008,-4.5831,-4.5776,-4.572,-4.5532,-4.5263,-4.4966,-4.4553,-4.4204,-4.3881,-4.3548,-4.3497,-4.3497,-4.3497,-4.3497,-4.3286,-4.275,-4.2711,-4.248,-4.2021,-4.1853,-4.1853,-4.1979,-4.2559,-4.2637,-4.2144,-4.3014,-4.3069,-4.2144,-4.2637,-4.2598,-4.2144,-4.2021,-4.1664,-4.1087,-4.0949,-4.0625,-4.0155,-4.1644,-4.2286,-4.2405,-4.3944,-4.4587,-4.4587,-4.4587,-4.4587,-4.4587,-4.4587,-4.4587,-4.4587,-4.4587,-4.4587,-4.4587,-4.4587,-4.4587,-4.4587,-4.4587,-4.4665,-4.4998,-4.6094,-4.6955,-4.7697,-4.8251,-4.8728,-4.9108,-4.9532,-4.9924,-5.0313,-5.0624,-5.0702,-5.0702,-5.0702,-5.0702,-5.0741,-5.0895,-5.0894,-5.0947,-5.1103,-5.1174,-5.1211,-5.123,-5.1328,-5.1406,-5.1406,-5.1406,-5.1406,-5.1406,-5.1406,-5.1406,-5.1406,-5.1387,-5.1308,-5.1191,-5.1191,-5.1078,-5.0903,-5.0775,-5.0721,-5.0702,-5.0702,-5.0702,-5.0702,-5.0702,-5.0663,-4.6284,-4.6308,-4.6308,-4.6308,-4.6308,0.0,0.0,-4.6152,-4.6067,-4.5967,-4.586,-4.5776,-4.5719,-4.5515,-4.5243,-4.4896,-4.4663,-4.4354,-4.3836,-4.3597,-4.3497,-4.3497,-4.3497,-4.3286,-4.275,-4.244,-4.1913,-4.103,-4.1464,-4.1664,-4.1358,-4.1937,-4.2121,-4.181,-4.2346,-4.2386,-4.181,-4.2121,-4.2121,-4.181,-4.149,-4.1161,-4.0903,-4.0607,-4.054,-4.0696,-4.1813,-4.2506,-4.2946,-4.4113,-4.4587,-4.4587,-4.4587,-4.4587,-4.4587,-4.4587,-4.4587,-4.4587,-4.4587,-4.4587,-4.4587,-4.4587,-4.4587,-4.4587,-4.4587,-4.4998,-4.5648,-4.624,-4.7088,-4.7937,-4.821,-4.8604,-4.8978,-4.9416,-4.98,-5.0206,-5.0604,-5.0702,-5.0702,-5.0702,-5.0702,-5.0721,-5.0779,-5.0818,-5.0856,-5.0991,-5.1029,-5.1082,-5.119,-5.1269,-5.1328,-5.1387,-5.1406,-5.1406,-5.1406,-5.1406,-5.1406,-5.1406,-5.1406,-5.1367,-5.1308,-5.1293,-5.122,-5.1048,-5.0893,-5.0818,-5.0818,-5.0721,-5.0702,-5.0702,-5.0702,-5.0702,-4.6308,-4.6308,-4.6308,-4.6308,-4.6308,-4.6308,0.0,0.0,0.0,-4.6113,-4.5967,-4.5853,-4.583,-4.5719,-4.559,-4.5415,-4.5235,-4.491,-4.4341,-4.4013,-4.3802,-4.3718,-4.3589,-4.3359,-4.2948,-4.227,-4.1398,-4.0336,-4.1123,-4.1398,-4.0797,-4.1313,-4.1578,-4.1464,-4.1682,-4.1664,-4.1464,-4.1578,-4.1578,-4.1464,-4.0967,-4.075,-4.0733,-4.0286,-4.0493,-4.1238,-4.1982,-4.2726,-4.347,-4.4265,-4.4587,-4.4587,-4.4587,-4.4587,-4.4587,-4.4587,-4.4587,-4.4587,-4.4587,-4.4587,-4.4587,-4.4587,-4.4682,-4.4759,-4.4759,-4.5545,-4.643,-4.6571,-4.7324,-4.8172,-4.8267,-4.855,-4.8897,-4.9386,-4.9746,-5.0135,-5.0604,-5.0702,-5.0702,-5.0702,-5.0702,-5.0702,-5.0702,-5.0702,-5.0741,-5.0856,-5.0895,-5.0964,-5.1118,-5.1157,-5.1226,-5.1347,-5.1367,-5.1367,-5.1406,-5.1406,-5.1406,-5.1406,-5.1406,-5.1406,-5.1406,-5.1387,-5.1318,-5.1192,-5.1037,-5.093,-5.0914,-5.0779,-5.0721,-5.0702,-5.0702,-5.0779,-4.6308,-4.6308,-4.6308,-4.6308,-4.6308,-4.6308,-4.6308,0.0,-4.623,-4.6113,0.0,-4.6036,-4.5908,0.0,0.0,-4.6281,-4.5626,-4.5119,-4.5156,-4.5065,-4.4893,-4.4597,-4.392,-4.356,-4.3746,-4.2741,-4.1747,-4.0879,-4.1081,-4.0951,-4.0238,-4.0703,-4.078,-4.0303,-4.1286,-4.1331,-4.0286,-4.075,-4.075,-4.0286,-4.0204,-4.0204,-4.0204,-4.0121,-4.0493,-4.1238,-4.1982,-4.2726,-4.347,-4.4265,-4.4587,-4.4587,-4.4587,-4.4587,-4.4587,-4.4587,-4.4587,-4.4587,-4.4587,-4.4587,-4.4587,-4.4587,-4.4944,-4.5425,-4.5425,-4.5865,-4.6524,-4.7106,-4.7385,-4.7614,-4.8172,-4.8326,-4.855,-4.9326,-4.9532,-4.9773,-5.0544,-5.0702,-5.0702,-5.0702,-5.0702,-5.0702,-5.0702,-5.0702,-5.0702,-5.0721,-5.0837,-5.0914,-5.0926,-5.1042,-5.1141,-5.121,-5.1211,-5.1269,-5.1387,-5.1406,-5.1406,-5.1406,-5.1406,-5.1406,-5.1406,-5.1289,-5.1229,-5.1201,-5.1117,-5.1023,-5.0914,-5.0895,-5.0837,-5.0702,-5.0702,-5.1087,-4.6308,-4.6308,-4.6308,-4.6308,-4.6308,-4.6308,-4.6308,-4.6308,-4.6289,-4.623,0.0,0.0,0.0,0.0,0.0,0.0,-4.6167,-4.6141,-4.6016,-4.6341,-4.612,-4.4833,-4.4819,-4.4803,-4.4596,-4.3358,-4.2492,-4.2302,-4.1613,-4.1068,-4.0747,-4.0525,-4.0336,-4.0121,-4.0546,-4.0594,-4.0121,-4.0336,-4.0336,-4.007,-4.007,-4.007,-4.007,-4.007,-4.073,-4.1863,-4.2168,-4.298,-4.4113,-4.4451,-4.4587,-4.4587,-4.4587,-4.4587,-4.4587,-4.4587,-4.4587,-4.4587,-4.4587,-4.4587,-4.4682,-4.4998,-4.5545,-4.6014,-4.6014,-4.6478,-4.7044,-4.7342,-4.7656,-4.7977,-4.821,-4.8306,-4.8513,-4.9295,-4.9504,-4.9719,-5.0523,-5.0702,-5.0702,-5.0702,-5.0702,-5.0702,-5.0702,-5.0702,-5.0702,-5.0702,-5.0741,-5.0818,-5.0895,-5.0943,-5.102,-5.1136,-5.1137,-5.1176,-5.1289,-5.1289,-5.1328,-5.1406,-5.1406,-5.1406,-5.1406,-5.1348,-5.1328,-5.1328,-5.1216,-5.1132,-5.1068,-5.0972,-5.1106,-5.151,-5.1433,-5.1587,-4.625,-4.6269,-4.6288,-4.6253,-4.6255,-4.6245,-4.6192,-4.6198,-4.6261,-4.6543,-4.6523,0.0,0.0,0.0,-4.6738,-4.6989,0.0,-4.7362,-4.724,-4.7662,-4.7384,-4.5734,-4.5937,-4.5918,-4.5138,-4.4143,-4.356,-4.3528,-4.2412,-4.1648,-4.1495,-4.0745,-4.0237,-4.0121,-4.007,-4.007,-4.007,-4.007,-4.007,-4.007,-4.007,-4.007,-4.007,-4.007,-4.0882,-4.2286,-4.2286,-4.3149,-4.4587,-4.4587,-4.4587,-4.4587,-4.4587,-4.4587,-4.4587,-4.4587,-4.4587,-4.4587,-4.4587,-4.472,-4.4961,-4.5545,-4.6161,-4.6664,-4.6664,-4.7132,-4.7656,-4.7656,-4.7977,-4.8306,-4.8306,-4.8306,-4.8513,-4.9295,-4.9504,-4.9719,-5.0523,-5.0702,-5.0702,-5.0702,-5.0702,-5.0702,-5.0702,-5.0604,-5.0544,-5.0544,-5.0544,-5.0542,-5.0514,-5.0617,-5.0718,-5.0856,-5.0863,-5.0966,-5.116,-5.1164,-5.1216,-5.1313,-5.1313,-5.132,-5.1348,-5.1348,-5.1367,-5.1406,-5.1308,-5.1342,-5.1571,-5.1373,-5.1681,-5.2433,-5.2068,-5.2164,-4.6113,-4.6191,-4.6273,-4.6129,-4.6116,-4.6059,-4.594,-4.5907,-4.6183,-4.7165,-4.7363,-4.7656,-4.8633,-4.8691,-4.8886,-4.9726,-4.9079,0.0,0.0,-4.8971,-4.8624,-4.7703,-4.7294,-4.6501,-4.5152,-4.508,-4.4827,-4.412,-4.348,-4.2846,-4.2215,-4.1353,-4.0655,-4.0121,-4.007,-4.007,-4.007,-4.007,-4.007,-4.007,-4.007,-4.007,-4.007,-4.007,-4.0882,-4.2286,-4.2286,-4.3149,-4.4587,-4.4587,-4.4587,-4.4587,-4.4587,-4.4587,-4.4587,-4.4587,-4.4587,-4.4587,-4.4587,-4.4998,-4.5545,-4.6192,-4.6801,-4.7385,-4.7385,-4.7797,-4.8267,-4.8267,-4.8306,-4.8306,-4.8306,-4.8306,-4.8513,-4.9295,-4.9504,-4.9719,-5.0523,-5.0702,-5.0702,-5.0702,-5.0702,-5.0702,-5.0702,-5.0377,-5.0135,-5.0135,-5.0135,-4.9974,-4.9608,-4.9898,-5.0195,-5.0297,-5.0337,-5.0548,-5.1048,-5.1089,-5.1103,-5.1103,-5.1103,-5.1141,-5.1191,-5.1211,-5.1269,-5.1406,-5.1406,-5.1738,-5.246,-5.2329,-5.2632,-5.3339,-5.2356,-5.2799,-4.6083,-4.6133,-4.6153,-4.61,-4.6103,-4.6061,-4.5935,-4.5907,-4.6148,-4.7088,-4.7271,-4.7541,-4.8464,-4.8672,-4.8808,-4.9082,-4.9342,-4.9534,0.0,-4.9779,-4.9757,-4.9472,-4.8269,-4.7405,-4.7177,-4.6398,-4.5986,-4.6237,-4.439,-4.3187,-4.2926,-4.128,-4.0286,-4.0138,-4.007,-4.007,-4.007,-3.9558,-3.9558,-4.007,-3.9065,-3.8816,-3.9315,-3.9315,-4.013,-4.1599,-4.2109,-4.3149,-4.4587,-4.4587,-4.4587,-4.4587,-4.4587,-4.4587,-4.4587,-4.4587,-4.4852,-4.5284,-4.5648,-4.6209,-4.6774,-4.7017,-4.747,-4.7995,-4.7995,-4.8132,-4.8306,-4.8306,-4.8306,-4.8306,-4.8306,-4.8477,-4.8847,-4.9356,-4.9719,-5.0043,-5.0565,-5.0702,-5.0702,-5.0702,-5.0702,-5.0702,-5.0702,-5.0358,-5.0092,-5.0092,-5.0092,-4.9949,-4.9532,-4.9617,-4.9709,-4.9784,-5.0002,-5.0265,-5.0548,-5.0906,-5.1106,-5.1106,-5.1106,-5.1111,-5.1121,-5.1186,-5.1211,-5.1269,-5.1914,-5.2338,-5.2496,-5.2943,-5.3596,-5.4376,-5.3857,-5.3933,-4.5994,-4.6053,-4.6106,-4.6105,-4.6095,-4.6065,-4.5911,-4.5853,-4.6123,-4.7009,-4.7403,-4.7811,-4.8509,-4.9148,-4.9508,-4.9276,-4.9932,-5.0491,0.0,-5.0522,-5.0499,-5.0317,-4.9148,-4.8366,-4.8384,-4.7472,-4.6953,-4.7152,-4.4938,-4.3471,-4.3208,-4.1392,-4.0286,-4.0138,-3.9833,-3.9662,-3.9662,-3.8924,-3.8761,-3.9279,-3.8262,-3.8035,-3.8525,-3.8525,-3.9362,-4.0866,-4.1593,-4.2762,-4.4198,-4.4468,-4.4587,-4.4587,-4.4587,-4.4587,-4.4626,-4.4869,-4.532,-4.5915,-4.6524,-4.7044,-4.7446,-4.7656,-4.7977,-4.8306,-4.8306,-4.8306,-4.8306,-4.8306,-4.8383,-4.8513,-4.8513,-4.8813,-4.9202,-4.9617,-4.9924,-5.0206,-5.0604,-5.0702,-5.0702,-5.0702,-5.0702,-5.0702,-5.0702,-5.0483,-5.0272,-5.0116,-5.0092,-4.9879,-4.9356,-4.9416,-4.9445,-4.9295,-4.9664,-5.0035,-5.0394,-5.076,-5.0972,-5.0972,-5.0972,-5.0991,-5.1029,-5.135,-5.1552,-5.166,-5.2598,-5.3201,-5.3428,-5.3848,-5.4467,-5.5261,-5.503,-5.4934]}]]